GFSMA_850_spd_000.txt.gz
Wind_Speed
2 4 7 8 9 10 11 13 18 22 23 22 21 25 24 21 18 18 18 18 17 17 17 17 18 19 20 20 20 15 14 15 16 18 17 17 18 18 19 21 21 24 25
5 7 9 9 9 11 15 18 24 24 21 19 21 18 15 17 20 20 19 19 19 20 20 21 22 21 19 20 20 24 22 18 17 17 19 18 18 18 18 19 23 23 25
10 11 10 10 14 18 20 25 26 21 18 18 18 17 17 18 20 22 23 23 20 20 20 19 22 25 26 24 25 25 26 26 21 17 16 17 18 19 20 19 20 24 24
10 10 14 18 19 22 26 26 22 20 19 20 18 19 22 23 24 24 26 26 25 24 22 21 22 23 24 28 28 30 31 30 26 23 17 17 18 18 19 21 21 22 24
12 15 18 20 23 25 24 22 20 19 21 21 21 22 22 24 26 28 27 24 21 19 20 20 22 22 25 27 28 32 32 33 32 26 25 20 17 18 17 19 21 22 22
16 20 22 21 24 26 25 22 22 22 24 25 26 27 28 28 28 27 26 23 19 19 18 19 18 17 21 24 24 26 29 31 34 31 23 24 23 20 20 18 19 21 22
21 19 22 23 25 21 21 20 20 21 24 27 30 31 32 30 27 27 20 20 26 26 25 25 25 26 26 25 27 26 24 26 30 35 29 22 25 25 22 21 20 21 20
18 19 20 20 17 17 20 22 24 23 26 28 28 28 15 21 12 16 23 25 24 28 28 30 32 34 37 38 36 35 34 28 26 29 34 31 23 25 26 24 22 22 21
17 18 17 15 20 29 31 31 28 27 27 25 23 15 9 6 23 21 25 28 23 27 34 35 33 33 34 35 37 37 39 40 34 29 29 35 29 25 27 28 24 22 24
16 17 20 29 35 35 30 22 25 27 27 26 20 17 13 16 14 19 20 30 34 34 36 37 35 31 27 26 25 27 32 36 38 36 31 30 32 29 25 31 29 25 24
25 28 29 30 27 23 24 23 25 26 25 21 21 22 23 19 14 14 25 24 25 30 28 30 27 27 25 21 21 23 25 28 32 33 34 31 30 29 24 29 31 27 25
23 28 26 25 24 19 18 20 23 23 21 19 17 15 15 17 18 16 17 21 23 30 27 20 21 22 22 19 19 20 23 25 28 31 27 25 25 24 31 30 30 28 25
24 24 23 22 14 12 11 14 19 22 19 17 15 14 17 18 18 17 19 21 26 34 29 31 24 19 17 19 18 17 21 23 25 26 21 20 20 23 26 29 28 26 24
26 24 22 20 22 23 27 14 14 18 16 17 16 17 15 15 16 18 20 23 31 29 35 35 31 23 18 16 15 13 12 15 17 21 24 24 25 23 24 23 19 20 21
26 21 16 17 21 22 8 12 16 15 15 15 17 18 20 19 17 17 19 21 25 33 35 32 31 24 18 19 15 12 12 10 13 17 18 29 22 24 23 27 24 23 21
19 16 13 21 19 22 15 11 12 14 16 17 18 20 21 20 20 22 26 28 29 32 36 36 38 28 19 16 21 6 8 12 10 10 15 13 19 26 26 25 29 31 29
15 18 22 25 16 15 9 11 14 16 19 20 24 23 21 22 27 31 33 31 30 30 34 37 34 31 23 17 20 15 3 9 10 13 14 14 13 20 23 24 29 24 23
15 16 18 23 19 9 9 13 17 18 22 23 23 22 26 31 34 32 28 28 28 28 28 31 30 29 22 17 18 12 17 6 12 11 14 13 13 13 21 20 18 13 12
13 20 21 14 6 8 13 15 19 22 24 25 26 29 33 33 31 28 27 28 30 25 24 21 25 24 25 24 23 23 17 14 16 13 11 12 11 13 15 23 17 12 12
18 13 11 9 9 13 15 19 23 24 24 25 29 32 32 31 30 28 27 28 25 27 26 27 25 23 21 21 23 22 21 23 17 14 14 11 7 6 10 16 19 14 16
13 12 10 10 13 17 17 21 23 24 26 31 32 31 30 30 26 26 27 28 30 28 27 25 24 24 19 16 21 20 22 23 20 19 17 13 6 2 4 8 12 12 14
12 12 11 13 18 19 19 20 24 27 30 33 31 31 31 29 28 25 30 25 22 24 26 25 24 23 23 22 14 16 13 15 17 18 17 17 16 5 3 5 8 14 16
13 15 16 19 20 15 20 24 25 29 30 28 28 29 28 26 24 23 20 18 21 20 17 19 21 23 22 19 20 18 15 16 18 16 17 19 19 19 13 7 12 12 14
17 17 17 14 12 20 23 24 28 27 26 26 24 21 22 21 19 17 23 23 20 19 19 17 18 18 17 20 21 22 23 22 23 22 19 22 21 20 21 20 16 12 12
18 16 13 13 22 18 22 26 25 24 24 23 20 19 19 19 18 19 22 23 20 18 19 20 20 21 22 23 16 16 20 22 23 23 21 22 23 19 19 20 21 22 20
15 15 15 15 15 19 22 22 21 22 23 22 19 19 17 18 18 18 19 21 19 20 18 17 16 16 18 22 26 24 22 14 15 16 15 16 16 12 8 13 16 17 18

GFSMA_850_spd_003.txt.gz
Wind_Speed
4 5 6 7 9 11 13 15 17 21 23 22 21 19 20 18 18 18 20 21 20 19 20 20 20 19 20 20 20 19 15 14 12 10 12 13 12 14 16 18 20 21 21
10 8 9 10 12 15 18 19 22 25 24 21 19 18 17 16 18 20 23 25 24 22 20 22 22 22 21 21 24 24 23 20 18 16 14 13 15 15 15 16 19 22 22
12 10 13 16 17 18 20 24 25 25 24 22 20 20 18 20 21 23 23 23 25 27 27 26 25 24 23 22 23 26 27 25 25 24 20 17 15 15 15 16 17 21 23
10 10 14 15 18 21 22 24 23 21 20 20 21 21 22 25 27 29 29 29 30 31 32 30 27 26 26 26 24 23 25 28 27 27 27 24 19 16 16 15 18 22 22
10 14 18 19 18 22 25 22 21 21 21 21 22 23 23 26 29 31 32 31 30 29 27 26 27 25 24 27 27 26 24 24 25 27 27 29 26 20 17 17 17 20 22
14 19 18 17 20 19 18 19 20 22 23 24 25 26 30 33 32 27 28 30 30 27 23 23 25 28 29 28 27 28 26 23 24 23 24 24 29 29 22 18 20 20 19
18 21 18 18 18 17 18 18 21 24 27 28 27 21 23 24 21 22 26 21 20 23 25 25 26 29 31 34 35 34 34 33 29 25 22 22 25 29 29 26 23 21 20
19 19 18 17 18 22 25 28 28 26 23 25 22 16 17 16 15 19 16 18 23 26 24 25 29 32 34 36 39 40 38 39 39 35 30 25 23 28 29 30 27 22 22
17 17 18 21 25 28 28 24 20 17 16 21 23 12 11 11 18 12 18 17 19 23 25 27 29 32 34 33 32 36 39 37 38 39 36 33 30 24 29 29 28 27 24
18 20 23 27 27 25 20 19 18 17 18 14 15 11 15 15 16 19 17 21 20 21 22 20 24 26 28 26 29 31 32 34 34 34 34 33 32 32 25 29 30 29 28
21 25 27 27 24 21 18 17 15 15 18 20 20 16 12 12 13 14 23 21 21 18 18 21 19 21 23 27 27 27 29 29 29 30 30 28 25 31 29 27 28 31 30
26 27 28 25 24 23 21 19 18 21 20 21 16 10 10 12 14 13 16 21 24 22 22 21 21 20 22 24 25 26 27 28 26 27 26 23 21 19 18 25 27 30 30
29 28 24 22 20 19 15 14 13 12 16 13 12 10 12 12 12 12 13 19 24 27 25 23 22 23 23 22 23 23 24 23 22 24 22 21 19 19 17 23 28 29 28
27 25 22 18 17 15 15 22 15 16 12 13 14 14 15 16 18 18 17 18 27 30 30 29 25 24 20 20 23 22 19 18 16 16 19 18 21 20 19 18 18 24 28
25 21 16 14 17 15 24 15 11 10 13 15 18 17 20 20 20 19 19 17 22 32 37 33 30 25 26 24 21 20 18 18 15 14 12 13 13 20 21 27 21 19 21
22 16 13 12 15 24 17 8 8 10 14 17 19 20 21 21 19 20 20 21 21 24 34 31 31 29 27 24 23 21 18 17 9 13 12 8 10 14 18 23 28 27 21
15 12 12 15 19 21 11 10 9 12 15 19 21 20 20 20 19 21 20 20 21 22 28 36 29 27 26 24 22 19 18 14 9 7 12 12 11 11 12 18 23 27 31
13 10 13 19 22 17 8 11 11 13 19 20 20 20 18 20 21 22 21 22 22 23 25 32 28 24 21 21 22 19 18 15 12 9 11 10 12 10 11 12 19 21 23
18 15 20 18 11 8 11 14 14 17 23 20 21 25 27 26 24 23 24 24 21 21 21 23 30 26 24 22 21 21 19 16 16 16 14 14 13 9 10 11 15 18 24
18 14 13 12 12 11 14 15 16 22 24 23 26 30 32 27 22 22 22 21 21 21 23 25 25 23 21 19 17 18 19 13 13 16 16 14 14 11 6 7 18 18 20
13 12 13 11 11 14 16 19 19 23 25 28 31 31 28 28 26 22 21 21 23 24 22 22 22 21 19 17 15 11 15 17 14 17 16 13 12 7 6 3 15 14 14
12 13 15 16 17 18 21 15 22 24 28 32 30 29 28 26 19 22 21 19 16 19 20 21 22 20 20 19 17 16 13 11 14 11 7 8 14 8 7 1 3 16 20
15 17 18 16 19 15 14 23 22 27 30 28 27 26 22 19 17 16 17 19 21 20 19 21 22 20 20 18 17 14 13 12 12 12 10 11 11 11 12 9 3 3 11
17 18 20 17 17 17 22 21 26 27 25 24 24 21 19 16 15 17 19 20 18 17 16 17 18 18 18 17 16 16 16 15 16 16 13 14 12 12 12 17 14 8 6
15 16 16 17 15 17 19 24 25 23 22 22 20 17 18 16 16 17 19 19 18 17 15 18 17 17 21 21 20 19 18 14 15 16 15 16 16 15 13 16 21 19 14
18 18 16 15 16 16 21 24 22 21 20 20 18 18 18 17 16 18 17 17 17 18 20 18 14 14 16 18 19 19 20 17 13 11 11 13 11 10 8 10 16 20 20

GFSMA_850_spd_006.txt.gz
Wind_Speed
4 8 13 11 10 11 12 12 12 16 18 15 17 21 19 19 23 14 13 21 22 23 21 20 19 20 22 23 21 19 18 19 18 18 16 14 14 15 15 16 16 19 22
15 11 18 14 13 15 17 16 19 21 16 18 14 17 17 16 14 16 13 17 20 22 23 23 23 22 22 23 24 25 23 22 22 22 19 17 17 16 17 16 17 19 20
9 10 12 13 14 17 19 20 18 14 14 15 16 16 16 15 15 14 15 14 15 20 26 30 29 30 28 26 24 24 24 24 23 23 25 23 21 19 18 18 19 19 20
2 9 11 14 17 19 18 15 13 14 16 17 17 17 18 17 18 17 17 16 18 19 20 23 30 34 31 26 26 25 24 23 22 24 24 26 23 23 20 19 20 21 21
5 9 13 17 17 16 15 14 11 15 15 17 18 20 21 22 23 23 22 18 16 13 15 20 26 28 29 29 28 27 26 24 24 22 24 25 26 22 24 22 22 22 21
9 11 13 16 14 9 10 11 15 15 16 16 19 25 23 24 24 22 19 17 16 15 14 14 15 15 22 27 30 32 31 30 29 27 24 23 24 27 24 25 26 24 23
12 13 9 11 12 12 14 16 16 18 20 18 21 23 23 23 17 19 17 18 18 16 16 18 18 19 20 23 24 24 33 34 31 32 32 30 25 25 28 29 29 28 25
14 12 15 14 14 16 17 16 16 18 18 16 17 21 23 23 20 13 19 20 19 20 21 21 21 21 21 22 22 28 25 32 36 34 32 34 34 30 26 28 29 29 28
16 17 17 18 19 18 18 16 14 13 13 14 15 17 21 23 26 24 19 22 20 22 21 21 21 20 20 21 21 21 23 29 32 33 34 33 33 34 34 28 30 31 31
21 23 20 24 23 20 18 14 12 12 10 15 18 18 18 19 23 27 23 24 23 21 22 21 20 21 21 20 22 22 25 29 27 30 31 33 31 30 33 34 31 33 32
18 19 21 20 20 19 16 12 10 8 11 14 20 19 18 18 18 20 25 23 22 20 20 20 22 20 22 22 22 22 28 29 27 28 29 30 29 26 27 32 35 33 34
19 19 19 20 19 16 13 9 7 10 13 15 12 12 13 15 17 18 21 23 24 23 21 22 21 23 23 23 23 25 27 28 28 28 27 28 29 24 24 26 31 35 34
19 19 20 18 14 13 9 8 8 18 11 12 11 12 14 15 16 18 21 24 26 27 26 24 24 24 25 25 23 24 26 24 27 27 25 26 25 23 23 22 25 28 32
18 20 18 12 8 7 7 11 13 13 12 11 12 14 17 18 18 19 20 22 29 32 30 30 28 27 25 24 28 29 23 22 28 24 24 24 23 20 22 24 25 28 29
18 17 14 7 7 7 13 12 14 12 10 12 15 17 18 19 19 18 18 20 25 34 36 34 33 27 27 26 26 26 23 22 29 23 22 20 17 16 17 23 25 23 23
18 15 11 9 10 11 14 17 13 11 11 13 16 18 19 18 18 18 20 23 25 29 37 34 33 30 28 27 25 25 24 22 22 24 21 16 15 12 15 19 20 22 26
16 13 11 13 14 18 19 16 11 13 13 15 18 20 20 19 20 22 24 25 27 28 34 39 32 29 28 28 24 23 21 20 21 18 10 9 13 15 14 15 17 18 24
16 13 12 15 18 20 16 10 12 14 17 19 20 20 21 22 24 25 25 26 28 28 30 36 31 29 27 27 26 25 22 22 23 19 15 5 6 9 15 14 14 14 18
15 13 13 14 14 12 11 12 14 15 16 17 19 20 23 24 25 24 25 26 26 24 23 29 32 28 27 24 24 22 22 21 22 17 14 18 12 8 8 13 15 14 17
14 12 12 13 12 11 11 12 12 13 14 17 19 21 23 22 22 22 23 23 22 22 22 27 29 26 24 22 21 20 19 18 22 15 13 12 13 11 9 11 14 14 14
13 13 11 11 11 11 15 16 20 14 17 18 19 19 18 20 28 23 18 19 20 21 20 22 25 24 21 20 19 20 19 17 16 12 14 12 11 9 8 7 13 13 19
14 14 15 13 11 10 19 18 14 17 16 18 18 18 17 18 15 20 19 20 18 19 22 22 23 23 23 20 18 16 17 15 16 10 8 12 8 9 9 7 14 12 15
14 15 16 13 13 9 16 16 19 19 20 16 16 16 16 15 18 16 18 20 21 20 21 21 22 22 22 19 18 18 17 15 14 15 6 8 9 9 10 10 13 12 9
15 14 13 12 10 12 16 18 18 22 18 15 15 15 14 15 15 20 18 20 19 19 18 18 19 20 20 20 17 16 17 19 18 16 13 15 13 11 10 9 13 10 7
14 14 13 10 11 11 17 18 21 23 19 17 14 12 15 14 16 18 18 19 19 18 17 19 22 23 20 20 19 18 19 18 18 17 16 15 16 14 13 13 11 15 9
15 12 13 16 16 15 17 20 22 20 17 15 12 12 16 18 20 18 17 17 18 18 21 21 19 16 16 15 15 15 18 19 19 14 13 16 15 14 13 13 11 12 18

GFSMA_850_spd_009.txt.gz
Wind_Speed
7 7 14 19 11 12 12 14 15 14 16 17 15 15 14 16 15 14 13 22 21 22 22 19 18 20 21 21 20 19 19 20 20 21 19 19 17 17 17 18 18 18 19
11 14 11 7 9 11 13 13 14 15 16 14 15 17 17 17 17 15 15 19 23 21 21 25 26 26 24 24 24 23 22 21 21 23 23 21 21 19 18 18 20 19 19
12 11 7 9 10 13 17 14 13 14 14 17 17 18 18 17 18 18 17 17 18 23 20 21 24 26 26 26 24 22 22 23 22 21 23 25 23 22 21 20 19 21 22
4 6 7 11 14 16 16 16 14 15 15 17 20 19 19 20 20 20 21 20 19 19 22 22 24 24 28 27 26 23 20 20 22 23 22 24 24 24 23 23 22 21 22
4 5 6 7 11 11 13 14 14 16 19 21 22 21 22 25 22 22 23 22 18 16 15 19 24 24 24 21 26 26 22 22 23 24 25 23 24 24 26 25 25 24 22
5 4 7 9 11 11 14 15 17 18 19 22 24 23 25 21 22 23 18 17 18 16 18 17 20 19 25 24 27 27 20 20 22 19 26 28 27 25 24 28 27 26 25
6 10 7 10 14 15 16 18 21 21 21 22 23 23 21 22 19 19 18 12 15 18 20 21 20 21 21 23 20 20 25 22 18 22 29 28 31 32 30 25 29 28 27
7 9 12 14 15 17 19 20 19 21 19 18 19 21 24 25 19 19 23 24 24 19 20 21 21 21 21 21 20 23 17 22 26 26 31 30 29 31 33 32 29 30 31
10 13 15 17 18 19 20 21 19 17 18 17 16 19 25 23 27 25 24 25 26 24 22 23 23 22 21 21 20 20 22 28 29 29 27 27 28 29 33 35 34 32 31
13 15 17 19 19 19 20 19 16 14 17 17 18 18 20 23 28 31 24 22 21 23 22 24 22 22 24 21 23 21 25 27 31 33 29 26 27 27 29 32 35 34 33
14 15 16 18 18 18 18 17 16 16 15 17 18 19 18 20 21 24 29 26 23 23 21 22 20 23 23 24 24 25 27 32 31 29 28 26 26 25 26 27 31 34 32
13 14 15 17 17 16 15 15 13 13 13 15 15 15 16 20 21 22 24 25 27 25 22 21 23 24 25 26 27 28 28 29 33 29 29 27 23 22 23 25 26 27 28
12 14 17 16 15 13 12 13 13 19 16 13 14 14 15 17 18 20 22 26 28 27 26 24 24 26 27 28 28 29 33 37 32 28 31 30 22 21 25 25 25 26 27
13 15 15 15 12 11 13 12 15 13 13 14 12 14 14 17 18 20 21 24 28 30 29 28 28 28 27 27 28 31 30 30 30 31 32 29 23 21 24 25 25 30 26
13 13 13 13 12 12 13 14 15 16 17 13 12 15 15 17 19 20 21 22 24 30 33 33 33 29 28 29 29 29 28 29 29 31 31 30 26 22 21 21 21 26 29
12 13 13 12 14 13 17 17 19 17 14 12 15 15 17 18 19 20 22 23 25 30 37 34 34 32 30 29 28 30 29 28 28 27 28 32 28 24 24 17 18 20 25
12 13 13 13 13 16 18 19 19 17 15 14 15 16 18 19 21 22 24 26 28 29 33 38 35 32 30 29 28 28 29 29 26 27 28 28 24 24 24 18 18 19 21
13 13 13 13 15 17 17 16 14 14 16 16 17 18 20 22 23 24 25 26 27 28 31 36 36 32 30 27 28 28 26 24 25 26 28 31 16 15 20 16 19 19 19
13 12 12 14 15 15 14 14 14 15 15 14 15 17 19 22 25 25 23 24 26 27 27 29 34 31 30 27 26 25 24 23 24 23 29 28 12 20 12 10 14 18 18
13 12 12 14 14 13 13 13 14 15 16 19 17 20 22 21 20 20 22 20 20 22 24 25 27 27 26 25 24 25 25 21 22 22 24 17 15 14 14 12 17 16 17
12 12 13 14 12 12 12 13 15 15 14 17 19 20 19 21 27 26 22 18 17 18 20 22 25 26 24 23 23 24 24 23 22 22 22 13 11 10 9 8 12 13 13
13 13 14 15 14 13 16 14 14 15 14 16 19 18 17 17 16 22 18 17 23 20 21 22 24 25 25 23 23 24 22 20 21 18 18 13 11 7 8 11 13 17 13
14 14 14 14 13 14 16 15 15 17 14 17 16 15 15 14 17 15 16 20 19 21 24 25 22 22 24 22 24 23 20 19 18 18 17 13 9 6 8 10 14 18 15
16 15 14 14 12 15 17 19 16 17 14 15 14 13 13 13 15 21 23 18 18 18 18 18 22 24 24 26 26 24 23 22 22 20 18 16 15 12 11 10 12 17 14
17 17 15 13 12 15 20 18 17 18 14 13 12 12 13 13 16 20 22 19 19 18 17 21 24 26 24 19 18 18 19 18 20 19 17 19 17 15 13 14 14 17 15
18 17 15 12 12 14 21 17 16 19 15 12 11 11 14 19 21 21 22 21 18 19 22 22 19 19 17 17 18 16 15 17 18 20 16 14 16 15 15 18 16 18 13

GFSMA_850_spd_012.txt.gz
Wind_Speed
4 4 9 12 10 6 7 10 11 14 18 20 18 15 16 17 19 17 17 16 21 22 16 19 20 22 23 23 20 19 19 19 20 20 18 17 18 19 16 13 14 16 17
9 8 9 7 7 15 14 14 17 20 17 13 14 16 17 18 16 15 17 17 19 24 21 20 18 21 22 23 24 22 20 21 22 23 21 20 17 19 20 18 15 14 17
8 8 3 7 14 12 15 20 21 20 17 17 14 17 17 17 16 17 19 19 22 22 21 19 21 18 22 26 29 25 21 19 20 23 23 23 22 19 21 22 20 17 16
1 1 7 10 10 11 14 15 15 12 15 17 18 21 19 20 19 19 19 18 21 21 18 17 17 20 22 23 24 22 21 20 22 21 24 26 26 25 22 24 23 21 19
3 4 8 11 13 9 9 13 14 17 21 20 20 21 25 22 19 19 22 23 16 17 15 14 16 17 17 15 16 20 23 20 21 23 22 27 29 29 28 23 26 24 23
6 5 4 11 13 11 12 14 20 18 20 20 22 22 22 18 17 14 14 9 7 12 14 19 21 17 16 18 18 17 18 24 23 20 20 24 27 30 32 30 24 27 26
7 11 5 9 10 12 15 19 19 18 18 22 21 18 19 21 15 18 17 17 18 17 16 19 19 19 23 25 23 18 20 22 18 20 23 26 28 29 30 32 30 28 28
8 6 12 14 14 17 17 16 19 22 20 16 17 20 21 22 15 19 21 24 24 22 23 20 22 22 22 19 21 20 16 20 22 22 23 26 27 28 28 29 31 28 30
9 8 10 13 16 17 17 19 20 18 16 14 14 16 22 16 24 19 20 20 21 20 22 21 19 20 21 19 25 19 24 26 27 28 26 27 28 28 29 29 28 28 28
11 13 14 16 18 18 19 17 15 19 20 14 14 14 18 20 24 27 15 19 21 20 20 21 20 17 18 23 22 23 24 24 29 35 32 29 28 27 29 28 28 28 24
11 12 13 17 18 17 15 16 15 17 17 16 14 16 16 16 17 21 26 21 23 22 24 23 20 22 22 22 23 23 24 30 32 32 34 32 30 28 29 27 26 27 27
12 12 16 17 16 13 12 13 17 16 16 19 22 20 14 16 17 19 22 25 25 24 22 24 22 22 22 25 26 29 32 33 35 37 38 32 29 29 28 24 25 26 25
11 13 17 15 14 9 14 16 18 20 22 20 16 12 12 16 16 18 21 27 25 28 27 26 23 24 28 30 30 27 30 33 33 30 30 29 30 30 29 25 24 25 25
11 14 14 13 10 13 15 18 15 14 14 15 16 9 15 14 15 17 20 22 29 30 26 27 26 28 28 26 24 28 29 31 35 33 33 33 32 35 29 25 24 27 27
11 11 14 10 9 16 16 17 17 15 19 17 16 15 14 12 16 16 18 20 23 30 30 29 31 28 25 29 28 32 35 36 36 34 33 28 31 29 29 25 24 25 26
12 11 12 12 12 11 13 15 17 17 18 18 14 13 13 13 17 16 19 23 25 29 34 30 29 28 26 31 35 38 39 38 36 31 27 29 27 27 29 26 26 26 25
11 12 12 13 13 12 14 17 18 19 18 17 12 16 19 15 17 20 23 23 25 26 30 31 31 30 32 41 39 33 32 33 29 27 27 27 29 29 27 23 23 27 24
11 13 14 13 12 14 16 17 15 15 16 15 20 14 14 16 19 21 21 23 23 26 29 32 34 35 36 31 28 29 29 28 28 28 25 30 28 28 26 16 17 24 25
14 13 13 12 13 14 18 12 12 13 15 13 13 18 22 20 23 24 27 28 31 31 26 28 32 30 27 26 29 27 27 26 25 23 24 26 26 24 14 21 19 19 21
14 13 13 13 15 15 13 12 12 12 14 14 17 15 18 19 22 25 29 30 25 23 24 23 26 27 28 28 25 27 28 27 30 26 26 26 26 24 12 14 18 19 21
17 13 14 15 17 19 14 15 15 17 18 15 14 16 18 21 25 25 24 24 24 24 23 22 26 27 27 26 27 26 27 29 28 22 26 22 24 20 14 15 19 16 13
14 15 15 16 17 15 17 20 17 17 15 15 15 19 21 17 18 19 19 19 23 25 25 27 31 31 30 26 25 25 28 28 30 22 24 24 22 12 5 11 8 10 17
18 18 17 16 18 18 21 20 16 16 18 14 17 18 19 12 18 21 22 23 23 18 17 21 26 23 25 25 29 32 33 31 29 25 23 26 22 21 15 10 8 10 17
18 19 19 18 17 19 18 19 18 21 19 15 19 19 15 14 20 21 22 24 23 19 14 18 21 24 25 31 25 22 22 23 25 25 24 26 23 21 16 15 13 14 18
20 20 19 19 17 16 16 20 21 21 18 18 18 15 13 18 20 20 23 23 23 21 15 21 25 20 18 17 16 20 22 21 23 21 18 21 22 23 18 16 18 16 18
19 19 19 19 17 17 19 23 23 20 20 18 15 13 13 17 20 22 22 22 23 22 25 23 18 20 15 15 16 18 19 21 22 25 18 18 20 14 15 16 17 15 17

GFSMA_850_spd_015.txt.gz
Wind_Speed
3 5 4 4 2 3 7 11 11 13 17 19 17 10 13 14 12 10 13 15 16 16 21 22 18 17 19 21 21 20 18 18 18 17 16 14 13 18 18 16 15 14 13
4 4 3 2 2 8 11 12 14 16 18 14 12 14 15 14 14 14 14 16 18 17 16 20 14 15 17 19 22 23 24 22 20 19 19 19 18 15 18 20 19 18 17
3 3 3 4 7 8 11 13 17 18 18 16 19 13 14 15 16 17 16 13 19 21 20 13 13 15 17 15 13 19 19 19 16 17 19 20 21 22 18 19 23 22 22
3 2 4 6 7 9 13 14 13 12 13 18 17 11 13 17 18 16 19 17 15 11 8 6 11 13 10 10 10 13 15 14 18 20 21 19 21 22 23 22 20 23 24
3 3 6 9 9 5 8 12 14 17 22 16 14 17 17 16 16 16 14 11 4 6 13 14 12 17 16 14 14 10 12 17 24 21 19 21 22 24 25 27 25 23 23
3 3 6 9 11 10 12 15 17 20 17 17 20 23 13 13 15 14 12 12 12 12 13 12 14 15 16 19 22 21 17 20 19 19 21 22 23 24 25 25 25 25 25
5 6 7 10 14 15 15 18 18 16 18 22 21 20 21 16 10 15 17 15 16 22 23 23 24 25 26 24 21 22 22 16 14 14 17 22 25 27 26 26 25 24 25
5 8 12 12 15 16 17 15 17 19 16 17 18 19 13 19 10 14 17 19 24 20 21 18 18 18 15 17 17 19 16 14 19 20 19 20 25 29 29 26 27 25 25
10 12 14 16 18 19 19 19 18 16 14 14 16 14 7 6 21 11 20 8 14 18 19 19 19 17 15 17 19 15 15 16 19 20 22 23 24 28 31 29 28 27 24
14 15 17 16 16 17 17 17 16 17 19 20 15 13 14 16 16 14 12 16 15 18 20 24 17 20 23 19 14 15 15 18 23 28 23 26 29 29 29 29 30 28 23
14 15 15 15 16 17 14 13 13 14 17 16 14 16 18 21 14 16 21 21 22 22 19 17 22 22 20 21 23 24 26 27 26 28 28 27 28 31 28 27 30 29 24
14 14 14 15 16 13 12 13 14 15 15 16 20 17 15 9 11 15 17 22 23 24 23 25 21 23 23 25 27 29 26 26 29 32 35 31 30 31 30 28 30 29 26
12 13 14 15 14 12 13 16 18 22 18 15 17 14 13 12 15 17 17 20 24 26 25 24 25 27 21 27 25 22 25 30 35 37 37 37 33 32 30 30 30 28 26
11 12 13 13 11 10 15 18 21 16 17 16 20 19 16 16 10 11 15 15 23 29 30 31 30 26 23 22 20 27 32 33 37 41 44 43 38 32 28 28 24 26 26
11 13 14 12 10 10 10 14 13 16 14 18 18 14 12 10 13 14 14 17 18 29 30 30 28 22 21 26 30 33 37 42 47 43 38 34 26 25 25 24 22 25 25
11 13 13 13 14 11 12 11 11 10 14 17 13 11 16 15 17 17 14 17 16 21 25 28 30 29 31 34 38 41 43 41 33 31 24 24 25 26 23 24 25 23 24
12 13 13 14 14 10 8 14 17 18 14 11 14 16 15 17 14 17 20 22 23 27 28 33 35 37 38 40 40 36 31 29 27 26 25 24 26 27 27 26 23 24 24
15 14 15 14 12 9 14 17 20 16 14 16 17 21 16 17 21 22 25 27 28 28 32 35 35 35 34 32 30 30 28 25 24 22 22 23 23 25 23 23 26 21 21
18 17 18 14 8 13 18 19 12 13 14 16 15 17 21 18 21 24 26 28 29 30 25 25 29 27 25 23 24 23 24 22 23 24 25 20 21 25 28 24 22 21 20
19 19 18 12 11 17 19 20 19 17 18 15 18 15 17 20 23 27 30 29 26 26 26 27 26 26 25 25 24 27 27 27 28 26 21 19 21 23 23 19 19 16 17
20 21 16 14 15 18 18 20 17 18 22 22 18 17 19 22 27 29 25 26 27 26 28 28 27 28 30 29 27 29 28 34 36 33 25 22 21 21 23 13 18 14 17
20 19 19 20 19 19 21 21 20 19 19 18 18 18 20 24 24 24 24 25 24 26 26 21 24 26 25 23 25 29 34 36 36 28 25 28 20 21 25 5 8 10 7
18 21 23 24 21 21 22 21 20 20 19 20 20 20 21 23 23 23 24 25 21 22 20 19 20 25 29 28 29 33 28 25 27 27 25 26 22 22 20 18 16 9 10
22 20 24 21 22 22 21 20 18 18 20 21 20 21 22 21 21 21 23 22 22 21 19 15 20 27 28 22 18 19 23 26 26 22 18 24 21 21 21 16 14 11 13
20 20 20 19 22 22 20 19 19 20 20 20 21 23 19 18 20 22 22 24 23 20 17 16 16 17 16 12 13 17 19 25 25 24 22 20 18 21 18 15 12 12 14
23 24 23 22 22 22 21 20 20 20 19 19 22 19 17 18 20 21 22 23 21 17 18 18 18 19 12 12 12 14 17 20 23 28 25 21 21 17 19 7 4 7 14

GFSMA_850_spd_018.txt.gz
Wind_Speed
7 8 8 6 7 5 4 6 9 11 12 14 14 10 11 10 10 12 12 11 10 10 12 14 16 15 14 15 15 19 22 22 21 19 20 18 16 16 18 17 16 17 16
7 8 7 5 5 5 9 10 11 12 15 14 11 13 16 10 10 13 17 18 17 13 11 11 10 10 11 11 13 16 16 17 19 21 21 19 21 21 18 19 19 19 21
5 5 4 5 5 7 11 13 14 16 15 15 16 17 12 9 12 14 16 19 17 14 5 6 7 9 8 6 11 15 12 12 17 19 21 20 22 22 26 24 22 23 21
8 6 6 5 8 10 12 15 16 16 15 16 20 13 11 14 15 15 15 14 5 1 4 6 7 8 9 10 11 9 14 15 19 19 13 16 18 29 36 35 28 25 25
7 6 6 6 7 11 14 17 17 18 20 21 16 16 14 13 10 10 11 8 7 5 4 4 6 8 13 17 17 12 9 10 12 15 20 21 29 34 29 26 24 26 26
6 4 6 11 15 17 18 18 19 20 19 17 18 18 16 12 14 13 11 10 11 12 12 13 15 16 17 17 15 13 12 12 12 16 17 23 23 19 19 22 23 23 24
5 4 10 15 17 17 18 18 19 18 17 19 16 15 16 15 12 14 14 15 16 17 18 16 15 13 12 12 14 13 13 12 11 12 14 14 16 19 21 22 23 23 24
4 9 12 15 17 16 17 17 18 18 17 14 14 15 8 14 12 9 15 16 20 19 18 19 20 17 13 14 15 13 10 11 11 13 15 16 17 22 24 26 26 24 24
7 11 14 16 16 16 16 17 18 17 14 16 17 14 7 5 15 7 10 7 11 17 20 21 20 12 16 19 18 15 14 14 15 17 16 17 20 22 28 29 29 27 25
8 12 15 14 13 15 15 14 13 13 13 12 13 12 11 13 13 11 15 15 16 17 18 16 14 17 20 17 19 21 22 22 23 24 22 20 22 25 25 29 30 28 26
11 14 13 12 14 15 15 13 11 11 12 12 14 16 18 18 16 14 15 16 17 17 13 16 21 23 25 24 26 22 23 18 18 21 24 24 26 28 27 28 31 29 28
15 12 11 11 13 13 13 12 11 13 16 18 17 13 14 14 13 14 18 21 20 20 17 19 22 24 27 25 22 25 24 23 22 23 27 32 30 30 32 32 31 30 29
10 10 11 11 13 14 12 13 14 18 18 14 15 14 13 13 13 16 16 18 23 25 23 21 23 26 25 22 23 23 23 25 30 33 35 37 37 35 33 32 29 28 28
9 8 12 14 13 12 12 12 14 17 16 19 17 18 15 14 14 14 13 16 22 27 27 28 28 23 19 21 24 28 32 36 40 41 43 41 31 26 24 25 24 25 25
9 14 13 14 14 13 13 14 12 13 15 15 16 18 18 17 17 15 15 19 19 25 31 28 25 28 27 30 32 34 37 40 39 37 31 25 22 22 22 23 23 23 24
10 11 13 14 14 13 13 12 14 16 17 18 21 14 16 16 16 19 18 19 20 22 27 31 33 34 36 37 35 34 33 32 31 28 24 21 19 20 21 22 24 24 25
12 13 14 15 16 14 13 11 14 18 22 20 17 16 15 17 14 16 20 21 23 26 29 35 35 34 32 31 28 25 26 25 23 22 21 20 22 22 23 23 23 24 27
11 12 15 16 15 14 13 13 16 20 16 17 18 18 21 19 20 19 22 23 23 26 29 30 30 31 31 26 22 23 22 21 21 20 22 23 22 21 21 22 26 26 25
10 14 16 16 12 11 13 16 19 23 18 19 18 16 18 22 21 22 23 25 29 28 25 27 31 31 30 26 25 24 23 23 23 25 25 23 20 19 20 22 25 24 23
9 13 16 17 14 11 15 20 22 20 19 20 21 22 25 21 22 23 25 27 26 25 26 28 31 32 29 28 25 25 28 29 33 33 26 20 21 20 20 22 22 20 17
8 11 18 16 18 17 18 21 22 22 20 19 21 22 21 22 22 25 26 25 24 26 28 29 31 31 30 29 27 30 32 35 34 24 21 23 23 19 18 19 20 10 14
2 11 16 18 20 24 23 21 22 23 21 20 21 20 21 21 22 25 23 22 23 26 26 28 28 28 28 29 32 33 29 27 30 23 29 27 19 16 16 17 18 11 6
16 14 21 23 21 24 25 24 22 21 19 19 23 21 21 22 24 23 19 19 21 21 23 24 26 25 29 28 24 23 22 23 26 27 24 27 20 18 15 15 16 12 6
12 20 26 25 24 22 22 22 21 21 25 22 21 21 20 23 23 19 19 20 21 21 22 21 21 21 22 24 21 19 21 23 25 24 24 26 19 19 18 13 11 10 11
20 24 21 23 24 23 19 19 19 22 23 21 20 18 20 22 18 18 20 21 23 22 19 17 16 16 19 16 14 17 19 22 27 26 23 24 27 25 16 5 7 4 10
21 22 24 25 27 24 17 18 21 20 21 20 18 18 20 18 17 17 19 21 23 18 17 16 16 16 16 19 17 16 17 19 21 25 23 27 27 19 15 4 10 7 10

GFSMA_850_spd_021.txt.gz
Wind_Speed
6 7 9 8 7 7 5 6 8 8 9 10 10 8 12 17 13 12 12 12 13 12 6 5 8 7 8 9 10 14 18 16 16 19 19 22 23 22 21 23 23 22 22
8 9 8 7 6 5 7 7 7 8 10 11 12 14 17 16 12 12 14 15 15 14 6 7 2 1 3 4 7 11 13 14 16 15 20 24 26 26 26 26 24 26 25
9 9 8 7 6 6 7 9 11 12 12 13 14 15 12 11 14 16 17 16 14 8 7 6 4 1 2 5 9 8 10 14 15 16 19 15 22 28 33 33 34 34 32
11 11 8 5 6 7 10 11 11 12 12 14 14 11 10 13 15 11 12 13 9 2 4 4 6 8 10 11 13 11 12 14 13 12 14 15 24 27 29 36 39 42 38
11 8 5 4 7 8 11 12 13 14 15 13 12 12 12 13 12 16 16 13 13 9 7 8 10 13 15 15 11 10 12 13 16 14 13 15 20 28 31 30 26 22 24
10 7 5 5 8 12 15 16 16 16 14 14 13 13 13 14 16 17 15 15 14 16 16 16 17 16 14 14 14 11 13 14 14 14 14 16 16 17 21 20 21 21 23
10 5 5 8 12 15 18 19 18 17 17 17 15 11 13 15 13 11 16 14 17 20 17 15 18 18 15 13 13 15 15 15 16 16 17 17 17 18 18 20 21 23 23
10 8 7 9 13 18 21 21 20 20 20 17 14 13 6 10 14 18 12 19 16 13 15 21 21 21 16 14 14 14 15 15 16 17 17 18 18 20 22 23 24 25 25
13 9 10 12 16 19 19 19 19 18 16 16 13 8 6 5 10 16 10 14 12 15 17 15 17 17 17 20 20 19 19 20 20 19 20 21 21 22 23 26 26 25 26
13 12 13 15 17 18 17 18 17 14 12 10 11 10 11 13 12 10 12 14 17 15 14 13 12 14 18 20 22 25 27 23 23 19 19 20 22 23 24 28 28 28 28
17 15 15 16 15 13 14 15 13 11 9 10 12 14 15 13 13 16 17 12 15 17 15 16 16 17 19 21 24 26 27 25 25 21 21 21 23 26 29 30 33 33 32
18 16 14 13 11 12 19 16 12 12 13 15 13 12 13 12 12 13 16 19 19 17 17 18 18 19 23 25 23 21 24 26 22 24 26 30 32 33 35 35 36 35 32
17 16 13 10 15 24 16 12 11 13 15 14 14 13 13 15 14 15 18 19 19 20 21 20 21 24 27 23 22 23 25 28 31 36 38 38 42 42 38 32 30 28 28
17 12 9 15 21 13 11 12 13 13 12 14 15 15 16 18 15 17 20 20 22 25 25 23 24 26 24 26 27 30 32 35 36 39 40 39 33 27 27 26 26 26 26
16 13 17 20 11 12 12 12 13 13 13 14 15 17 18 16 16 17 19 22 24 26 28 24 21 27 31 33 31 29 29 31 31 32 31 26 24 24 23 24 24 25 26
20 16 8 7 13 11 12 20 12 11 12 16 20 18 14 17 16 17 18 20 22 21 27 30 30 31 29 28 28 27 27 27 26 25 24 22 21 22 24 23 24 24 25
15 7 8 10 8 12 16 12 11 12 15 20 17 15 15 15 16 17 18 19 20 23 25 32 32 28 28 28 27 25 25 25 25 24 23 21 22 23 24 24 24 27 28
15 11 9 7 10 9 12 11 11 11 14 17 17 19 19 20 19 21 19 20 21 23 27 29 29 28 28 28 27 26 24 23 23 23 25 28 29 26 22 23 23 25 29
15 12 8 7 8 15 12 10 11 14 17 18 17 19 21 21 22 19 21 22 24 25 24 25 29 29 29 28 29 27 26 26 26 28 27 21 22 23 24 24 24 24 27
15 12 6 7 12 12 13 15 15 18 20 21 21 19 20 21 20 21 21 23 25 23 22 24 27 29 29 29 28 30 33 32 31 22 14 18 22 21 22 24 23 25 26
13 8 6 14 12 16 17 19 21 21 22 23 21 20 20 22 23 23 23 24 23 21 21 24 26 28 28 29 29 31 29 28 24 18 21 22 22 21 18 17 20 21 21
13 9 9 14 18 20 21 20 24 24 22 23 23 23 25 21 24 23 24 24 21 20 22 23 25 26 27 26 26 27 27 26 28 22 28 28 20 20 18 16 17 17 17
14 10 22 14 20 23 22 21 21 24 25 23 24 25 22 22 23 23 24 22 19 20 21 24 24 22 24 22 26 26 21 23 23 27 25 27 21 22 17 18 14 16 13
13 24 19 21 24 24 21 21 21 22 23 24 23 25 21 21 21 23 21 19 19 20 20 21 19 20 19 21 21 22 22 25 28 27 21 24 24 25 22 14 8 7 9
25 21 20 22 23 24 24 22 20 19 22 22 23 25 20 20 20 21 19 19 19 19 20 16 15 16 17 17 19 24 22 23 29 28 20 20 28 29 24 15 6 10 6
23 20 21 23 26 26 24 17 14 17 21 22 24 23 21 19 20 19 19 18 19 17 16 15 14 13 15 17 19 20 19 21 22 27 18 28 29 26 23 17 8 13 11

GFSMA_850_spd_024.txt.gz
Wind_Speed
9 8 7 7 5 4 6 5 6 7 7 9 10 11 13 15 16 11 9 9 10 9 3 6 6 7 7 7 7 12 12 10 15 16 18 23 23 19 24 23 23 21 21
7 7 7 7 7 5 5 6 7 9 10 10 11 14 16 15 11 13 13 13 13 12 9 8 7 1 3 6 7 8 8 10 12 13 14 13 18 23 28 29 30 31 30
8 9 9 7 6 6 7 8 10 10 10 12 13 14 11 11 13 13 10 12 10 7 8 8 7 6 5 6 6 7 8 10 11 13 15 15 15 17 20 24 32 34 35
11 11 9 7 7 7 7 9 9 9 11 12 12 11 11 12 13 9 12 10 9 7 4 6 8 9 10 11 9 9 9 11 13 14 14 15 14 16 18 21 23 24 28
13 11 10 8 7 7 6 8 10 11 11 10 10 11 12 12 11 13 12 8 10 6 7 8 9 12 15 16 15 9 10 12 14 15 14 16 17 17 19 23 23 22 22
14 13 11 8 7 6 6 8 9 11 11 11 11 11 10 11 12 10 9 12 12 13 19 15 15 16 17 18 18 17 13 14 14 14 16 16 16 19 23 22 22 23 24
17 14 11 9 8 6 7 9 12 12 13 13 12 10 11 12 10 9 10 14 14 21 16 16 18 20 18 18 17 16 14 14 14 16 18 19 22 20 22 22 22 22 23
16 15 13 10 8 7 11 12 12 14 15 14 11 12 5 9 10 12 12 18 19 16 13 17 19 18 17 15 17 19 19 17 17 17 18 20 21 22 23 23 24 25 25
19 17 14 12 9 10 11 13 15 18 17 15 13 9 5 4 13 13 15 14 16 13 16 15 15 14 14 15 17 19 22 24 23 21 22 22 22 22 23 24 25 26 27
20 18 17 14 11 11 11 12 17 21 18 14 13 12 12 13 9 9 9 15 14 16 17 16 14 14 16 19 20 22 26 25 25 23 19 20 22 23 24 26 27 29 29
22 21 18 15 12 11 9 15 20 21 17 13 12 12 11 13 13 13 17 15 15 16 18 17 15 17 20 21 23 27 28 27 26 26 26 23 22 25 28 30 31 33 34
25 22 20 16 14 11 14 23 25 18 14 13 12 12 11 10 12 13 15 18 19 19 17 17 19 20 23 24 27 24 23 28 29 29 30 31 30 31 32 33 34 33 31
28 25 21 13 12 15 21 23 18 18 14 15 14 12 11 12 13 12 14 17 20 21 20 20 20 21 24 27 27 30 32 33 35 37 39 39 36 34 34 30 29 29 27
30 27 22 24 21 24 29 20 17 12 15 14 12 13 14 14 13 12 14 16 20 22 24 24 22 23 21 27 33 34 31 30 31 31 32 33 32 28 26 25 26 25 25
31 24 23 19 21 22 21 12 10 13 12 10 9 12 15 14 12 13 14 17 19 24 26 25 21 19 25 31 29 29 30 29 29 28 28 27 26 23 22 23 24 26 24
30 22 20 19 16 13 8 10 10 12 10 9 10 12 10 10 11 14 16 17 20 22 28 27 27 27 28 27 28 28 28 27 27 26 26 26 24 22 22 24 24 25 25
27 26 21 17 10 8 9 5 17 13 10 9 10 11 11 12 14 16 17 20 19 21 26 29 30 28 27 27 27 26 25 26 25 24 24 24 25 26 27 27 25 24 25
28 23 16 12 9 9 5 17 13 11 11 10 11 13 14 14 17 18 19 19 20 21 23 29 30 28 27 26 27 27 25 25 26 25 24 24 24 23 23 25 27 28 29
26 20 15 11 12 7 16 11 11 12 12 14 17 18 17 17 18 18 19 19 20 21 23 26 27 28 29 27 28 27 28 28 25 22 16 13 16 19 21 22 24 27 28
22 16 14 13 11 11 11 13 15 15 16 18 19 21 20 20 20 20 20 20 21 22 23 23 24 27 27 27 27 28 29 29 28 19 13 16 17 18 19 21 22 22 22
22 18 19 17 10 17 13 17 20 23 25 25 23 22 23 22 21 22 21 21 22 23 21 21 23 25 27 27 25 25 28 29 26 17 21 19 18 18 20 20 18 18 19
23 21 18 15 16 20 15 19 23 25 25 28 28 24 23 23 23 22 21 23 24 23 20 20 23 25 25 23 23 24 25 27 23 22 29 23 20 19 19 20 19 18 19
24 21 16 16 21 16 17 23 24 26 26 25 26 27 24 24 24 22 21 24 25 21 20 21 23 23 22 20 21 24 25 27 26 28 26 28 18 21 22 21 17 13 14
29 27 21 21 24 20 23 24 24 25 26 25 26 26 25 24 24 21 21 24 22 20 20 21 23 19 19 19 19 22 25 28 27 24 20 25 18 25 26 21 13 11 9
21 26 25 27 23 20 25 27 27 25 25 24 23 25 25 24 22 20 21 22 21 21 19 21 19 17 17 17 18 21 24 25 29 28 19 15 24 29 27 23 12 11 12
27 30 32 18 21 27 25 24 23 21 22 20 21 24 24 26 21 20 21 21 22 19 19 19 16 15 15 15 17 19 21 22 24 26 14 24 27 25 24 24 24 15 20

GFSMA_850_spd_027.txt.gz
Wind_Speed
11 9 7 6 5 3 3 3 6 8 10 11 11 13 14 14 13 9 9 9 9 7 4 7 6 8 7 5 5 7 6 8 9 10 11 12 17 19 18 21 22 21 23
8 6 6 6 6 4 2 6 7 9 10 11 11 13 13 11 10 11 10 7 6 4 4 7 7 1 4 4 6 5 7 7 8 10 11 14 13 14 16 16 19 23 27
10 7 8 7 5 6 5 5 8 9 10 11 12 11 9 10 10 8 7 7 5 4 6 9 11 12 12 10 10 10 9 10 11 11 13 9 10 12 13 14 17 19 21
9 8 8 8 8 7 6 6 7 8 10 10 9 10 10 9 9 8 9 7 5 8 4 7 9 11 13 15 14 14 10 11 11 13 14 12 15 14 12 15 18 18 17
12 12 11 10 9 10 8 7 6 7 7 8 9 9 10 8 8 9 7 4 7 3 5 11 13 14 15 16 16 15 11 13 14 14 14 15 14 13 15 18 19 18 19
15 14 12 13 13 12 9 6 5 5 6 7 9 10 11 11 11 9 7 7 8 10 13 12 11 14 16 16 16 14 11 12 13 14 15 17 17 18 20 19 19 19 19
16 16 16 16 15 11 8 6 5 5 6 8 9 12 14 13 11 9 9 10 12 14 15 13 16 15 13 15 14 14 11 12 14 17 18 18 19 20 21 21 21 21 21
18 19 19 18 15 11 9 6 4 2 6 9 9 13 5 10 12 10 13 11 13 15 12 15 16 14 14 14 15 14 15 17 19 19 19 21 22 22 22 23 22 23 23
21 22 22 18 15 12 9 5 3 5 9 16 18 14 5 5 9 13 10 13 11 12 14 14 15 15 15 16 19 21 22 23 25 23 19 19 20 21 22 23 24 25 26
24 25 22 19 16 12 7 5 6 12 16 16 19 15 13 13 6 8 7 9 15 13 13 16 16 17 17 19 22 23 26 29 30 28 26 22 22 22 23 25 26 28 29
26 26 25 23 19 16 11 7 11 19 27 30 17 13 12 12 13 10 14 11 11 11 13 15 15 17 21 22 24 25 28 30 32 33 32 29 26 26 27 29 30 31 32
29 29 27 24 22 19 15 18 23 20 25 19 13 11 12 7 7 8 11 12 12 12 13 14 16 19 21 24 26 29 30 32 35 36 35 35 31 30 30 30 31 32 32
28 32 31 27 24 18 17 15 15 21 19 12 13 14 11 11 11 11 11 13 13 14 13 14 15 19 22 25 27 30 34 34 32 31 32 32 32 31 28 28 29 29 29
29 30 30 27 22 16 16 15 15 18 11 16 14 12 12 12 12 12 11 11 14 16 15 15 15 19 21 24 26 33 33 32 31 31 31 31 31 29 26 26 26 27 27
32 32 31 27 18 26 16 12 13 10 14 15 12 11 12 13 14 13 13 13 13 19 19 17 15 16 22 23 29 29 31 32 31 31 31 31 29 29 27 26 26 27 28
33 34 31 23 25 17 12 15 11 9 18 14 13 13 11 10 12 12 13 15 17 17 22 18 17 18 24 28 26 28 30 30 30 30 30 30 29 29 27 26 29 29 28
35 34 30 27 19 15 16 11 9 15 15 14 14 12 9 8 10 12 14 17 18 19 20 21 20 19 28 25 24 27 28 29 28 30 30 29 29 29 29 28 28 28 29
34 33 31 26 23 17 14 11 11 13 14 16 14 14 12 12 13 15 18 20 21 20 21 23 21 20 20 22 26 27 26 27 28 28 27 26 23 19 19 22 24 25 26
31 31 28 24 20 16 12 8 15 14 17 16 16 17 17 18 18 19 21 21 23 23 24 24 24 20 20 19 21 22 24 25 24 26 24 20 17 19 20 22 22 24 25
30 28 24 19 15 13 9 11 21 11 17 18 18 21 21 22 23 22 22 23 24 24 23 23 21 20 18 18 21 19 22 20 22 22 18 16 19 19 18 18 21 22 22
27 25 23 22 21 16 16 23 14 18 22 25 27 29 29 28 25 24 24 24 24 24 21 19 20 18 18 18 18 18 20 21 21 18 17 19 19 17 15 18 20 21 22
25 25 28 27 27 23 18 21 16 23 25 27 29 29 30 30 30 25 25 23 24 24 24 19 17 18 18 18 17 17 19 21 24 18 22 24 18 17 16 17 20 22 21
27 27 25 27 27 26 27 23 22 23 30 28 28 30 30 29 29 27 25 24 24 25 25 21 20 18 19 18 16 17 17 20 23 24 22 23 18 17 16 19 19 20 14
23 26 31 32 31 31 31 28 17 28 31 32 32 31 30 30 29 27 25 25 24 25 25 23 22 21 21 19 18 16 19 21 22 21 18 22 15 18 20 19 14 15 13
26 28 28 30 33 34 29 18 26 30 29 30 28 28 29 28 27 27 27 25 24 24 24 22 22 21 20 19 17 15 17 21 23 22 17 13 15 22 20 16 12 18 16
17 21 25 27 26 20 22 26 26 27 29 29 28 26 26 26 26 27 28 25 25 23 21 21 22 21 20 18 16 16 16 19 20 19 9 15 16 16 16 10 20 17 16

GFSMA_850_spd_030.txt.gz
Wind_Speed
14 13 10 10 10 7 4 2 2 3 3 7 9 10 12 11 8 6 6 5 4 2 2 3 6 7 6 5 5 7 8 8 8 8 10 14 12 14 13 15 18 22 23
14 11 11 11 9 7 5 3 3 2 3 5 8 9 9 8 8 5 3 6 4 2 6 9 5 5 5 7 7 4 6 8 9 10 11 11 11 10 12 13 14 16 17
12 10 11 11 9 9 7 4 3 5 4 5 6 7 8 7 7 5 2 0 5 3 6 9 11 13 15 13 11 12 10 9 10 11 12 13 13 18 16 12 15 16 17
13 11 11 13 13 11 6 5 2 2 1 2 3 3 4 5 7 6 2 0 2 2 6 8 11 13 16 18 19 19 17 13 13 14 14 14 15 15 12 14 17 19 17
13 14 14 15 12 12 10 6 5 3 1 1 2 4 5 3 3 3 3 2 4 2 3 9 13 15 17 18 19 19 15 12 12 13 13 14 15 15 16 17 19 19 19
15 16 16 16 16 13 10 8 7 5 2 2 4 5 4 5 5 5 5 4 5 5 6 6 8 10 14 15 16 15 14 10 11 13 15 17 18 19 20 21 20 20 20
16 18 19 19 17 12 11 10 8 6 4 3 3 7 8 8 7 7 7 7 7 6 7 6 6 8 11 15 13 13 15 13 13 15 17 18 19 21 23 23 24 23 23
21 21 22 20 19 16 14 13 9 6 5 5 4 9 11 12 8 9 9 9 9 8 8 8 9 8 9 10 14 19 17 19 19 19 19 19 20 21 22 23 24 24 24
24 24 24 24 23 20 17 15 12 10 6 7 13 12 9 10 8 10 11 9 10 8 10 11 10 10 10 10 14 13 20 23 24 26 27 23 22 22 23 24 25 26 27
25 26 26 27 25 24 21 18 16 11 10 14 17 11 12 11 9 10 8 9 9 11 11 11 12 13 12 12 15 19 22 25 29 31 31 27 26 26 27 27 28 29 30
27 29 29 29 28 26 22 20 14 12 14 14 10 10 10 9 9 11 15 12 12 12 12 12 13 13 14 15 15 16 25 31 32 33 35 34 29 27 28 28 29 30 31
30 31 31 31 30 26 23 18 15 13 13 15 8 10 11 10 11 12 13 14 14 13 12 13 13 14 15 16 18 24 29 31 35 35 34 32 31 29 27 27 28 28 29
33 34 33 33 31 27 25 20 14 22 17 10 10 10 10 10 11 11 12 14 14 14 14 14 14 15 16 18 18 25 29 33 35 32 31 32 32 31 30 28 27 27 28
35 34 35 25 32 30 22 16 23 20 13 10 12 13 11 10 11 11 12 12 15 16 15 16 16 16 19 19 20 27 24 27 32 33 32 32 32 32 31 29 27 27 27
35 39 36 31 33 26 20 19 23 15 14 10 12 12 11 11 11 12 12 13 14 17 17 15 17 17 19 19 20 24 24 24 32 33 31 31 31 32 32 30 28 28 27
35 37 37 31 31 27 22 25 16 15 11 11 13 13 12 12 12 13 13 15 15 17 21 17 18 19 19 20 21 24 22 29 28 31 32 32 31 32 32 31 29 29 29
34 35 37 36 33 26 26 22 17 13 12 13 14 16 15 13 13 13 14 16 17 18 21 22 20 20 20 22 21 21 23 23 23 26 31 32 31 32 31 28 24 24 25
31 32 34 33 25 26 22 18 14 13 12 19 17 18 17 16 17 16 17 18 19 19 21 25 23 22 22 22 22 22 21 22 23 25 30 31 31 26 24 23 24 25 25
27 31 32 28 29 26 23 19 21 18 22 17 17 19 21 20 21 21 20 21 20 20 21 23 25 22 22 21 21 21 21 21 21 24 27 28 27 27 25 24 23 22 23
22 25 27 27 27 24 22 22 23 25 21 16 20 21 22 24 25 24 23 24 23 22 22 23 23 23 22 20 20 21 22 21 22 22 23 22 26 27 27 23 21 21 23
17 17 20 24 23 24 25 22 21 21 20 18 21 23 26 29 31 31 28 27 24 23 22 22 23 23 22 20 20 21 21 21 21 20 21 19 23 22 20 20 20 19 25
13 14 21 24 27 27 28 29 26 24 21 21 24 23 25 29 33 34 35 35 32 25 23 23 24 23 22 20 20 20 19 20 23 16 20 24 21 22 20 18 20 27 27
13 18 23 25 25 30 34 29 29 29 32 24 23 24 26 26 29 30 31 33 36 32 28 25 25 23 22 20 20 19 18 19 21 21 22 24 21 22 18 19 22 26 19
10 14 20 23 28 33 30 31 33 34 23 23 25 27 28 29 28 29 25 29 31 31 28 28 27 23 21 19 18 18 18 19 20 20 19 24 21 20 20 21 20 20 21
7 13 17 21 23 22 26 30 27 22 25 28 25 25 26 27 27 30 32 28 28 24 23 29 26 26 26 26 25 21 18 17 21 20 17 18 17 21 20 20 11 15 22
5 9 13 16 21 23 18 20 23 26 27 27 28 27 28 31 28 30 32 32 30 26 23 22 26 25 26 27 25 24 18 19 20 22 15 19 22 20 23 14 12 18 21

GFSMA_850_spd_033.txt.gz
Wind_Speed
11 11 12 11 10 11 8 7 3 3 1 2 3 3 4 4 4 3 9 5 2 6 5 4 4 6 6 5 6 7 8 7 6 9 10 11 13 11 13 16 15 17 20
15 13 13 11 10 9 8 6 6 3 3 2 2 2 4 3 3 5 1 9 4 4 8 8 7 6 6 6 6 5 7 7 8 9 9 12 13 15 17 15 13 16 17
15 12 11 11 10 10 10 11 7 5 4 4 3 2 2 3 2 1 2 2 8 4 7 10 11 12 13 13 13 11 9 8 9 11 12 13 13 15 16 14 17 17 18
16 13 11 11 11 10 9 8 6 5 5 5 4 1 1 2 4 2 0 3 4 6 10 6 11 13 15 17 18 19 19 18 15 12 11 11 11 13 13 15 16 18 19
15 14 11 12 13 10 10 9 8 8 6 5 3 2 3 3 5 3 3 2 5 4 5 12 12 12 15 17 19 20 20 18 15 10 11 12 15 16 18 19 20 21 22
16 14 13 14 13 11 10 11 10 7 7 6 5 6 7 6 4 5 5 5 6 5 6 8 9 13 14 18 15 16 16 13 12 11 13 14 15 17 18 20 22 22 23
16 16 13 16 15 13 13 14 10 10 7 7 4 7 11 12 10 6 7 8 9 8 8 9 8 7 15 15 17 13 13 17 14 14 14 16 17 19 20 22 23 23 24
18 18 18 16 17 15 17 16 14 10 8 8 4 8 12 10 10 9 9 10 11 10 10 11 10 10 9 8 15 18 21 17 16 18 20 21 21 21 22 23 24 25 26
22 20 19 18 19 18 18 19 18 14 10 9 8 7 8 10 9 10 12 11 11 12 10 12 12 11 11 10 12 14 18 20 23 22 25 27 24 24 24 25 26 27 28
25 20 20 21 21 19 17 19 17 14 14 8 8 9 12 11 8 9 10 12 13 12 12 11 12 13 12 13 13 18 23 25 28 28 30 30 31 28 25 25 26 27 28
25 23 21 21 22 21 18 21 17 17 15 10 9 14 14 12 12 11 13 12 12 11 10 12 11 13 13 13 14 21 24 25 30 30 32 33 32 29 26 26 26 27 28
26 25 20 24 27 23 18 15 19 16 14 16 24 15 14 14 13 14 16 15 15 16 16 14 14 13 13 14 15 20 28 32 31 34 32 30 30 31 30 28 27 27 28
29 24 23 30 31 29 29 31 29 26 18 22 23 11 14 14 13 13 15 15 16 15 15 15 16 15 14 15 16 22 26 32 34 34 35 31 32 32 30 29 27 26 27
28 28 31 36 38 35 32 30 23 23 22 27 14 12 13 14 12 13 14 14 16 17 16 17 15 16 16 17 19 25 29 23 30 34 33 34 31 29 29 30 30 27 27
26 29 35 36 38 34 33 27 23 22 25 15 13 13 15 14 13 14 14 14 14 18 18 16 17 17 18 17 18 21 23 25 30 34 31 33 32 32 31 32 32 30 28
32 33 34 32 35 37 34 27 26 25 16 19 14 15 16 15 16 16 15 15 15 17 21 18 19 19 19 21 23 28 26 27 28 29 31 33 35 36 35 33 33 29 26
32 31 32 32 35 38 35 28 23 17 21 16 17 16 17 19 17 16 16 15 17 18 22 23 21 21 20 21 23 23 23 25 25 25 28 33 36 37 33 31 29 27 24
24 26 28 32 31 33 26 24 21 21 15 16 17 22 20 17 19 19 18 20 20 20 23 25 25 24 23 23 24 24 25 22 24 24 26 33 33 32 31 28 26 25 23
23 25 27 27 28 26 22 21 16 15 21 16 24 18 18 21 23 23 23 24 23 23 25 26 26 25 24 23 24 24 24 23 23 22 26 27 28 29 30 30 26 24 21
20 23 23 22 20 22 23 17 22 24 19 30 18 18 20 22 25 26 27 28 28 29 30 28 28 27 25 24 22 24 25 22 23 22 24 23 24 24 27 28 27 24 23
11 11 11 12 16 21 18 26 24 18 25 24 18 19 22 25 28 31 31 33 32 33 32 31 29 28 25 25 23 23 24 23 22 21 22 21 21 22 22 23 23 22 19
11 10 8 10 15 22 24 26 25 22 28 25 25 25 25 28 29 27 33 36 38 44 45 35 33 30 29 26 24 24 23 22 24 17 20 24 21 22 22 22 21 22 27
3 5 5 10 15 18 19 24 25 27 32 29 34 34 24 22 25 29 31 34 38 40 41 48 38 34 30 25 24 25 23 23 23 21 21 25 21 23 21 20 22 25 27
3 2 6 11 11 12 17 18 24 27 28 30 23 21 25 28 28 29 33 35 36 37 40 38 47 48 31 25 24 23 22 22 22 20 18 25 22 22 20 22 23 23 25
7 6 5 6 9 13 18 19 21 25 19 21 23 24 25 27 30 32 34 39 39 39 38 39 36 37 36 30 29 22 23 20 24 21 16 20 21 22 23 25 22 22 17
5 2 4 7 10 13 12 14 21 21 23 23 24 25 26 29 32 34 35 38 39 40 36 36 38 38 35 34 33 32 28 25 22 23 16 18 19 19 25 20 13 24 24

GFSMA_850_spd_039.txt.gz
Wind_Speed
15 14 12 10 11 11 9 6 2 5 5 5 8 11 10 8 1 3 4 5 4 4 5 3 3 2 2 0 4 4 5 6 6 8 10 12 11 10 10 11 12 14 15
11 11 11 9 12 9 6 5 6 5 5 3 3 5 7 7 4 6 7 6 3 6 9 7 6 6 7 7 7 8 8 8 10 11 11 11 8 8 9 8 10 10 13
13 12 10 8 9 7 11 9 8 6 6 6 5 5 4 2 1 6 8 6 5 4 7 11 12 13 13 13 13 13 13 14 13 12 12 12 12 12 12 14 14 15 16
15 16 16 17 15 13 14 13 14 11 11 9 8 8 6 5 4 8 8 8 9 8 8 9 10 10 13 14 14 15 16 16 15 14 13 13 13 15 15 15 15 16 15
19 20 17 17 15 16 18 19 17 17 13 11 11 10 10 10 8 9 9 10 11 11 12 13 12 12 12 13 11 12 13 15 14 13 12 14 14 16 16 16 16 15 16
20 23 19 18 19 21 21 21 16 15 15 13 14 13 12 13 12 13 11 12 14 16 16 15 16 15 15 13 12 12 13 12 12 13 16 15 15 15 17 17 17 16 17
22 22 22 22 23 21 21 21 21 21 21 18 15 15 15 16 18 17 16 17 15 15 17 17 16 17 16 15 15 17 15 14 16 15 14 19 18 19 19 17 18 18 19
25 26 24 27 24 24 22 23 24 25 24 22 20 20 15 15 21 21 18 20 18 17 20 19 17 21 19 17 19 16 17 17 17 18 20 23 22 25 22 19 18 19 19
24 29 27 28 26 24 23 26 26 26 23 22 20 17 9 6 7 12 16 21 21 21 23 23 19 20 21 21 20 18 20 19 20 21 23 24 27 27 26 22 20 20 20
28 32 29 29 30 26 22 26 27 27 23 17 19 20 21 14 7 5 7 13 24 24 25 23 23 22 22 24 22 21 21 20 21 23 24 26 28 30 27 23 22 21 21
31 31 27 29 30 29 26 27 25 28 26 23 26 24 22 17 10 14 17 16 19 26 27 26 23 23 25 25 25 23 23 24 24 24 26 28 30 29 29 24 24 23 22
32 32 32 32 28 30 31 29 29 28 31 31 31 31 28 24 19 17 23 24 28 21 20 24 25 26 26 28 26 26 24 25 27 27 27 28 30 32 30 27 25 22 22
29 27 33 31 34 34 34 29 27 28 32 30 31 32 35 34 30 31 26 26 21 23 25 22 20 21 26 24 28 25 25 28 29 27 28 30 33 34 32 29 25 24 24
31 38 34 28 32 36 36 30 27 28 30 30 31 29 33 32 30 19 22 26 27 29 28 28 21 21 21 23 24 25 26 28 28 27 28 31 34 35 35 28 26 26 24
38 39 34 31 29 31 33 33 32 29 29 29 28 26 28 23 18 23 25 24 25 29 31 30 26 25 21 18 21 25 27 27 26 26 30 34 36 36 33 29 27 27 26
31 36 43 35 31 32 35 35 29 28 26 29 28 26 22 23 25 23 22 23 22 28 31 29 28 26 26 28 26 26 28 27 29 32 37 38 37 36 31 25 26 27 26
32 30 33 30 31 32 34 31 26 25 27 29 27 24 23 24 24 20 23 21 24 27 32 35 34 31 28 27 31 31 32 33 35 36 38 37 35 34 27 24 26 28 27
30 24 20 23 25 25 23 23 23 25 27 27 26 25 25 22 22 23 20 23 25 26 32 37 36 33 32 34 36 35 35 38 38 39 39 36 34 34 29 26 28 30 28
21 18 21 20 19 18 20 20 19 21 24 24 24 22 22 17 21 17 19 22 25 27 28 33 38 38 39 37 38 38 37 40 43 40 37 35 33 33 29 29 30 28 29
20 19 17 16 16 16 18 18 17 18 20 21 20 18 18 19 15 17 20 23 25 28 31 34 39 44 44 40 37 41 43 41 45 42 40 34 33 30 30 33 29 29 28
15 15 16 17 19 19 18 18 16 17 15 15 15 16 21 16 18 22 25 29 30 32 35 39 44 41 43 43 44 45 45 44 42 38 43 35 33 31 34 33 29 31 22
13 15 16 17 18 19 17 14 10 9 11 12 17 19 18 21 25 22 17 16 18 24 30 34 38 38 42 41 42 43 44 44 43 41 35 34 33 32 37 29 29 20 23
12 12 13 13 13 12 10 10 9 10 12 15 18 19 19 21 16 21 24 26 28 30 32 35 38 41 41 42 40 40 43 44 43 42 36 36 31 33 32 28 21 20 26
10 10 10 10 10 10 8 8 10 13 15 14 16 17 18 20 22 25 30 34 36 37 39 41 42 44 43 41 38 40 43 44 44 39 34 34 33 32 30 24 17 21 27
12 11 9 10 11 10 8 10 10 11 14 15 15 19 20 23 26 30 34 37 39 40 38 39 39 41 44 47 49 44 40 37 40 36 36 36 32 32 27 22 22 25 27
12 11 12 11 12 11 11 12 14 15 16 17 19 20 21 22 25 26 29 31 35 36 37 39 39 36 33 33 35 36 41 38 41 36 36 36 30 29 24 25 25 22 18

GFSMA_850_spd_042.txt.gz
Wind_Speed
23 20 16 15 15 12 10 9 7 3 3 6 8 7 4 3 1 3 6 5 5 2 2 4 3 5 2 2 5 5 7 6 8 9 10 9 7 7 8 8 9 8 11
21 17 15 13 13 13 10 7 4 5 8 8 8 7 5 4 3 4 5 4 5 5 6 7 7 6 4 11 12 11 10 11 11 12 11 10 10 10 10 9 8 10 12
18 15 12 12 14 12 9 7 8 9 9 6 6 8 9 5 2 5 6 7 7 5 8 11 13 13 14 16 16 15 15 14 14 12 12 11 11 12 12 12 13 14 14
15 14 14 16 12 12 9 11 11 11 8 7 9 9 9 7 5 7 7 7 7 7 8 10 12 14 14 16 16 16 16 14 13 13 13 13 14 15 15 16 15 15 16
17 15 14 13 14 15 14 16 15 13 13 12 13 12 12 10 8 10 9 7 9 9 12 12 13 14 15 15 15 13 13 13 14 12 12 14 16 16 16 16 17 17 15
17 17 17 17 20 20 19 19 19 17 19 17 15 15 13 12 13 14 14 12 11 13 14 14 16 16 16 16 18 16 14 15 14 13 15 15 15 17 17 17 17 17 16
20 22 20 20 24 23 21 21 23 24 24 21 19 18 18 18 18 17 18 17 17 17 18 17 17 18 17 17 17 15 15 15 15 17 17 16 20 20 22 21 20 18 16
25 24 22 23 28 26 27 24 25 26 24 23 24 21 19 21 22 22 22 21 20 21 23 21 21 22 21 19 17 17 16 15 16 19 19 20 21 22 24 26 23 21 19
27 26 27 28 30 30 30 29 28 27 26 27 26 23 10 14 13 18 24 23 24 23 25 25 25 25 24 23 20 21 20 18 18 20 21 20 22 24 27 28 27 24 21
31 32 32 30 32 33 31 30 28 28 27 29 29 27 27 23 16 15 20 18 21 25 25 28 29 29 28 26 25 25 25 22 20 22 21 21 23 25 28 31 28 26 24
38 32 31 29 33 35 35 33 31 32 32 34 29 34 30 29 28 26 21 24 17 19 25 29 31 31 32 30 30 29 29 26 24 23 23 23 25 26 28 30 29 27 25
37 33 30 32 32 37 35 35 34 33 33 32 32 31 33 32 31 30 28 29 29 32 29 27 28 32 33 32 32 32 31 31 29 27 26 26 27 26 29 30 30 29 24
36 36 36 30 33 36 35 37 37 34 31 33 28 32 31 34 34 32 31 33 33 33 24 24 23 23 24 30 33 32 34 35 33 30 29 29 29 28 29 30 30 28 25
37 33 36 33 29 28 33 38 36 34 29 32 28 32 30 31 32 34 35 33 29 26 29 31 31 30 28 27 30 32 34 33 33 31 32 31 30 29 30 30 30 29 26
34 39 30 31 27 30 31 37 38 34 33 33 29 30 28 27 29 32 30 24 20 25 30 32 30 27 28 26 27 29 31 31 33 34 34 32 32 31 30 30 30 29 26
40 32 30 34 36 35 34 39 38 35 35 34 30 29 27 29 29 32 28 23 21 26 31 30 29 29 29 29 30 32 34 30 32 33 35 35 34 34 33 33 33 29 26
39 28 34 34 38 38 38 38 35 34 34 31 29 28 28 30 29 29 26 27 30 27 31 33 32 30 30 31 30 34 35 37 37 38 38 38 40 38 35 35 35 31 29
26 34 41 33 33 36 34 32 32 33 32 26 25 27 28 29 26 23 23 26 25 24 29 31 32 32 33 30 32 32 35 40 43 43 41 45 43 38 37 38 38 33 30
38 39 34 30 25 27 28 27 27 25 21 21 23 26 27 24 22 24 21 22 21 23 25 31 35 35 35 36 39 39 42 43 46 47 45 45 44 43 44 40 40 35 31
38 41 31 25 23 23 22 22 21 19 20 22 23 22 21 21 23 21 17 18 22 26 28 32 36 38 39 40 37 36 39 39 40 39 44 43 43 48 48 43 41 34 32
33 29 27 25 21 20 20 20 20 18 19 18 19 18 18 18 18 22 19 23 26 29 30 29 32 34 36 35 38 41 39 41 43 42 42 43 42 44 42 44 40 34 32
26 24 22 21 21 22 20 19 18 16 16 16 16 16 16 16 23 21 23 23 20 23 26 28 31 34 39 37 36 36 38 37 40 46 34 40 39 43 43 44 38 30 30
22 20 20 21 21 20 20 19 17 17 15 15 15 17 20 23 21 24 24 23 24 24 28 32 38 39 43 43 42 46 45 43 43 44 41 41 41 41 41 41 37 24 31
19 17 18 19 20 19 17 18 18 16 15 17 19 19 19 20 22 24 25 28 30 31 32 33 35 39 39 39 35 36 35 39 47 55 48 43 45 46 45 44 33 27 28
17 17 16 16 16 18 17 17 16 16 17 18 17 17 18 21 23 26 28 29 30 30 30 31 31 32 32 30 26 28 32 32 36 39 35 37 36 37 48 39 28 28 26
16 15 16 15 16 17 17 15 15 15 15 15 17 19 21 23 23 23 26 28 30 31 32 33 33 32 32 30 27 24 26 28 34 36 32 32 39 38 28 34 26 28 23

GFSMA_850_spd_045.txt.gz
Wind_Speed
26 24 21 19 17 16 13 13 11 8 7 8 9 8 8 6 6 6 5 5 3 3 3 2 2 5 8 8 9 10 10 9 10 11 11 12 11 12 12 11 12 12 13
24 22 20 19 17 13 11 9 7 6 7 8 9 9 7 5 2 4 4 3 2 1 4 5 5 7 8 12 13 13 13 13 13 12 11 12 13 13 13 15 16 17 16
23 22 18 17 14 11 10 9 8 8 10 9 8 8 6 4 2 1 3 1 1 1 4 7 9 10 11 13 14 15 16 15 14 13 13 13 14 15 14 14 16 17 18
23 19 17 15 12 12 11 9 9 10 11 9 8 9 9 8 7 4 3 3 3 3 3 6 9 11 12 13 15 16 17 15 15 15 14 13 14 16 16 17 17 17 17
24 18 16 13 12 13 13 13 12 12 13 12 10 11 10 10 10 9 6 5 6 7 7 7 9 10 11 12 14 15 16 15 15 15 14 14 16 15 18 17 18 18 17
22 16 15 13 14 16 16 17 15 16 16 13 12 13 13 12 13 12 10 11 11 11 11 12 12 13 12 13 13 15 15 15 15 13 14 16 16 17 17 17 18 18 18
18 17 15 15 16 19 19 19 18 21 20 18 16 16 17 18 18 18 17 16 17 16 16 15 14 16 15 16 16 15 14 13 14 13 15 16 16 16 17 19 22 22 21
26 20 18 19 20 20 23 23 21 22 24 21 22 21 19 22 24 23 23 22 23 20 20 19 18 18 19 20 19 17 15 16 15 16 17 19 18 18 18 21 23 25 23
24 22 22 24 21 23 27 27 26 26 27 25 27 24 11 15 16 21 26 26 27 24 22 22 23 24 23 22 22 22 20 19 18 18 20 21 20 20 19 22 24 26 26
31 26 23 27 24 27 28 31 30 32 30 30 28 31 32 26 18 14 23 27 24 25 24 24 26 28 27 26 26 27 25 23 22 22 23 23 21 21 21 23 24 27 29
43 33 30 28 29 31 32 33 34 37 37 33 32 33 34 34 32 32 25 25 24 25 22 21 23 27 30 30 30 30 29 28 28 26 27 26 24 24 24 26 26 28 29
48 40 33 33 35 33 32 34 37 38 38 36 33 35 35 36 34 35 33 35 32 31 29 27 29 29 28 30 32 32 32 32 33 31 31 31 29 29 28 28 28 28 27
46 38 37 41 38 34 34 35 36 40 40 40 36 34 34 34 36 33 32 31 29 28 31 33 33 23 21 24 28 31 31 35 35 34 34 35 34 33 32 32 31 29 27
40 38 38 38 39 37 32 33 35 36 37 41 34 32 35 32 34 35 35 30 30 33 36 38 30 25 24 26 27 29 29 30 32 36 37 37 37 37 36 34 33 31 29
43 41 39 39 40 37 30 39 28 33 38 37 33 38 36 32 34 35 31 30 34 30 27 30 28 28 28 23 24 25 26 27 29 31 35 39 40 39 39 38 37 34 32
46 42 42 42 38 39 31 36 35 38 34 37 37 41 38 33 32 30 26 30 32 32 29 24 28 30 31 28 26 26 27 29 30 31 32 34 38 41 42 42 41 39 35
46 41 43 38 30 36 35 37 39 39 33 33 40 39 37 35 27 27 27 30 31 26 27 33 30 29 28 29 30 30 32 33 33 33 35 37 39 42 44 46 44 44 37
39 46 39 31 33 42 40 37 37 34 33 36 39 35 35 29 25 27 28 29 26 26 28 28 29 30 29 30 32 34 35 35 37 38 40 41 42 44 49 50 48 48 42
49 44 28 36 42 34 31 35 35 33 34 33 34 28 24 22 24 25 25 24 25 26 25 27 29 29 29 30 34 37 39 41 39 37 36 38 38 38 40 43 47 51 46
41 34 38 35 41 36 33 29 27 28 30 28 23 20 21 22 23 22 24 25 26 25 24 27 30 33 34 33 34 36 40 41 44 42 41 44 44 46 44 43 43 44 48
40 37 40 40 46 39 35 29 27 25 23 21 20 20 21 21 22 23 24 25 25 25 28 28 30 29 30 32 34 37 41 45 50 48 47 49 42 40 41 42 43 42 44
37 41 35 42 34 30 25 23 21 23 24 22 20 21 20 22 22 21 23 23 24 27 24 25 28 31 34 37 39 40 41 43 49 43 31 46 43 50 49 43 41 41 44
29 29 31 27 24 24 23 24 26 25 23 23 22 22 25 24 22 21 21 24 27 24 24 29 32 33 36 34 36 37 35 36 43 45 38 46 45 46 46 45 48 43 39
24 26 25 26 25 25 26 27 26 25 23 22 23 24 22 21 22 24 25 25 23 25 27 29 29 30 31 32 31 32 34 39 44 46 36 39 43 43 39 40 35 36 36
26 26 26 26 26 26 26 26 24 23 23 24 23 21 21 21 21 25 22 24 25 25 27 28 29 29 29 29 27 28 29 28 35 45 38 33 39 36 36 37 33 34 36
23 22 22 21 22 22 21 21 20 20 20 20 19 20 21 20 21 23 24 24 25 26 27 27 26 26 26 26 25 22 23 28 33 41 39 34 39 32 34 33 29 29 39

GFSMA_850_spd_048.txt.gz
Wind_Speed
33 29 26 25 24 21 17 16 13 11 11 12 11 10 11 10 9 9 7 6 5 4 3 2 4 3 7 7 7 9 9 10 10 11 11 11 11 11 12 13 14 15 15
29 26 24 22 20 17 15 12 10 9 9 10 11 10 8 7 5 6 6 4 4 6 4 4 6 6 4 8 8 10 11 11 12 11 10 10 10 11 11 12 14 16 16
26 24 22 21 20 17 14 11 10 9 10 10 9 8 7 6 4 3 4 3 1 4 6 7 7 7 6 8 9 10 12 12 12 10 11 11 11 11 12 12 13 13 14
25 23 21 20 17 14 11 9 9 11 11 10 8 8 7 5 4 2 2 3 2 2 3 7 8 9 8 10 10 11 13 14 11 10 12 10 11 13 13 15 12 13 14
25 22 20 18 15 15 12 10 10 10 11 10 7 7 8 9 8 8 7 5 5 6 7 7 8 9 9 10 10 11 14 14 12 11 11 10 12 12 14 14 13 14 14
24 22 19 16 16 14 12 12 11 11 10 9 10 10 11 12 12 12 12 11 10 10 10 10 10 11 11 11 12 12 13 13 12 13 11 11 12 13 14 14 14 16 18
26 24 19 17 16 14 12 13 14 15 13 14 14 16 15 17 18 18 17 18 18 15 15 15 14 13 13 14 14 14 13 14 14 14 13 13 14 14 14 15 16 18 20
26 22 20 20 16 14 15 16 17 19 18 19 20 19 18 22 24 22 21 23 21 20 21 19 18 17 16 17 18 17 16 16 15 16 17 17 17 16 16 16 17 18 20
31 23 25 19 18 17 18 17 20 23 21 21 24 23 10 14 13 16 19 21 21 22 24 23 24 21 21 21 21 22 21 20 19 18 19 20 21 20 20 19 19 19 21
36 28 24 22 22 21 21 20 21 25 26 27 29 31 30 30 18 11 18 16 19 20 24 24 24 25 24 25 26 26 26 24 23 23 22 22 23 24 23 23 22 21 21
38 38 28 24 25 24 24 24 24 26 31 34 37 36 33 33 33 33 28 26 25 25 22 23 25 25 24 24 30 30 28 28 27 26 26 26 26 26 27 28 26 26 25
46 45 39 35 31 29 27 28 28 31 34 37 39 40 39 36 34 33 35 35 32 28 27 21 27 27 25 28 24 26 28 30 31 31 29 30 31 30 31 29 28 29 27
51 48 47 44 41 35 32 32 35 35 35 36 37 41 42 39 38 39 35 33 31 26 27 26 26 28 29 25 20 20 21 24 27 30 33 35 35 36 36 35 34 34 32
51 51 49 46 42 39 36 38 41 39 36 32 36 38 37 40 39 40 39 31 31 31 31 29 29 28 24 20 20 22 22 24 25 26 28 30 34 37 40 40 39 38 39
43 43 40 41 41 43 41 38 38 41 38 31 30 35 34 35 36 37 37 34 32 25 22 24 23 24 27 24 23 24 26 24 23 23 24 26 28 30 34 38 42 43 43
40 39 40 42 43 44 45 44 36 38 39 33 40 37 36 33 35 39 37 35 32 27 26 21 22 25 26 28 32 31 27 27 27 28 28 28 29 31 34 38 41 44 46
43 44 45 44 45 44 48 47 31 34 35 38 34 36 34 33 38 38 36 31 29 27 25 26 25 25 28 28 28 29 27 26 27 28 29 31 33 35 36 38 41 44 47
45 44 48 48 41 45 40 36 36 35 35 31 33 31 32 35 35 32 32 27 24 25 24 25 26 26 29 26 27 25 26 28 31 33 33 35 35 35 37 38 39 41 41
39 34 43 43 46 48 43 34 30 35 34 32 32 32 31 30 30 28 24 23 24 25 25 25 26 27 27 24 28 30 29 29 31 34 36 39 39 41 42 43 43 43 43
49 47 43 44 44 41 41 38 39 31 30 29 27 26 26 26 22 22 22 22 24 24 24 23 26 26 27 26 29 29 32 32 36 37 40 42 43 44 42 42 42 42 41
51 49 49 42 40 38 38 36 36 35 30 25 24 24 22 20 20 21 22 23 23 20 22 23 26 26 24 26 29 31 36 39 40 40 39 42 43 44 43 42 41 40 41
50 47 43 38 41 39 43 37 38 35 27 23 21 21 22 22 21 23 22 19 18 20 21 25 23 24 25 28 30 32 35 39 42 41 40 45 42 45 43 41 40 39 37
42 40 36 34 37 35 36 34 28 23 21 20 21 22 23 23 22 21 20 18 19 20 24 25 23 25 27 27 31 33 33 35 38 39 39 48 43 47 46 43 38 36 32
35 32 32 36 32 27 26 23 22 20 19 20 20 21 21 22 21 19 17 18 20 25 22 23 24 24 26 27 28 29 31 35 38 34 31 43 44 46 45 46 40 36 30
34 32 26 26 23 22 22 21 20 22 21 21 21 21 21 22 21 18 17 22 24 22 22 23 24 25 26 26 25 27 27 29 37 37 35 31 38 41 47 47 37 27 25
25 24 23 20 18 18 19 20 22 21 20 21 22 22 21 18 17 18 24 23 22 22 22 23 22 22 23 23 22 23 24 27 29 38 23 35 41 33 30 39 23 29 31

GFSMA_850_spd_051.txt.gz
Wind_Speed
34 31 29 26 24 22 22 21 18 16 17 15 15 14 14 13 12 11 10 8 6 6 5 7 8 5 9 8 8 9 8 9 9 10 10 10 9 10 10 11 12 13 13
33 31 29 26 23 21 21 19 15 14 15 16 15 14 12 10 9 8 8 7 5 7 2 1 1 4 2 6 6 7 8 9 10 9 9 10 9 9 11 12 13 13 13
32 29 28 25 23 20 20 18 16 15 15 16 15 13 11 9 7 6 4 4 5 6 6 4 6 4 5 5 5 7 9 10 10 8 9 9 8 9 10 12 11 11 11
32 29 27 26 22 21 19 16 15 15 16 14 14 11 10 9 6 5 4 4 4 4 5 7 8 8 7 8 7 7 9 10 10 9 9 7 9 10 11 11 10 10 11
31 28 26 25 22 21 18 14 13 11 14 14 13 11 11 9 10 10 7 6 6 6 6 7 8 9 9 10 9 8 10 11 11 10 9 7 8 10 10 10 10 11 12
30 28 24 22 22 21 18 15 11 11 11 11 11 10 10 12 13 13 12 12 11 9 8 10 11 11 11 11 11 11 11 14 13 13 11 9 10 10 11 11 11 12 12
31 28 25 23 23 21 17 14 12 12 13 14 13 13 15 15 17 18 17 16 16 14 13 14 14 13 13 12 12 13 13 14 16 15 15 14 14 13 14 13 13 14 13
32 28 27 25 25 21 21 16 14 15 17 16 16 16 15 18 23 22 22 21 19 18 18 20 17 17 16 16 15 15 15 16 17 17 18 19 18 18 17 17 17 17 16
32 31 28 26 22 22 21 18 15 16 19 19 19 18 8 11 11 13 14 15 18 20 21 21 19 21 20 20 19 19 19 19 20 18 19 21 22 23 22 21 21 20 21
31 33 28 27 25 24 23 21 18 18 20 23 25 28 27 26 17 12 16 16 15 16 16 18 19 23 24 24 22 22 21 24 23 23 23 22 25 25 26 24 22 22 22
39 37 35 28 30 30 25 24 23 23 22 24 26 30 32 33 34 33 26 22 25 22 19 20 18 22 25 25 25 22 23 25 28 27 27 27 26 27 28 29 27 26 25
46 44 41 39 32 30 26 23 24 25 25 25 28 32 36 34 33 36 37 35 32 29 25 24 24 22 21 25 25 25 26 24 27 29 31 31 31 32 30 31 32 31 31
43 42 39 40 39 36 33 30 28 27 29 31 33 33 34 36 38 41 39 35 32 30 29 27 25 22 23 23 26 28 25 23 23 25 27 27 32 33 36 36 35 36 37
48 44 42 44 44 43 43 40 39 36 33 35 37 36 32 32 37 31 37 36 31 32 31 29 27 24 23 26 24 23 24 25 25 28 30 30 29 30 32 34 36 38 39
54 51 50 49 48 48 48 47 47 45 40 38 37 38 37 27 28 31 36 40 38 26 30 32 26 25 24 23 23 23 23 24 27 27 26 27 28 30 31 33 35 36 37
51 52 50 51 50 51 51 46 44 42 41 41 40 41 40 48 40 38 40 37 34 36 30 27 22 22 20 21 23 23 25 26 26 26 27 29 30 31 33 35 37 39 41
40 39 37 40 41 43 43 42 43 44 40 39 49 48 39 34 36 37 35 36 37 33 34 29 24 21 21 23 23 25 27 27 28 24 25 27 29 31 33 35 37 39 41
39 33 41 40 40 42 41 43 46 45 39 39 36 29 32 32 32 34 32 34 34 33 30 25 21 21 23 22 23 23 24 25 28 28 27 27 27 29 32 34 36 38 41
36 42 34 39 36 40 46 46 42 43 37 31 36 31 34 33 33 31 32 30 29 27 23 22 21 22 20 21 22 25 25 25 24 25 26 28 30 32 32 33 34 36 39
40 40 41 38 36 30 34 37 40 39 36 32 33 31 30 29 28 26 25 26 24 22 20 20 20 19 20 22 25 25 23 25 26 25 27 29 28 30 33 36 38 37 38
44 45 44 45 44 43 46 47 42 33 37 35 36 34 30 24 22 21 21 21 21 21 21 20 19 19 21 23 22 22 25 25 27 26 26 29 33 34 35 36 36 38 39
46 48 49 47 49 50 46 41 33 31 32 34 33 32 28 24 22 21 22 22 22 22 21 19 19 20 22 21 23 24 25 24 19 24 29 34 33 35 36 36 39 42 43
35 39 43 43 41 36 35 29 33 36 35 34 33 28 25 21 21 22 22 22 21 20 19 17 19 21 20 22 23 24 24 24 23 26 30 30 30 34 34 34 41 44 42
31 31 29 29 29 28 24 28 29 30 27 24 24 23 21 21 21 21 22 22 20 18 17 18 18 20 20 21 23 24 25 26 26 24 27 30 27 35 37 40 44 37 28
23 28 29 31 30 27 29 29 26 25 24 23 21 20 20 21 22 24 21 18 15 16 17 17 19 20 21 22 22 24 22 22 24 23 27 26 25 35 43 42 24 26 28
25 26 26 28 28 24 22 20 20 21 21 20 20 21 23 22 21 19 15 13 14 16 16 17 17 18 19 19 21 21 23 24 22 20 15 25 28 22 23 37 28 34 29

GFSMA_850_spd_054.txt.gz
Wind_Speed
34 28 26 25 24 22 21 20 17 17 16 17 15 15 13 13 13 11 12 12 9 11 11 9 7 8 9 8 9 10 8 8 9 7 7 6 6 6 7 8 7 7 8
35 30 27 23 22 21 20 18 17 16 15 15 15 13 12 12 11 11 9 11 8 7 4 2 2 3 5 4 5 6 6 7 7 6 6 6 6 7 8 9 9 9 9
34 30 25 21 20 19 20 18 17 16 15 15 14 13 11 11 10 10 10 8 9 11 8 6 4 2 3 3 3 3 4 5 6 6 6 5 5 7 8 9 9 9 9
28 25 23 20 20 20 19 17 16 15 15 15 14 12 11 9 9 8 9 10 10 8 11 11 10 7 6 5 4 4 3 4 6 6 6 5 5 7 8 9 9 9 9
29 28 24 22 24 19 18 16 15 14 15 15 13 12 11 10 10 10 10 9 10 12 10 13 12 11 11 10 8 7 7 6 5 7 7 7 6 7 8 9 9 9 10
37 30 24 25 23 19 20 18 16 16 14 14 13 12 12 12 12 12 12 11 12 13 13 13 13 15 14 13 13 12 11 10 9 8 10 10 9 9 10 11 12 12 12
34 32 24 28 24 19 19 21 16 16 15 16 13 11 12 15 16 14 15 16 16 15 15 15 14 13 17 16 16 16 14 13 13 13 14 14 13 13 13 13 14 14 14
33 33 26 28 28 20 22 23 19 17 14 18 13 11 11 13 18 21 21 21 21 20 19 19 17 18 16 16 19 18 17 15 16 18 19 19 18 17 17 17 16 16 17
32 30 34 27 28 26 25 24 20 17 15 16 18 11 9 12 11 13 17 20 21 22 23 20 20 19 20 19 19 22 21 20 19 19 22 23 23 22 22 23 23 22 22
34 31 33 31 30 28 27 21 21 20 19 18 18 23 21 14 12 12 10 15 19 18 24 21 20 21 21 21 23 23 24 22 21 23 24 24 25 26 27 27 27 27 27
36 38 35 34 31 28 26 24 25 25 22 23 19 16 19 21 21 23 24 19 23 27 26 27 25 20 22 22 22 25 25 25 24 25 27 29 28 27 27 29 30 31 31
39 42 38 35 32 30 30 30 28 27 27 26 25 21 20 18 19 22 24 28 26 32 32 28 28 25 24 26 26 26 27 27 26 28 30 32 34 34 33 31 30 32 34
43 42 39 37 36 32 31 31 30 27 26 26 26 26 22 23 25 25 24 33 29 36 33 30 35 29 27 27 30 27 28 28 30 29 31 32 33 36 36 37 36 35 35
52 49 45 45 44 41 39 37 35 33 31 33 32 31 25 24 29 34 32 31 31 32 32 34 36 34 32 28 30 29 30 29 27 27 30 32 34 35 36 39 38 38 40
50 53 54 56 55 52 46 44 42 40 33 32 38 40 34 35 34 33 30 30 27 27 28 37 41 35 31 29 29 32 29 26 27 27 28 30 33 36 35 34 34 36 38
57 54 55 57 53 52 51 48 49 46 37 36 35 34 39 38 39 37 36 40 50 54 35 34 30 31 29 28 28 28 25 27 28 28 29 28 29 30 34 35 35 36 38
59 60 61 58 60 58 55 49 45 46 45 43 40 45 41 37 42 43 47 40 36 41 40 34 33 27 27 25 26 23 26 27 27 26 26 25 27 28 30 32 34 35 36
50 55 54 58 60 53 48 46 43 45 38 36 42 42 38 37 40 27 30 30 36 37 36 34 32 28 26 26 25 27 26 24 19 21 29 26 25 27 29 30 32 34 35
43 43 44 46 46 47 41 47 46 40 38 38 38 39 41 37 33 32 36 34 35 32 29 31 30 27 25 27 24 25 25 18 19 25 28 25 27 28 28 29 29 30 32
42 42 44 44 45 43 42 40 38 40 35 40 38 41 37 38 37 33 31 33 32 30 28 29 27 25 23 25 24 22 19 17 18 19 23 25 27 27 27 29 29 30 31
44 42 40 40 39 36 39 34 32 32 33 36 38 33 34 33 36 35 33 32 29 28 27 26 24 25 24 24 22 16 17 17 18 20 21 18 20 22 26 27 28 29 31
41 39 39 38 37 38 43 43 41 39 38 37 36 33 33 37 37 34 34 29 24 25 26 27 27 25 21 20 17 15 14 15 16 13 17 17 21 22 21 19 24 32 33
32 33 33 33 34 34 37 43 42 40 40 35 33 32 35 36 35 33 28 25 25 26 26 25 24 21 18 15 15 14 14 14 17 17 19 21 18 21 19 21 27 33 35
28 29 31 32 34 35 34 30 25 28 29 31 31 29 32 34 32 28 27 25 25 25 25 23 20 19 16 18 17 16 18 19 19 17 16 22 16 21 22 23 30 32 34
28 29 27 26 26 26 26 27 29 28 30 30 30 29 28 26 26 22 25 25 25 24 21 18 17 14 17 19 18 18 16 13 17 16 16 20 17 22 26 27 17 20 30
22 22 24 24 26 28 29 30 28 27 29 29 27 25 23 23 25 25 24 21 19 17 15 14 13 15 16 18 17 17 15 15 14 14 8 16 18 20 22 19 18 24 24

GFSMA_850_spd_057.txt.gz
Wind_Speed
31 28 28 27 25 20 20 19 14 15 15 14 13 14 13 13 12 12 12 16 14 12 12 11 10 10 10 9 9 9 9 9 8 6 5 4 4 4 5 5 5 5 6
28 26 27 25 23 21 19 17 15 15 15 14 14 14 13 13 12 11 11 13 11 11 10 9 7 7 7 6 6 6 5 6 6 5 4 4 3 3 4 6 5 5 5
30 26 27 26 23 21 19 17 16 15 15 15 14 14 12 13 12 12 10 11 12 12 8 6 3 2 2 2 2 2 2 3 4 3 3 3 3 4 5 5 6 6 6
31 28 24 24 22 20 20 18 17 16 16 16 15 13 12 11 12 13 11 10 10 11 11 11 10 7 4 3 3 3 2 1 2 3 3 5 5 4 5 5 6 6 7
33 28 26 22 23 21 20 18 17 17 17 16 15 13 13 12 12 11 12 13 13 13 13 8 11 13 11 9 7 8 7 6 5 4 5 5 6 7 6 6 6 7 8
33 28 24 21 22 19 18 17 17 17 16 16 15 14 13 13 12 13 13 13 14 15 14 16 16 18 18 15 14 14 13 11 10 9 8 8 8 8 9 9 8 8 9
30 25 24 22 21 20 18 19 18 17 16 16 15 13 13 14 15 14 14 14 15 15 15 16 18 15 15 13 17 19 18 17 16 14 12 11 12 12 13 13 13 13 13
34 33 27 23 25 19 19 20 19 17 16 17 17 14 13 14 17 20 18 18 18 18 17 18 20 21 21 20 21 22 22 21 21 21 19 16 15 16 16 18 18 18 18
28 33 26 27 29 23 23 24 21 19 17 17 19 14 13 16 16 18 18 21 21 21 19 19 21 20 19 20 21 24 25 24 23 22 24 23 23 23 22 22 22 23 23
33 37 31 26 24 28 24 24 22 21 18 18 15 25 22 14 7 8 12 14 20 21 20 22 21 19 20 22 25 25 28 25 24 24 24 24 26 26 26 27 27 27 29
39 34 31 29 27 27 27 25 25 25 24 22 19 16 19 20 19 16 16 14 16 19 24 24 22 22 19 23 26 27 28 34 32 27 26 28 28 29 30 30 29 30 31
40 40 34 33 34 33 30 31 29 28 27 24 24 23 21 17 17 20 20 20 21 21 23 23 24 28 28 31 34 31 30 33 30 30 30 31 31 33 35 35 33 32 32
41 39 38 35 36 37 37 32 30 32 29 27 26 26 26 25 20 23 20 21 24 24 30 35 33 33 30 31 34 34 36 38 34 32 32 32 34 33 35 38 38 40 39
54 45 40 41 43 41 40 37 36 33 35 31 31 30 26 26 24 24 24 23 22 24 33 34 29 32 37 32 38 43 40 36 35 35 32 32 33 31 31 33 36 38 38
59 54 49 46 45 46 45 42 40 38 33 32 36 35 35 32 30 30 30 28 30 25 29 33 35 35 32 32 33 38 39 36 36 36 33 31 32 32 33 35 37 39 41
53 48 54 51 49 48 48 45 45 44 41 39 38 38 38 37 34 34 35 34 34 37 41 33 35 42 45 39 40 38 39 38 35 34 30 30 33 34 34 33 34 35 37
47 47 45 48 49 49 47 43 46 47 44 44 44 40 39 38 39 40 40 35 34 37 41 39 36 34 37 38 37 34 36 35 31 29 30 31 32 33 31 32 31 32 34
44 43 47 44 45 47 46 46 45 45 45 45 44 43 45 46 43 44 39 35 28 33 30 37 38 39 41 34 33 32 33 31 30 28 27 28 32 30 31 30 30 31 32
47 46 44 44 48 46 44 46 46 46 45 45 45 45 44 46 44 44 42 42 37 36 37 40 42 40 35 33 33 32 31 30 28 25 26 30 34 32 30 30 30 31 32
48 49 48 48 49 48 47 48 46 46 46 46 48 48 46 43 43 43 44 44 40 36 37 40 39 35 32 31 31 32 30 29 27 19 20 24 28 30 29 30 31 30 32
48 46 46 48 48 47 49 47 45 46 47 51 47 44 46 42 42 39 44 40 37 37 37 38 36 36 31 32 29 28 28 25 23 22 26 25 21 20 23 25 30 30 31
44 44 44 44 45 46 47 46 45 42 45 42 40 40 41 38 40 44 44 37 37 39 37 37 36 36 29 28 27 24 23 21 18 18 18 19 19 22 27 27 23 26 32
41 43 44 44 44 42 42 43 43 43 40 40 43 44 44 43 42 39 41 41 38 35 30 30 31 30 27 23 23 21 20 19 19 17 19 22 21 27 26 23 23 30 36
42 41 40 39 38 38 39 39 38 38 38 41 47 47 44 39 37 37 37 35 31 29 28 24 24 26 22 21 19 17 15 18 21 23 22 24 19 25 26 26 30 32 36
37 36 33 33 35 36 38 38 37 39 40 41 43 43 38 34 32 31 32 29 27 24 24 22 22 18 15 14 11 12 16 15 18 15 16 21 21 26 22 26 31 22 24
34 38 35 36 35 34 35 34 34 36 39 39 38 35 32 29 30 28 26 27 25 22 18 17 14 12 11 9 10 15 16 18 16 14 15 17 15 17 26 21 19 20 27

GFSMA_850_spd_060.txt.gz
Wind_Speed
30 25 28 30 28 25 23 24 22 18 16 15 14 19 12 15 9 6 15 14 15 14 14 14 12 12 11 11 10 9 9 8 7 6 5 3 3 3 4 3 3 3 2
29 27 29 32 28 23 24 21 18 18 17 15 16 17 13 10 6 4 15 16 13 14 13 13 11 10 9 8 8 7 7 6 5 4 4 3 2 2 2 2 2 2 2
30 29 30 31 25 19 17 19 19 18 18 17 18 18 16 16 9 7 5 11 14 12 9 8 6 6 5 4 4 3 3 3 3 3 2 2 1 1 1 0 1 2 1
31 30 31 28 25 26 20 20 20 19 19 17 18 19 17 19 14 9 8 6 5 9 13 10 8 5 3 4 2 4 3 3 1 1 1 2 2 2 2 2 2 2 2
31 30 30 27 26 31 28 22 20 20 21 20 18 17 16 16 18 19 13 11 10 9 9 6 7 8 9 7 9 8 7 7 6 5 5 5 5 5 5 5 5 5 5
34 31 26 25 29 25 24 21 23 21 21 21 17 17 17 15 16 16 19 19 13 13 14 12 12 13 13 13 14 13 12 12 11 11 9 8 8 9 9 9 9 8 8
36 34 25 23 26 24 24 22 22 22 19 21 19 19 17 18 17 17 19 22 22 23 21 18 18 17 15 10 13 14 15 17 17 16 14 12 12 12 13 12 13 14 13
37 34 29 30 27 23 21 22 22 22 20 22 21 21 16 16 21 24 22 22 21 19 20 21 22 21 19 17 16 17 18 19 22 20 18 18 17 16 15 17 17 18 18
34 31 32 34 31 28 24 20 25 24 25 23 26 19 16 16 23 24 27 27 22 22 24 25 24 24 22 22 21 21 20 22 22 24 26 26 23 21 21 20 20 21 21
37 39 33 33 31 28 25 26 26 26 22 24 25 28 24 18 7 6 24 21 27 26 28 27 25 24 22 23 26 27 24 24 26 26 25 28 28 27 26 27 26 26 27
39 41 38 32 35 31 27 29 29 28 27 24 27 23 28 26 21 16 11 17 19 23 25 22 23 26 28 25 26 29 32 28 30 31 32 29 29 29 29 29 30 31 31
44 43 40 35 30 29 33 27 26 27 29 31 25 21 21 23 25 20 19 20 22 22 23 27 25 27 29 30 33 35 36 38 33 33 34 33 33 32 33 33 34 35 34
47 49 40 40 37 34 35 38 35 32 32 32 30 29 28 27 24 24 22 23 25 25 24 28 31 30 31 33 36 40 42 40 37 35 34 36 34 35 36 36 36 38 38
47 50 48 42 43 36 40 39 38 38 36 36 33 34 32 31 29 29 28 27 28 29 31 35 36 37 38 36 39 37 39 37 39 37 39 40 38 38 36 36 36 35 34
53 46 53 48 47 45 41 43 42 41 38 38 37 38 38 36 35 32 31 33 33 32 33 36 36 35 37 41 40 35 37 30 29 33 38 40 39 38 36 34 33 34 35
55 57 55 53 47 48 45 44 44 42 41 42 40 40 39 41 40 40 40 37 38 41 40 39 38 38 38 29 32 38 35 31 34 37 40 41 35 34 35 32 32 36 37
50 51 56 60 53 47 45 45 46 46 46 46 46 46 44 45 43 42 40 42 44 43 48 48 39 37 32 32 32 31 30 32 38 35 34 33 31 31 33 32 33 36 35
42 45 53 56 56 61 59 54 53 52 49 48 47 44 45 43 41 43 44 45 48 51 49 49 42 43 35 32 34 35 37 37 34 32 31 31 29 33 32 31 35 35 36
46 47 49 50 53 56 59 59 56 52 50 49 49 48 48 47 46 48 48 50 51 50 47 47 46 46 42 37 37 37 35 35 34 33 31 31 30 28 32 35 35 34 33
48 51 51 49 51 52 48 50 50 51 51 52 52 52 51 48 49 51 50 50 52 48 50 49 51 51 47 42 37 36 35 36 35 30 29 28 25 28 32 31 32 32 31
50 50 51 52 52 49 53 55 53 51 50 51 52 51 50 49 51 51 52 52 52 50 45 51 52 48 45 43 41 39 37 31 30 29 27 24 24 25 29 31 29 27 25
48 50 52 53 53 55 58 56 53 49 49 49 49 47 48 51 54 49 47 44 47 47 49 52 52 48 46 45 39 33 27 28 28 29 26 29 30 26 22 25 29 28 25
47 51 54 51 53 54 54 53 52 50 49 46 44 45 47 52 50 44 43 46 47 49 55 46 41 44 39 33 23 25 23 25 25 19 17 19 19 25 28 29 31 27 28
49 48 48 49 50 51 48 48 47 45 46 47 45 41 40 43 43 42 46 45 50 51 48 41 34 30 28 27 23 23 22 22 20 17 17 24 23 28 27 26 29 30 33
45 47 46 44 44 45 45 44 40 39 40 42 45 46 48 46 47 49 50 46 39 35 28 22 19 21 21 19 19 18 16 13 13 14 13 22 25 28 30 31 32 32 33
40 38 43 44 43 43 43 41 41 41 40 42 44 48 49 47 44 40 35 33 33 24 22 18 12 12 8 10 9 8 9 8 12 16 15 17 21 23 31 27 24 22 23

GFSMA_850_spd_063.txt.gz
Wind_Speed
33 31 31 29 27 26 26 28 31 38 28 23 28 15 13 12 6 7 15 16 17 16 16 15 14 13 12 11 10 10 9 8 7 6 4 4 4 4 4 4 4 4 4
34 32 32 29 28 26 27 28 31 37 22 25 22 18 13 13 6 6 15 17 16 16 16 15 14 12 11 10 10 9 7 7 6 4 4 3 3 3 3 3 3 3 2
36 36 33 32 29 28 28 25 23 23 20 20 21 14 15 11 7 5 14 17 17 16 16 14 12 11 9 8 7 6 6 5 4 4 3 2 2 3 2 2 1 1 0
37 36 33 33 30 30 28 27 26 22 21 20 29 18 16 13 10 8 8 10 11 13 14 12 10 8 7 6 6 5 4 4 4 2 2 1 3 4 3 3 3 2 2
37 38 33 33 31 28 30 25 27 25 25 19 27 22 20 13 13 11 9 9 7 7 8 7 6 7 7 8 5 8 6 8 7 5 5 4 4 6 6 6 5 5 5
40 35 34 35 32 30 30 26 26 25 25 21 19 22 21 18 14 15 14 12 12 11 10 11 9 10 11 10 11 11 9 10 10 10 10 8 9 8 8 8 8 9 9
37 34 36 33 33 33 32 32 26 26 25 22 19 18 19 17 18 20 21 18 16 17 16 14 15 14 15 14 14 13 12 13 13 13 15 14 13 13 11 10 12 13 12
36 33 35 36 28 35 36 30 29 28 24 25 24 23 24 21 21 21 20 23 23 22 21 20 20 20 18 18 19 14 14 16 17 17 16 18 18 17 16 16 15 15 14
31 34 30 37 34 26 31 29 29 28 26 24 26 28 17 14 24 26 27 26 26 27 27 27 25 21 21 22 21 22 21 21 21 22 23 22 19 20 22 21 19 17 17
34 34 38 33 30 28 29 27 28 29 22 28 29 26 25 13 13 11 24 31 32 29 27 27 30 29 26 25 24 25 25 27 27 27 27 28 26 25 25 26 24 23 22
38 41 34 36 33 34 32 29 28 29 26 34 33 35 27 26 19 12 12 16 29 32 30 29 31 33 33 31 30 30 28 30 32 33 32 31 31 30 28 29 28 26 26
36 37 39 37 35 36 34 33 32 30 27 32 33 32 32 34 31 30 24 24 22 23 25 27 31 33 33 33 33 34 34 35 35 37 38 36 34 33 31 31 31 30 29
37 36 40 38 36 39 38 35 35 32 34 36 35 32 30 31 28 26 25 23 23 25 27 29 30 31 30 31 34 38 42 42 44 45 42 43 38 34 34 32 34 35 35
46 42 42 43 42 37 36 37 37 32 36 36 36 38 33 31 29 26 30 28 29 30 30 33 32 33 33 35 35 37 42 48 46 41 39 40 36 37 37 37 36 36 38
49 46 43 43 44 43 39 37 37 39 38 38 39 36 35 37 37 34 36 35 34 34 37 38 39 40 39 39 38 36 39 45 50 50 48 48 37 39 40 41 38 38 39
51 51 50 50 48 46 45 42 43 45 42 43 42 41 40 41 40 37 39 40 39 40 43 42 43 44 41 41 42 39 31 30 29 31 39 35 35 39 40 43 42 37 37
49 55 57 55 57 57 54 48 50 50 48 47 47 47 47 45 45 44 43 44 43 44 49 49 49 47 45 47 47 44 36 32 30 29 31 36 40 39 40 40 37 34 34
44 46 54 60 58 60 60 61 56 55 54 52 53 49 50 49 49 48 49 50 50 49 50 54 49 49 46 48 47 46 40 38 36 36 35 39 40 37 36 35 35 33 32
46 47 48 55 57 60 60 60 63 60 58 57 55 54 55 52 53 53 53 52 51 50 51 53 54 51 52 47 48 46 46 44 40 38 37 37 35 35 34 32 31 31 30
47 47 50 50 52 56 56 57 64 66 63 63 63 62 60 57 58 56 54 54 53 52 54 55 54 48 50 46 47 50 52 50 46 41 39 38 37 33 28 29 29 28 31
51 50 48 50 51 51 54 55 57 59 61 61 62 62 62 60 57 55 53 54 55 55 54 52 50 48 52 53 52 50 51 49 44 40 38 34 28 28 29 29 30 32 32
47 52 55 56 56 57 57 56 56 56 57 57 58 57 56 55 55 55 54 54 56 57 56 51 51 50 55 54 53 54 50 45 37 32 30 29 27 27 23 22 25 25 26
45 48 52 54 58 60 59 56 55 54 56 56 55 56 56 57 54 51 50 51 52 52 54 54 56 52 52 55 51 44 38 35 32 26 24 26 23 20 19 21 24 23 29
49 49 50 52 54 58 58 58 57 56 55 57 58 58 57 54 50 47 48 49 52 54 56 56 58 52 42 34 30 27 27 27 25 24 24 18 21 22 22 22 26 30 32
53 55 54 53 54 56 56 57 55 54 53 55 57 57 56 54 53 50 47 48 53 53 51 47 40 33 24 20 20 19 21 18 16 11 13 15 18 22 22 23 26 29 31
54 53 52 53 54 54 54 54 56 53 53 53 54 55 53 53 52 50 49 49 46 32 17 12 13 12 11 12 9 9 7 5 7 7 10 11 15 17 20 24 27 28 28

GFSMA_850_spd_066.txt.gz
Wind_Speed
39 36 35 33 32 33 33 37 40 39 34 19 18 18 15 9 5 11 17 17 18 18 18 18 15 13 12 11 11 10 9 9 8 7 7 6 6 6 5 5 4 4 4
39 39 35 33 31 30 33 38 41 40 33 20 21 19 13 11 7 9 16 17 17 18 17 16 15 14 12 11 10 9 8 8 7 6 6 5 5 5 5 5 5 5 4
42 38 34 33 31 31 32 35 41 37 31 22 20 17 14 14 9 8 14 16 18 17 16 15 15 14 12 11 9 8 7 7 6 6 4 3 4 5 5 5 6 5 5
36 37 36 34 32 32 32 37 43 33 33 25 19 18 16 16 10 8 14 16 17 17 16 15 14 12 10 9 8 7 7 8 7 4 4 6 6 5 6 6 6 5 4
40 39 38 37 35 34 35 38 43 32 33 26 19 19 19 15 12 13 12 14 13 13 13 13 12 11 10 10 8 8 9 8 7 8 9 8 6 6 7 8 8 7 7
39 39 38 38 37 38 37 37 36 32 29 25 21 20 19 16 15 13 13 14 12 12 12 13 13 12 12 10 10 11 13 10 12 11 12 9 9 8 8 9 9 11 11
40 39 38 38 38 40 36 34 31 30 28 23 29 21 18 16 15 15 15 15 15 14 14 13 15 14 14 13 14 15 14 16 15 13 15 14 14 13 12 12 12 11 11
41 40 39 40 39 39 38 34 35 35 31 26 29 28 22 18 20 20 18 19 19 18 18 18 18 18 17 17 18 18 18 19 18 17 17 18 18 19 18 18 17 15 13
41 40 41 39 41 39 40 36 39 34 35 32 26 24 14 11 26 25 25 23 23 25 23 22 23 22 21 20 21 22 22 23 23 22 23 23 21 21 23 24 22 20 18
42 40 37 38 42 39 38 37 38 35 33 35 31 27 22 17 15 15 29 30 28 27 27 27 26 26 26 26 25 25 24 26 27 29 29 30 30 29 28 28 27 25 24
42 36 33 39 36 39 39 40 39 35 33 35 38 25 29 32 20 18 16 24 32 33 33 31 30 28 27 27 27 28 28 28 30 31 32 34 36 38 38 34 31 30 29
33 34 36 41 39 35 28 31 26 35 34 37 28 26 36 34 31 25 21 18 18 18 21 28 32 29 27 30 31 30 30 32 32 36 38 39 40 42 42 42 37 34 32
44 35 32 34 36 37 31 28 36 38 37 38 34 34 36 37 35 32 30 30 30 27 29 29 29 29 29 30 31 32 33 34 36 38 41 44 45 46 46 45 44 40 37
51 44 41 37 34 33 31 36 41 38 35 39 34 33 33 38 37 36 35 30 26 25 27 30 29 29 31 31 32 34 36 39 40 39 43 48 51 49 49 44 46 42 43
44 49 45 44 42 43 43 44 41 40 38 40 38 36 36 37 38 34 33 33 32 31 35 38 38 34 35 36 38 39 39 37 39 40 42 46 49 49 48 44 44 46 45
44 45 45 43 42 45 45 42 44 44 42 42 41 42 41 42 40 41 42 42 42 41 41 40 46 44 40 43 45 43 41 40 40 41 39 40 40 38 40 44 41 39 40
46 48 47 45 45 46 47 48 46 45 47 45 47 47 45 46 46 44 44 45 46 46 48 49 49 48 48 49 48 47 44 44 45 46 44 43 40 38 37 39 41 40 43
42 48 49 50 50 50 50 52 52 53 53 52 50 49 51 50 50 48 49 50 50 50 52 55 53 53 55 53 50 48 47 48 46 44 46 44 43 41 40 41 44 45 43
42 44 48 55 55 54 54 55 57 57 57 58 57 56 57 54 56 55 54 54 54 54 55 56 58 56 56 55 53 51 51 50 51 46 48 45 48 45 43 44 45 45 43
42 45 47 51 53 55 58 62 61 62 64 66 66 66 64 63 63 59 58 56 56 56 56 57 57 54 49 51 52 52 52 51 47 45 47 43 45 46 45 43 42 39 33
39 42 45 47 48 53 55 57 59 62 66 64 66 66 67 67 67 63 59 61 59 57 57 56 50 49 47 51 53 54 55 52 53 50 48 48 46 45 43 37 33 30 32
42 41 44 48 50 51 53 54 56 58 58 60 61 63 62 63 66 67 64 57 55 54 56 54 51 49 51 54 55 56 56 53 54 50 48 42 36 30 28 29 27 30 32
46 47 46 45 48 52 52 54 53 53 55 57 58 58 58 60 59 58 55 52 52 53 56 58 58 57 55 52 54 56 55 56 53 41 32 29 31 29 29 30 25 15 14
43 50 51 50 51 50 48 51 53 54 55 58 58 57 57 57 56 54 52 52 54 58 59 60 61 68 65 65 55 53 47 43 35 28 24 24 27 25 25 23 20 22 25
39 52 52 54 54 54 51 49 49 52 56 57 56 58 60 59 57 55 54 53 54 56 59 58 57 57 57 54 53 39 27 24 23 21 18 18 18 18 19 20 24 25 22
33 43 48 51 53 55 53 52 49 49 55 59 60 63 62 64 61 59 58 58 59 56 54 49 42 37 31 22 15 15 18 20 20 14 11 11 11 12 8 12 15 18 21

GFSMA_850_spd_069.txt.gz
Wind_Speed
36 38 37 32 34 40 40 39 32 28 27 24 19 16 14 9 9 16 17 18 19 19 18 16 15 14 13 13 11 10 10 8 7 6 5 4 4 3 4 3 3 3 3
40 41 40 36 36 40 41 41 36 31 29 24 20 19 14 10 8 14 15 17 18 17 16 16 15 13 12 11 10 8 7 7 6 6 5 5 5 5 4 4 4 5 4
41 43 40 37 38 39 39 41 38 32 28 22 20 20 16 12 8 11 13 15 16 16 15 15 14 13 11 10 9 8 8 8 7 7 5 4 5 4 5 6 7 6 5
35 42 39 37 37 37 37 41 40 34 28 21 22 22 18 14 11 10 14 14 15 17 16 15 14 12 11 10 9 9 8 8 7 5 5 5 4 5 7 9 8 8 7
44 43 40 38 38 38 37 42 44 37 29 25 24 20 18 16 11 10 14 15 15 16 16 15 13 12 12 10 9 9 9 8 6 7 7 4 5 8 9 8 10 10 10
38 38 37 36 36 36 40 43 45 39 31 26 23 20 17 16 12 11 12 15 15 15 15 14 14 14 13 12 11 11 10 10 9 10 8 8 10 12 10 10 10 11 11
34 34 35 35 36 38 39 41 46 40 30 26 24 19 20 18 15 14 14 14 16 15 15 16 16 14 13 13 13 13 12 12 13 13 13 14 16 14 14 13 13 13 14
38 36 36 34 36 36 37 40 47 41 33 28 26 26 21 19 19 19 18 17 17 17 17 17 17 17 17 15 16 16 15 14 15 16 16 17 16 18 19 19 19 18 17
37 37 35 36 38 38 40 40 46 42 38 32 29 25 16 9 18 21 23 22 21 22 21 20 20 20 19 19 19 19 20 18 19 21 21 22 20 20 22 22 24 24 23
39 37 33 36 39 40 41 40 40 38 37 37 33 33 24 16 12 14 23 28 27 27 25 25 25 23 23 23 23 24 22 20 22 23 25 27 29 29 28 29 30 28 28
42 41 39 36 39 41 44 40 37 38 37 37 36 34 24 22 23 18 21 27 31 33 31 29 28 26 25 25 25 25 25 24 24 26 26 28 31 34 35 36 38 35 35
46 41 38 36 37 42 43 42 42 39 40 38 36 33 33 31 26 23 26 22 20 22 26 26 30 28 29 29 27 26 25 26 27 27 29 32 34 36 38 41 43 43 43
44 40 40 39 35 37 42 39 41 42 43 40 38 38 35 30 24 36 35 31 29 26 25 27 28 26 27 29 29 29 28 27 28 29 32 34 36 39 40 43 45 48 48
33 41 42 40 35 37 44 42 43 40 40 37 39 35 37 36 34 36 39 37 35 37 39 37 31 26 25 28 30 30 31 29 29 32 35 35 40 41 43 43 44 47 49
37 40 40 40 36 37 38 40 41 33 36 33 32 35 45 43 39 39 40 40 39 34 40 38 35 32 32 35 34 33 36 37 38 38 38 38 37 40 42 44 44 42 43
43 41 37 35 33 33 37 41 37 34 37 41 43 47 44 46 41 41 41 42 41 41 38 42 43 43 41 39 37 39 41 42 42 44 43 42 40 40 43 44 43 43 40
37 42 39 40 38 38 38 39 39 41 43 45 48 48 45 48 47 47 45 44 45 46 50 50 50 49 48 46 45 46 47 49 49 48 46 46 47 45 44 46 43 45 44
35 35 37 40 43 46 45 47 48 48 49 51 51 51 51 49 50 50 48 48 49 49 50 53 53 53 53 52 51 53 51 50 51 49 45 42 46 47 45 43 45 45 47
40 40 40 42 46 46 48 50 52 53 54 53 52 52 54 53 54 53 54 54 54 54 55 55 57 58 57 56 56 55 54 54 52 50 48 45 43 46 45 50 47 48 51
35 38 40 41 44 47 50 52 54 55 56 58 58 59 60 59 61 60 60 60 59 59 59 60 60 60 58 56 57 54 53 50 51 49 48 45 45 46 46 48 50 47 47
32 34 37 41 44 48 51 53 56 60 62 62 62 64 64 65 66 66 65 65 63 63 62 59 53 49 50 46 51 51 51 49 50 48 51 50 49 49 48 50 47 47 47
37 37 38 39 42 45 49 53 56 60 61 62 63 63 64 65 65 67 67 64 63 57 58 55 53 50 50 50 49 52 51 52 52 51 46 47 50 50 50 46 43 39 32
31 36 39 42 45 46 47 48 48 52 55 58 61 62 62 62 62 62 61 61 60 59 58 59 59 56 56 54 53 49 54 54 55 53 49 49 47 41 38 36 33 33 35
29 31 37 42 45 48 48 50 52 50 49 53 55 59 61 61 61 59 57 57 55 54 55 56 59 62 62 61 60 58 53 50 52 50 40 32 30 27 27 27 29 30 31
25 28 31 36 35 46 50 53 52 53 54 55 54 52 54 57 58 56 55 56 55 54 57 58 60 62 64 67 68 69 65 51 39 29 23 23 22 22 19 16 17 18 18
21 24 25 30 35 40 46 53 53 51 54 56 55 56 59 61 61 61 60 60 62 61 62 62 59 59 57 49 41 37 30 29 28 18 12 14 11 12 8 12 16 17 17

GFSMA_850_spd_072.txt.gz
Wind_Speed
36 29 36 31 30 33 40 37 31 27 24 23 20 14 11 10 13 15 17 19 18 18 17 16 15 15 14 13 12 11 10 9 9 8 8 6 5 4 3 3 2 2 2
32 40 36 33 32 38 40 36 32 28 25 25 21 16 13 9 11 14 16 18 19 18 17 16 14 14 13 12 11 10 9 8 7 6 5 4 3 2 2 2 3 2 2
34 34 34 35 34 41 40 35 31 29 27 26 20 18 13 10 9 14 14 14 17 16 16 15 14 13 12 11 10 8 7 6 5 4 3 3 2 2 3 4 4 3 4
36 36 37 37 35 42 41 37 33 30 29 24 22 19 15 11 10 11 14 14 15 15 15 15 14 13 11 10 9 8 6 6 5 5 4 4 3 4 4 4 4 5 7
38 37 41 38 34 40 41 38 34 32 29 26 20 19 17 13 11 10 13 15 15 16 15 15 13 12 11 10 8 7 7 7 6 6 6 5 6 5 3 3 6 8 9
36 40 35 36 34 40 42 40 38 34 31 25 22 22 18 14 13 10 12 15 15 16 16 16 15 14 12 11 9 9 9 9 9 8 9 8 7 6 5 5 8 9 9
43 34 34 36 36 42 44 43 40 36 29 26 25 24 21 18 16 14 13 15 16 17 17 17 16 15 14 13 13 12 11 11 11 11 11 11 11 10 10 11 13 12 12
27 25 30 33 36 37 40 42 42 39 33 29 30 26 21 20 20 18 15 15 15 15 16 17 17 18 17 16 14 14 14 14 13 13 13 13 14 14 15 16 17 16 18
28 32 31 33 33 37 40 43 46 46 42 33 30 22 14 10 22 20 18 17 17 17 18 18 19 19 19 19 18 18 17 18 17 17 19 18 18 18 18 18 19 20 22
27 33 35 37 31 34 35 40 43 43 41 37 31 30 24 14 17 13 21 20 20 22 22 23 24 23 24 23 22 22 21 21 20 20 22 22 23 24 24 24 25 27 27
30 27 33 36 36 36 37 37 39 45 39 38 36 31 27 23 18 16 15 17 24 28 24 27 28 27 27 27 26 25 24 24 24 26 25 25 25 27 29 29 30 33 34
30 31 28 38 33 34 37 37 35 40 42 37 35 34 33 30 25 21 22 28 29 22 20 24 32 32 29 28 28 27 27 26 26 26 27 28 28 30 31 33 35 37 39
28 33 35 34 32 31 36 37 39 36 39 40 37 36 35 33 30 26 25 21 24 30 30 28 22 20 21 24 25 25 27 27 27 28 28 29 30 31 33 35 37 40 42
28 24 37 36 34 33 35 41 39 40 39 38 36 41 40 38 36 30 25 31 28 38 40 39 34 33 35 32 27 24 25 27 27 28 29 28 29 33 35 37 38 41 43
19 24 26 38 34 34 32 37 41 44 47 45 43 44 42 40 42 37 32 42 35 34 39 41 42 39 36 33 31 29 28 30 34 34 33 36 38 36 38 40 41 41 43
19 21 21 33 33 32 31 35 38 39 39 43 44 40 45 40 42 42 36 48 42 39 42 45 46 43 38 36 37 39 39 39 39 39 39 41 42 44 43 42 43 44 44
18 22 23 28 29 31 32 34 35 38 41 44 43 41 45 40 38 44 50 51 48 45 47 49 48 47 47 47 46 46 45 46 45 44 44 46 46 46 47 46 44 45 47
16 21 26 28 29 30 30 32 33 35 38 38 38 41 47 46 47 48 52 52 52 51 51 53 52 50 51 52 52 52 51 51 53 50 49 48 48 49 48 45 46 45 47
19 22 24 29 31 31 33 37 39 39 41 43 44 47 49 49 51 52 54 56 54 55 56 56 56 56 57 57 58 57 58 58 57 55 53 55 51 46 45 45 43 41 43
20 25 28 32 34 36 39 41 43 44 46 49 49 50 52 53 56 57 58 59 60 59 59 56 56 59 61 61 59 61 65 66 62 55 47 45 42 43 43 41 40 40 42
22 24 26 29 33 36 40 42 43 46 51 52 53 56 58 59 61 61 61 62 62 63 62 57 52 52 53 54 60 63 60 57 55 50 47 47 46 49 47 48 47 46 45
19 22 27 31 33 34 36 36 38 44 48 50 54 57 61 63 65 66 65 65 65 58 57 57 57 53 54 55 52 51 52 51 51 49 43 43 43 46 48 48 48 45 43
24 27 28 31 35 35 36 36 36 41 44 45 47 50 55 61 64 65 65 64 63 63 65 65 60 58 59 56 51 52 52 56 54 49 47 51 49 44 42 41 42 42 39
20 22 26 28 28 29 33 36 41 43 46 48 50 50 53 52 54 56 58 59 59 58 58 58 62 67 63 58 50 48 49 49 51 55 52 43 40 31 30 29 25 25 27
15 18 21 24 26 30 37 38 40 38 43 48 49 51 56 59 58 56 56 56 57 54 58 58 57 61 68 69 68 69 64 52 44 37 33 29 24 21 19 19 15 15 16
8 9 11 15 19 22 28 34 38 39 38 38 34 39 47 52 55 56 59 58 59 53 56 59 56 51 49 39 53 52 47 41 34 20 12 10 14 17 8 7 5 7 10

GFSMA_850_spd_078.txt.gz
Wind_Speed
30 26 26 29 27 33 32 31 27 27 22 18 17 15 13 12 13 12 12 17 16 15 15 15 16 16 15 15 13 13 13 12 12 11 11 10 9 8 8 8 7 7 7
36 28 28 25 28 31 33 28 27 25 19 18 17 15 13 12 13 13 12 17 16 17 17 15 14 14 14 14 14 13 13 12 11 11 10 9 8 7 7 7 7 7 6
32 32 32 26 30 32 33 28 25 23 21 19 17 15 12 13 14 15 14 12 20 16 14 14 12 13 14 14 13 12 11 11 11 10 9 9 8 8 7 7 6 6 6
32 34 36 32 33 35 34 29 26 22 21 19 18 15 13 12 14 15 14 13 14 15 16 15 15 14 14 13 13 12 12 11 10 10 9 9 8 7 6 6 7 7 7
33 33 37 34 33 35 35 28 24 23 21 20 18 15 14 13 13 14 15 15 13 12 12 15 15 15 15 14 12 12 11 11 10 9 9 9 8 7 7 7 7 8 8
29 35 38 40 39 33 33 29 27 24 22 21 19 17 14 13 13 14 15 15 14 15 14 12 16 15 16 14 13 12 11 11 10 10 10 10 9 9 8 8 8 8 8
32 32 40 41 38 38 37 35 27 26 23 23 20 16 14 12 13 12 14 15 16 15 15 15 14 14 15 16 14 13 12 13 12 12 12 12 13 12 11 11 11 10 10
25 43 38 38 39 42 36 38 32 27 25 25 24 20 15 11 13 15 14 16 16 16 17 18 18 17 15 15 16 14 14 14 15 15 14 15 15 15 14 14 14 15 15
22 31 37 37 38 40 38 42 37 31 28 27 25 24 15 12 16 16 17 16 17 19 18 19 20 19 19 18 18 17 17 17 17 17 18 18 17 16 16 16 17 18 18
12 23 42 41 37 36 38 36 33 35 30 29 27 25 19 12 21 12 17 18 19 20 21 20 20 20 20 21 21 21 20 20 19 20 20 21 21 22 21 22 22 22 23
8 27 38 35 32 38 36 34 34 34 31 27 26 27 21 15 16 15 14 19 20 24 23 25 22 21 25 23 24 24 24 22 23 23 24 25 26 27 28 27 28 27 27
14 16 24 21 30 34 35 37 37 40 37 29 30 29 24 22 19 18 16 15 21 24 29 28 27 26 28 27 27 28 29 25 26 27 28 29 30 31 32 32 33 33 33
20 22 25 29 31 32 33 32 34 37 40 36 31 31 28 24 20 17 16 16 16 18 18 29 32 32 30 28 26 25 30 29 29 27 27 31 34 35 35 35 35 36 36
19 19 22 27 31 33 32 32 34 34 35 38 37 34 29 33 32 23 22 19 21 20 22 20 26 30 32 34 32 27 23 24 25 28 30 31 33 35 36 36 37 37 38
18 20 18 25 26 33 35 32 35 34 36 34 38 36 39 34 32 29 27 23 24 25 29 25 23 21 27 39 34 30 31 32 31 35 32 32 29 28 31 32 35 38 40
15 16 20 22 23 25 29 37 40 38 37 38 37 38 38 35 33 28 30 33 30 27 32 28 29 28 28 29 37 33 36 37 39 35 34 35 39 36 38 40 40 41 42
14 14 17 20 22 21 28 28 34 36 39 42 39 36 37 38 44 44 43 38 37 38 41 36 42 34 39 32 35 42 46 48 46 45 40 38 40 45 48 48 47 48 50
12 15 16 19 20 20 23 29 31 32 29 32 45 44 45 45 45 45 46 47 48 48 49 55 50 50 49 46 50 44 42 43 45 44 48 50 50 50 52 53 54 54 55
10 12 16 17 16 16 19 22 27 27 25 26 24 32 50 48 47 51 49 49 52 50 53 54 57 48 44 42 40 43 45 47 44 43 50 54 54 54 56 57 57 57 56
10 8 9 12 12 12 14 16 21 23 23 23 25 26 28 39 41 40 40 42 43 40 39 38 41 40 41 47 44 45 47 45 46 47 48 48 47 52 53 54 53 52 53
10 9 9 10 9 15 21 21 22 23 23 25 27 29 32 33 33 34 33 35 34 35 36 38 41 44 43 42 43 43 44 47 47 44 47 47 42 41 42 46 51 55 52
12 14 15 16 19 22 23 24 25 27 29 30 31 31 31 31 34 36 38 39 43 45 43 43 43 43 47 52 48 45 45 43 47 41 42 40 44 46 50 52 57 60 59
12 12 13 14 17 21 22 23 24 26 27 30 35 35 34 35 37 39 41 43 41 41 43 51 52 46 43 41 43 47 48 47 49 45 42 42 47 45 46 49 54 56 56
8 9 10 11 12 14 18 21 23 22 20 22 25 28 31 37 40 41 40 40 39 43 48 48 54 62 66 67 66 61 55 54 54 51 40 38 40 36 37 36 35 31 26
9 8 7 7 10 13 17 21 22 18 21 22 24 25 27 29 31 35 35 36 37 38 39 39 41 47 49 52 55 54 50 48 48 47 43 38 34 30 27 24 23 24 16
6 5 3 3 4 7 7 7 6 8 11 13 15 15 16 19 24 27 27 25 27 29 31 31 29 30 29 29 27 27 26 24 21 20 19 19 18 19 12 15 13 11 11

GFSMA_850_spd_081.txt.gz
Wind_Speed
24 28 26 29 30 29 30 32 28 29 24 21 19 19 15 11 12 9 9 15 15 13 11 13 14 13 14 14 13 13 13 13 13 12 12 11 10 9 8 7 7 7 6
22 26 28 30 32 31 28 32 32 31 25 23 21 17 16 13 13 10 10 16 14 13 13 14 14 14 13 13 13 13 13 13 12 12 11 10 9 8 8 7 7 6 6
21 25 26 28 29 26 30 32 30 27 24 22 20 19 15 13 13 13 11 13 17 15 15 13 13 14 13 13 13 13 13 13 12 12 11 10 9 9 8 7 8 7 7
24 28 27 26 26 19 27 30 28 27 26 22 22 17 14 13 14 15 13 13 16 15 15 16 15 13 13 12 14 13 13 13 12 11 11 10 9 9 8 8 8 9 9
22 25 28 29 29 22 29 33 27 26 24 24 24 17 16 13 14 14 15 15 10 15 14 18 17 15 14 14 14 13 14 13 13 12 11 10 10 9 8 8 9 8 9
23 27 28 34 31 25 30 36 29 24 24 24 21 19 18 15 13 14 15 14 12 13 13 19 19 19 19 18 15 15 14 14 13 12 11 11 10 10 9 9 8 8 9
22 24 32 31 33 33 31 38 30 27 27 26 23 21 18 17 17 14 15 15 15 16 15 14 12 14 15 16 17 16 16 15 14 13 12 12 12 11 11 10 11 10 10
20 18 35 31 32 34 36 36 34 29 27 28 30 21 16 15 16 19 17 16 16 16 17 19 16 15 14 15 17 17 16 15 15 15 15 14 14 15 15 14 14 14 14
16 19 22 28 33 33 38 37 32 32 30 27 28 24 14 10 17 17 18 17 17 18 18 19 20 19 20 16 17 19 18 17 16 16 17 17 17 16 17 17 17 18 17
18 20 25 42 41 38 40 43 38 34 31 32 28 26 17 11 22 12 17 21 18 20 21 19 20 22 24 23 23 20 19 18 18 18 19 19 19 18 19 21 21 22 22
15 15 19 39 37 37 37 42 42 36 30 30 30 25 24 18 12 18 16 20 20 20 21 25 21 22 23 23 23 22 22 20 20 21 22 22 23 23 24 26 25 26 26
12 10 17 33 30 37 35 35 38 36 32 27 31 27 22 20 14 15 13 18 22 19 22 26 26 26 25 24 26 24 24 24 24 25 26 26 26 28 29 32 32 32 32
14 8 14 29 31 36 32 35 35 32 32 30 28 28 28 22 18 17 16 14 16 17 17 20 26 27 29 29 28 28 26 24 27 30 31 30 27 30 32 35 35 36 37
14 15 15 18 21 27 33 33 35 34 32 33 33 30 28 30 25 20 16 14 15 15 15 18 17 24 25 27 32 32 29 28 30 28 29 29 26 30 34 36 36 38 39
14 15 18 20 20 24 30 31 32 32 31 33 33 29 29 27 27 29 26 25 22 20 21 17 24 22 23 24 31 28 33 37 37 34 26 28 30 34 33 33 33 33 35
14 16 17 20 20 28 29 30 29 30 30 32 32 36 33 32 34 32 29 30 34 29 25 23 24 23 23 22 21 29 31 35 39 36 33 33 34 35 38 38 39 41 40
13 12 15 17 17 20 26 32 33 32 34 35 37 39 39 38 36 36 37 37 36 31 31 29 29 35 37 34 34 31 26 33 42 44 44 41 43 44 43 44 44 43 48
10 12 13 14 18 18 16 24 31 34 37 36 38 38 38 38 36 37 40 40 42 45 42 44 48 46 46 49 53 52 53 48 48 43 49 51 49 48 46 47 49 52 53
8 9 12 15 15 17 20 19 23 26 27 30 32 30 32 37 39 36 41 42 44 45 47 48 54 52 55 56 59 54 53 52 49 48 46 50 50 52 52 51 50 49 49
5 5 11 12 12 12 13 15 18 22 26 25 24 21 22 24 27 31 43 45 43 46 47 44 49 47 43 43 41 40 36 39 41 43 43 46 49 50 53 54 53 53 52
11 11 9 12 15 15 16 16 17 19 19 18 16 17 19 20 21 21 27 33 38 38 40 39 39 40 40 36 32 36 38 41 40 38 41 40 39 40 44 49 51 53 53
16 13 14 17 17 18 18 16 17 19 19 20 20 21 24 27 28 28 28 31 35 39 39 39 38 38 42 41 39 36 36 35 36 34 37 38 38 42 45 49 53 52 54
18 19 19 20 19 17 18 19 20 22 23 25 27 29 31 32 34 35 35 35 38 40 44 47 49 51 49 45 39 38 40 44 40 37 31 35 38 40 42 41 39 41 42
11 11 12 13 15 15 18 20 22 21 21 22 23 24 26 29 33 36 37 37 38 40 41 41 41 40 42 45 47 49 50 53 54 51 51 45 43 44 44 40 43 46 44
7 6 5 4 5 6 8 10 14 13 12 13 14 15 17 18 21 23 24 26 27 27 29 32 34 34 33 32 32 32 30 31 28 27 27 27 27 26 27 24 21 20 16
6 4 1 2 5 4 7 9 9 10 10 9 8 7 10 11 13 14 15 14 14 14 13 14 16 18 19 20 21 20 16 15 15 15 14 14 16 15 11 18 19 19 19

GFSMA_850_spd_084.txt.gz
Wind_Speed
21 21 22 27 26 26 30 33 27 25 27 25 26 23 19 13 14 12 10 10 11 12 12 15 16 16 16 15 16 15 15 15 14 14 14 13 12 11 11 10 9 8 7
21 22 24 23 25 27 28 28 24 25 27 27 26 24 23 15 9 8 10 12 14 12 9 17 16 16 15 16 15 16 16 15 15 14 13 13 12 11 10 9 8 7 7
20 21 25 25 26 27 26 25 26 29 28 29 27 25 22 21 17 8 10 13 18 14 12 15 15 15 15 14 15 16 16 16 15 14 13 12 11 10 9 9 8 8 8
21 21 24 25 27 27 23 25 27 31 33 30 29 26 21 20 19 13 13 9 19 18 16 15 13 13 14 15 15 16 16 15 14 14 13 12 10 10 9 9 9 9 9
21 23 23 24 25 26 27 25 26 29 32 31 30 25 19 15 20 16 12 10 11 18 19 18 15 14 14 15 17 17 16 15 14 13 12 11 11 10 10 10 10 10 10
21 22 24 25 25 24 22 19 24 29 29 29 30 24 18 19 18 18 18 12 11 10 18 19 19 17 18 18 16 16 16 15 14 13 12 12 12 11 11 11 10 9 9
20 21 23 25 24 28 25 19 30 31 31 31 31 25 21 20 16 18 16 14 10 7 8 12 11 14 19 21 18 17 17 16 15 14 14 13 13 12 12 11 11 10 9
21 21 22 25 25 30 27 23 27 34 26 30 34 30 21 20 20 19 19 17 16 11 14 11 11 12 15 16 18 17 17 16 16 15 15 14 14 15 14 13 13 12 12
22 21 24 23 27 30 31 28 38 36 34 29 33 32 18 10 26 21 22 22 19 17 19 16 13 11 14 15 14 18 19 17 16 15 15 15 16 16 17 17 17 16 17
17 17 21 21 25 25 30 32 40 36 33 31 33 28 24 21 23 12 22 23 20 20 22 20 21 23 21 20 18 18 20 19 17 16 16 16 17 18 18 18 20 19 19
18 17 16 21 25 26 27 31 42 42 39 33 33 25 20 19 19 19 19 26 25 22 23 26 22 23 27 30 29 25 20 18 17 17 17 18 19 20 19 19 22 22 23
18 17 16 20 25 32 30 27 41 40 39 34 33 30 28 24 15 19 10 22 27 32 28 26 31 28 27 28 28 29 28 23 20 19 20 21 23 24 24 23 25 26 27
18 15 14 13 16 35 35 29 43 40 39 34 32 30 26 25 21 14 13 15 22 19 20 21 20 17 25 27 26 25 24 25 23 22 24 25 28 29 29 29 30 29 31
15 12 10 10 22 24 25 30 32 44 38 31 29 30 28 24 23 21 17 15 12 9 22 18 15 17 16 21 28 27 28 28 25 26 27 28 28 31 36 32 29 28 33
13 10 8 12 16 19 27 30 28 40 36 31 29 28 30 30 28 23 22 20 12 12 17 13 11 19 20 18 20 21 22 25 28 28 33 35 33 30 29 29 30 32 34
10 12 13 15 16 19 24 31 35 35 33 29 28 28 29 26 23 25 28 26 20 17 25 27 25 17 11 16 20 24 26 26 28 30 27 30 36 33 34 33 32 34 37
9 9 12 14 17 17 20 24 26 29 31 32 28 29 27 28 29 29 30 31 33 31 28 37 35 34 33 33 35 35 28 30 32 35 36 36 37 42 43 41 41 42 43
10 9 9 11 16 18 22 26 27 29 27 28 27 33 35 35 35 36 37 36 36 34 33 38 40 35 32 33 35 38 43 46 49 52 50 53 53 47 48 48 53 49 48
9 8 10 7 10 14 15 15 20 29 26 29 31 31 32 33 33 34 37 37 36 37 38 40 40 40 43 42 45 46 46 43 44 44 42 41 41 46 47 51 49 49 48
9 9 12 12 15 13 15 14 12 14 20 21 23 25 25 22 23 21 21 25 30 36 38 40 43 45 43 40 37 39 39 38 39 34 32 31 36 39 42 46 48 49 51
13 13 14 14 15 15 14 13 13 14 13 10 15 16 19 21 20 21 21 23 23 26 27 29 34 37 38 37 34 28 28 24 22 25 27 30 32 33 37 39 40 38 43
14 14 14 14 15 16 14 14 14 16 15 17 19 18 19 17 20 23 22 25 27 30 31 32 34 31 25 27 34 39 42 36 32 32 28 28 26 26 32 32 35 39 38
15 13 13 14 13 13 14 14 15 15 17 18 18 19 18 21 22 24 26 26 27 28 29 30 30 31 31 32 34 35 35 34 34 38 40 41 40 41 43 42 48 51 51
19 17 15 14 12 12 15 16 17 18 20 21 22 22 22 24 25 27 26 26 26 28 29 29 27 26 26 26 27 28 29 29 29 28 26 24 25 26 27 27 29 31 30
15 12 11 9 7 7 7 9 8 9 10 11 10 10 11 11 13 16 18 19 17 17 18 19 17 15 16 15 17 18 17 16 15 16 16 15 15 18 19 20 21 22 22
15 11 6 7 7 6 4 5 6 7 7 6 4 5 10 12 12 12 12 10 9 6 3 4 5 7 8 8 8 8 7 8 7 7 8 10 10 11 8 10 10 16 18

GFSMA_850_spd_087.txt.gz
Wind_Speed
15 17 19 21 25 23 22 31 25 23 26 27 26 27 24 15 17 16 19 14 10 9 11 19 20 23 19 18 18 17 17 18 17 17 17 15 14 14 13 12 11 10 9
16 18 20 23 27 26 22 27 28 25 22 25 28 29 25 20 16 17 16 12 10 11 13 17 19 19 19 18 18 17 18 18 17 17 16 16 14 13 12 11 10 10 9
17 19 21 24 27 29 25 26 28 25 24 26 29 31 24 18 17 14 12 9 11 13 13 18 19 19 19 18 18 18 17 17 17 17 16 15 14 12 11 10 10 10 10
16 19 21 23 25 25 26 26 27 25 28 28 30 29 21 20 17 12 12 9 11 18 15 19 18 19 19 17 17 18 18 18 17 17 16 15 13 12 11 11 11 10 10
21 22 22 23 25 24 24 24 26 28 29 29 32 32 27 23 18 20 12 10 12 18 17 19 18 15 16 18 18 17 18 17 17 16 15 14 13 12 12 12 12 12 12
22 24 25 23 26 24 26 26 26 26 29 33 37 28 30 25 22 16 16 13 8 13 18 20 19 19 19 18 17 18 17 17 17 16 15 14 14 13 13 12 12 12 12
24 24 26 25 24 26 27 28 25 26 24 41 35 28 21 18 23 18 16 13 9 8 13 21 21 20 18 20 18 17 18 18 17 16 15 15 14 14 13 13 13 13 12
26 24 25 26 27 24 27 29 24 22 29 37 33 33 24 25 21 20 18 16 12 11 10 14 16 12 12 18 18 17 18 18 18 17 16 15 15 14 14 14 13 13 12
24 24 25 25 23 23 26 29 25 28 35 40 37 33 27 16 28 23 20 19 17 17 12 13 12 12 9 13 15 15 17 18 17 17 17 16 15 15 15 16 15 15 15
21 24 23 24 23 22 25 30 29 40 42 44 36 30 28 29 32 21 26 24 20 20 19 15 16 16 15 13 13 13 13 18 18 17 16 15 15 16 16 17 18 18 18
18 22 23 23 26 24 30 31 36 32 40 44 39 32 29 18 31 22 27 30 27 26 23 22 19 20 20 19 18 19 17 17 19 19 18 17 16 15 16 17 19 19 20
21 20 20 20 23 25 27 30 33 34 44 40 37 35 32 22 23 25 19 32 31 33 28 26 27 23 24 24 24 26 25 23 19 19 19 19 19 19 20 20 21 23 23
22 21 19 20 22 24 29 32 37 46 45 43 42 38 32 22 21 22 17 14 24 27 29 27 26 28 28 28 27 26 28 28 24 23 22 22 22 23 24 26 28 29 28
19 19 18 20 22 23 33 32 29 43 44 40 40 36 30 31 22 21 20 16 16 17 20 23 22 19 16 21 20 23 24 23 22 23 23 24 24 25 25 28 30 33 34
15 18 17 15 14 11 22 34 29 29 44 43 37 33 31 29 25 23 19 15 16 12 13 13 16 10 19 17 22 22 24 22 21 21 23 24 23 27 31 32 34 30 32
15 15 13 12 12 14 16 20 31 35 39 40 38 33 30 28 27 21 19 16 15 15 18 20 21 14 10 10 15 14 17 18 21 24 24 24 27 29 32 31 29 32 32
12 12 12 13 14 16 15 21 26 29 42 40 35 31 26 25 27 29 25 21 19 18 24 29 31 29 29 27 24 21 23 24 29 29 31 36 37 36 39 41 40 38 37
10 10 11 13 14 14 16 18 30 29 32 35 30 27 27 27 31 29 28 30 34 32 31 34 36 36 33 27 30 31 29 26 33 39 42 45 46 44 45 46 46 45 41
11 10 10 9 13 16 16 19 20 26 31 29 30 29 29 30 32 35 36 34 32 34 34 33 34 31 30 30 28 29 34 35 33 31 28 30 30 30 33 34 34 37 43
15 14 14 14 13 15 16 17 20 23 24 25 27 27 27 27 27 28 29 27 25 24 22 26 29 29 30 28 31 31 29 29 31 28 27 33 32 32 30 31 35 40 43
16 15 15 11 18 15 13 14 13 13 10 16 19 22 23 25 24 21 21 19 18 15 16 19 21 22 24 27 26 27 30 17 23 25 24 24 25 25 26 31 32 28 31
17 16 17 17 16 15 14 13 13 14 15 16 16 18 20 19 21 22 20 20 26 25 25 24 26 25 23 17 19 22 31 35 34 34 32 30 28 32 36 36 36 39 38
20 19 18 18 18 17 17 17 17 16 15 18 16 15 15 16 15 15 20 21 19 22 26 27 27 28 27 28 27 24 22 21 22 24 24 25 25 25 24 23 25 25 26
22 21 21 21 21 19 18 18 19 18 17 17 16 16 13 11 14 18 19 18 18 18 18 18 16 15 16 17 17 17 18 19 19 19 18 16 18 18 19 20 20 21 21
21 20 18 18 19 17 15 13 13 17 17 16 14 14 11 8 7 8 9 9 10 10 11 12 10 9 9 9 11 10 10 10 13 13 12 11 11 13 13 12 11 11 13
18 18 18 15 13 14 11 12 11 12 13 12 10 8 5 6 11 12 9 7 7 4 2 1 2 3 3 3 5 4 4 5 6 5 6 6 8 8 5 7 8 11 12

GFSMA_850_spd_090.txt.gz
Wind_Speed
16 17 19 20 22 24 24 18 20 24 22 28 30 29 27 23 19 23 21 20 15 12 13 16 20 22 22 19 18 16 16 15 15 17 16 16 16 15 13 12 11 10 9
15 15 18 20 22 25 23 19 25 27 25 30 31 32 30 25 20 23 22 21 16 14 11 16 21 22 20 19 19 18 16 17 17 18 17 16 15 14 13 12 11 11 10
16 17 18 19 22 25 25 22 28 26 24 28 31 29 30 27 23 20 23 19 17 12 11 15 23 24 21 20 19 18 18 18 18 17 17 15 14 13 13 12 11 10 10
17 17 19 19 22 25 26 25 28 29 27 27 30 32 30 26 22 23 22 17 12 11 13 15 18 18 20 20 20 19 19 18 19 17 17 15 14 13 12 12 11 12 12
19 19 19 21 22 25 27 28 27 32 32 29 28 30 33 28 26 25 19 13 10 11 15 18 20 21 21 19 18 19 18 18 17 17 16 15 14 14 13 13 12 12 12
21 22 22 20 21 26 27 27 29 34 33 30 31 30 31 31 27 23 15 12 10 11 16 18 21 20 19 18 19 18 18 18 18 17 17 16 15 14 13 13 13 13 13
22 24 25 23 23 26 27 27 31 31 30 29 26 33 31 31 26 20 17 15 11 10 15 18 21 20 19 20 18 17 19 18 18 17 17 16 15 14 14 14 13 13 13
24 24 25 25 24 25 26 27 31 30 31 31 30 40 24 31 29 21 20 16 13 11 13 18 20 20 17 17 18 17 17 19 18 17 17 16 15 14 14 14 14 14 13
26 26 24 25 26 27 29 28 33 32 34 34 32 28 20 14 30 24 20 19 17 14 12 14 19 18 14 11 13 15 16 16 17 17 17 15 15 14 14 14 14 14 14
28 27 27 25 25 27 29 29 31 35 33 31 39 41 27 30 27 18 24 24 20 20 18 14 16 15 14 10 10 13 12 14 15 15 15 15 15 15 15 15 16 17 17
26 24 26 26 26 26 27 28 31 32 30 41 44 40 29 29 30 26 26 29 26 25 21 20 16 16 15 13 12 13 13 13 14 18 18 17 16 16 17 16 17 18 18
23 23 24 25 25 25 27 27 29 33 35 42 43 43 36 30 32 25 19 30 30 28 25 23 21 18 17 17 16 14 15 15 15 16 19 19 19 19 19 18 19 19 20
21 22 23 24 25 25 28 27 29 30 37 46 47 40 40 29 28 27 17 26 34 30 25 23 22 21 21 19 20 18 18 18 20 21 20 20 20 21 22 22 22 22 23
19 21 23 24 25 24 25 27 31 34 40 44 47 43 37 32 24 24 27 24 19 32 31 29 29 26 24 24 24 24 25 24 23 23 23 23 22 23 24 24 24 23 25
19 22 23 21 22 24 25 29 36 39 38 47 45 45 41 35 26 25 23 24 22 18 22 21 20 18 22 24 24 24 25 25 25 23 21 20 21 23 24 22 25 27 28
18 19 20 21 21 22 20 20 30 37 40 40 50 43 43 41 32 23 20 21 18 15 11 16 18 17 12 12 13 23 25 21 21 17 18 20 23 24 26 26 30 35 32
18 19 17 17 16 16 12 13 31 25 34 41 43 44 39 37 37 25 22 21 16 18 17 18 19 19 20 20 18 19 17 20 22 23 27 28 28 29 32 33 34 38 40
15 14 14 14 14 13 14 14 17 24 33 38 47 39 31 31 30 26 23 18 18 18 18 19 22 23 25 27 26 27 22 22 23 23 26 31 37 39 41 43 42 41 43
13 13 13 13 14 14 16 14 11 16 25 30 40 40 34 32 28 22 23 23 26 25 27 32 37 38 36 27 24 23 24 25 24 32 37 36 31 29 30 32 34 34 34
15 14 14 14 13 15 16 14 14 16 23 28 27 32 32 29 27 28 30 31 30 31 37 32 29 24 19 16 18 20 22 22 23 21 26 25 23 23 25 27 29 32 31
16 15 15 16 13 15 17 17 17 16 21 27 30 32 32 32 33 33 32 32 32 25 18 17 16 14 15 17 18 20 20 18 17 17 18 20 23 21 21 23 26 29 31
16 16 16 16 17 14 16 15 18 21 21 23 27 25 24 25 26 26 27 24 20 19 20 20 20 20 21 22 23 17 15 16 20 24 21 23 23 24 23 24 26 26 28
19 18 17 17 18 17 16 15 14 17 20 20 19 17 19 19 19 19 20 20 21 20 21 24 26 27 27 26 26 24 23 22 21 22 22 21 21 20 19 19 19 19 19
23 21 18 18 19 19 19 18 17 19 19 20 20 19 17 16 17 18 19 19 19 20 21 21 22 19 18 16 18 17 17 17 18 19 18 17 18 18 18 18 15 14 12
23 21 20 18 16 16 18 19 21 21 22 21 20 19 19 18 18 18 16 16 15 14 12 11 9 10 13 11 12 14 13 13 13 13 12 12 13 12 9 7 6 7 8
21 19 20 17 14 14 13 15 17 20 21 19 15 15 15 14 12 10 10 11 11 8 6 6 5 4 5 5 5 3 3 3 5 5 3 5 4 4 2 4 5 7 9

GFSMA_850_spd_093.txt.gz
Wind_Speed
22 22 21 20 21 21 23 23 19 22 22 31 31 32 29 27 25 24 21 20 19 15 13 14 14 16 17 19 19 17 17 18 16 15 13 12 12 12 11 10 9 9 9
22 22 21 21 22 22 23 24 21 18 27 30 30 30 28 28 24 25 22 20 20 17 12 13 15 18 20 20 18 17 16 15 15 14 14 14 13 12 11 10 10 9 8
21 20 20 20 22 23 25 24 20 21 27 26 24 30 29 26 24 26 25 23 22 17 14 13 16 18 20 21 20 19 17 14 15 15 14 14 13 12 11 10 10 9 9
21 21 21 20 22 23 25 25 22 27 28 25 28 32 31 29 25 23 26 24 22 18 15 13 18 22 21 20 21 21 18 17 17 16 15 13 12 12 12 12 11 9 8
22 21 21 20 21 24 26 25 25 28 29 26 26 29 32 31 29 26 27 26 20 16 14 13 17 25 23 19 20 19 19 18 17 17 15 15 14 13 13 11 10 10 10
23 22 21 20 23 26 27 27 27 28 31 28 27 28 31 32 31 29 28 24 20 16 12 13 17 18 20 19 19 19 19 17 17 16 16 15 15 14 13 12 11 11 11
25 24 23 22 23 28 28 27 27 27 29 31 29 26 28 34 33 31 29 25 20 14 12 14 18 19 21 21 18 19 18 17 16 17 16 16 15 14 13 12 12 12 12
26 25 25 25 25 25 27 28 28 29 31 35 31 25 20 19 30 37 31 25 19 15 13 16 19 19 18 20 21 18 18 17 16 17 16 15 14 13 13 13 12 12 12
28 26 23 25 28 28 28 26 28 30 35 38 36 24 10 10 28 33 31 27 21 17 13 15 19 20 19 16 16 15 14 17 19 17 16 15 14 13 13 13 13 12 12
30 27 23 24 27 29 28 26 26 29 34 35 35 38 29 22 27 22 32 29 25 21 15 15 17 20 19 16 13 14 14 15 14 15 14 14 15 15 14 14 14 14 14
30 29 26 26 28 28 27 27 26 31 34 36 37 38 34 27 35 35 28 31 31 27 20 19 16 17 19 16 13 12 13 13 13 14 15 15 15 16 16 15 16 15 16
30 29 27 27 30 28 28 26 28 30 32 36 36 37 36 38 37 35 23 33 35 32 27 23 22 18 18 16 14 11 12 12 12 12 13 15 16 16 16 16 16 16 16
30 28 27 26 26 25 27 27 26 27 29 33 37 37 44 45 40 30 22 29 28 30 28 28 25 22 19 17 16 14 13 13 12 13 14 13 14 16 17 18 18 19 19
21 20 22 24 23 26 25 26 27 30 30 33 34 40 50 43 33 33 30 22 23 25 26 27 25 24 21 19 17 15 15 16 16 16 16 16 18 20 21 21 22 22 22
16 15 16 18 22 23 24 24 24 28 31 34 34 37 45 40 36 28 31 31 27 22 33 29 25 23 23 20 17 15 16 17 19 19 19 18 18 18 19 22 24 25 26
16 14 17 20 23 25 24 23 26 28 35 37 34 47 47 40 36 28 31 23 31 27 23 27 28 22 19 20 22 24 22 21 20 17 18 19 19 20 21 25 27 27 28
13 14 16 17 21 20 21 25 26 28 31 37 39 47 45 43 37 30 35 31 32 27 15 15 17 20 18 15 16 16 14 13 16 18 20 22 25 25 27 30 29 30 33
12 13 14 15 15 16 16 17 19 17 28 33 35 46 43 45 40 33 31 26 29 24 24 15 20 21 20 19 18 21 22 25 22 22 22 26 29 33 33 31 36 39 41
13 11 12 11 13 14 15 17 13 14 25 25 27 41 46 44 46 38 31 28 24 20 20 21 20 22 22 25 27 27 27 25 21 23 27 30 31 34 37 37 32 30 33
15 13 12 12 15 15 17 15 14 10 12 24 32 35 37 34 37 39 34 29 30 24 23 25 25 25 26 29 27 22 18 19 23 27 29 29 29 30 32 26 27 30 29
14 13 12 13 13 14 15 14 14 13 15 21 25 31 37 33 26 27 27 30 24 24 24 25 26 29 25 16 15 13 13 17 22 24 24 24 24 21 22 24 26 27 27
17 15 14 14 16 16 14 16 15 15 15 19 21 19 31 32 31 29 31 31 31 25 30 32 25 17 16 17 16 16 15 18 17 17 20 20 20 21 19 20 23 23 25
17 15 14 14 15 15 12 13 15 18 19 21 23 23 27 30 28 31 29 30 28 30 22 21 20 21 23 21 20 20 20 22 22 19 18 19 19 18 18 17 17 21 24
17 15 14 14 14 14 13 12 13 13 16 20 21 23 24 22 23 24 24 26 22 21 22 23 23 24 26 25 24 21 20 18 19 17 14 15 17 17 17 17 19 17 14
19 17 16 16 15 14 15 15 16 17 18 19 18 19 18 18 17 16 16 18 19 20 20 21 20 18 16 14 14 15 14 17 18 18 18 15 15 13 11 9 8 7 8
17 16 17 15 15 15 14 13 15 18 21 20 19 18 18 16 16 16 13 14 14 12 10 8 7 8 9 9 8 7 7 8 8 7 7 8 7 5 5 7 8 9 10

GFSMA_850_spd_096.txt.gz
Wind_Speed
22 22 24 24 23 25 25 24 25 24 25 26 28 29 30 32 29 28 27 26 23 23 19 16 14 15 14 16 17 17 16 17 16 14 14 12 12 12 10 10 11 11 9
21 22 25 25 25 25 24 24 24 23 21 23 25 31 32 31 28 28 27 26 22 20 17 14 15 16 15 15 19 18 17 16 16 16 15 12 12 13 11 11 10 10 9
22 22 24 25 24 25 24 24 23 21 19 21 22 26 25 30 26 29 28 24 22 21 17 13 14 16 16 16 20 18 16 15 14 14 13 13 13 13 12 12 11 11 9
23 23 24 24 24 25 23 24 24 22 20 21 25 26 28 27 27 27 26 24 23 22 18 15 13 15 16 15 19 19 17 16 14 15 15 15 14 13 13 12 11 9 8
24 23 24 23 23 24 24 25 25 23 23 26 26 26 27 32 26 25 27 27 24 23 19 15 14 17 20 18 18 21 19 16 16 16 15 15 14 14 13 12 11 9 8
26 24 24 23 23 24 25 25 26 25 26 29 28 26 26 25 27 28 23 27 28 24 20 18 17 18 23 23 20 20 19 18 18 17 16 15 14 13 13 12 10 9 9
28 27 25 24 25 25 26 25 25 26 30 29 25 23 25 29 32 32 29 27 31 25 21 18 16 17 23 23 19 19 18 17 17 17 16 16 16 15 13 11 10 9 9
31 29 27 26 26 25 27 26 26 27 31 32 30 27 20 24 29 33 33 33 30 26 22 18 17 18 18 21 21 19 19 19 17 17 18 17 16 14 13 12 11 10 10
33 31 28 26 26 27 27 27 27 30 32 33 35 24 11 11 22 24 29 35 34 28 22 18 17 19 19 18 23 22 22 20 18 19 18 17 16 14 13 12 11 11 10
35 32 30 27 26 27 27 26 28 31 30 34 35 36 26 16 13 11 29 38 32 28 22 19 18 19 20 19 18 17 14 16 20 20 18 17 15 14 14 13 12 12 12
36 34 33 28 27 27 28 26 26 29 31 33 33 38 36 27 19 19 19 31 31 28 23 20 17 19 22 20 19 17 16 17 17 16 16 16 16 16 15 14 13 13 13
42 36 33 30 27 27 26 26 27 28 29 33 32 34 38 37 35 27 25 37 36 32 25 24 22 20 20 21 19 16 15 16 17 16 15 15 15 14 14 13 14 14 14
40 39 34 33 29 27 26 26 26 25 27 30 30 34 37 36 37 33 36 39 38 31 26 29 25 22 20 20 19 17 15 16 15 14 13 12 13 15 16 16 16 16 16
35 34 32 29 29 29 28 26 23 26 26 27 31 35 35 34 36 37 37 39 31 28 29 32 29 26 24 22 19 18 17 17 16 15 14 13 14 15 16 16 17 18 18
30 28 28 27 25 21 22 22 26 28 27 26 27 33 32 34 36 40 42 35 32 24 29 30 27 26 26 25 21 20 18 18 18 17 17 17 17 16 17 18 19 20 22
24 23 22 21 20 21 22 23 24 25 25 27 29 33 33 36 36 47 41 35 31 32 27 26 26 25 24 24 22 21 20 19 18 18 19 21 21 21 21 21 22 23 23
20 21 19 19 21 21 21 22 24 24 24 24 28 31 36 41 42 42 44 37 35 35 26 26 25 26 24 22 25 24 23 20 19 21 22 22 21 22 22 22 22 24 26
21 19 20 20 19 19 19 20 22 23 24 25 26 29 46 44 41 44 38 34 30 32 30 27 25 23 22 20 18 18 19 17 15 18 21 26 25 24 27 29 31 30 28
21 20 19 18 16 15 14 13 13 14 17 23 24 29 29 41 46 41 39 39 32 29 33 29 26 19 19 21 20 15 17 19 22 25 28 28 29 29 28 30 30 33 37
20 16 15 14 13 13 12 13 13 14 14 14 23 18 39 44 46 43 38 39 34 31 26 26 24 25 26 27 24 21 22 25 25 26 28 29 29 29 30 31 35 35 36
18 17 16 13 12 14 13 13 13 13 13 10 18 26 26 41 37 44 40 38 36 32 28 24 25 28 28 27 29 29 31 28 25 26 26 27 27 27 28 27 28 26 23
21 18 15 13 13 10 8 9 10 10 12 14 16 20 27 28 42 45 42 35 34 32 29 28 26 29 30 25 29 26 24 23 23 24 22 22 22 19 18 18 19 20 20
19 16 14 12 10 9 8 10 9 11 13 14 14 15 16 26 28 21 26 27 29 34 28 26 29 27 27 24 23 20 21 21 22 20 21 20 18 17 15 15 16 18 18
19 16 14 12 10 9 7 9 8 11 14 18 17 16 15 17 18 23 27 28 30 29 27 25 23 22 21 21 21 22 22 23 22 20 18 16 16 15 14 15 15 17 19
19 17 14 12 10 8 9 8 8 11 13 14 15 15 16 19 22 24 23 25 26 24 23 24 22 22 22 22 22 20 17 17 16 14 13 12 13 12 12 11 11 9 8
11 10 11 10 8 7 9 10 10 12 14 14 14 13 14 13 15 17 16 16 16 16 14 16 14 13 11 10 8 10 11 11 12 10 10 9 8 7 7 8 7 7 8

GFSMA_850_spd_099.txt.gz
Wind_Speed
24 23 24 25 25 25 26 26 26 25 25 26 28 25 26 26 29 28 29 26 31 31 28 25 22 18 16 18 18 18 18 17 15 14 14 13 13 14 12 12 12 13 12
25 24 24 24 25 24 26 27 26 24 26 27 28 28 28 27 30 30 31 28 30 29 26 24 20 18 19 19 17 17 18 17 17 17 17 16 14 13 14 13 13 12 12
27 25 25 25 25 24 26 25 24 23 25 27 28 28 28 28 31 31 34 28 30 27 25 20 18 17 19 19 15 18 17 17 17 16 17 15 14 15 14 15 14 14 12
29 27 27 26 24 24 25 25 25 25 25 25 23 22 21 25 27 33 30 31 28 27 22 18 17 17 19 19 15 19 19 19 17 17 15 16 16 16 16 15 14 13 11
31 30 29 27 25 25 25 25 26 26 26 24 21 20 21 21 25 33 25 30 29 25 23 21 18 17 19 19 14 19 20 19 17 16 15 17 17 16 16 15 13 12 10
33 33 30 29 26 26 26 25 26 27 26 24 22 23 23 26 26 25 25 24 28 25 23 21 20 19 19 21 19 20 22 20 18 18 17 16 17 17 16 15 14 12 11
35 34 32 30 29 28 27 25 24 28 27 25 25 24 24 21 27 30 21 24 28 28 27 24 22 18 21 22 23 21 20 23 21 21 19 18 18 17 16 16 15 13 12
38 36 34 33 30 28 26 25 29 28 30 30 31 27 18 24 27 28 27 28 27 29 31 26 24 21 20 23 26 24 22 22 21 21 20 19 18 18 18 17 14 13 12
40 36 35 33 32 30 29 28 28 30 32 31 33 23 11 11 22 32 34 32 31 27 31 28 26 23 23 20 22 23 21 22 20 19 21 20 20 19 17 16 15 13 12
37 37 30 34 33 30 30 29 28 31 33 31 33 36 25 17 15 13 29 30 32 33 35 31 27 24 23 22 22 26 24 23 21 19 20 21 19 19 18 17 15 14 13
36 43 38 43 38 31 30 29 30 32 33 33 34 36 37 25 21 20 18 27 33 34 38 36 29 25 23 23 23 24 21 23 25 24 22 19 19 18 17 17 16 14 13
31 39 44 48 42 34 31 28 28 28 32 31 33 34 37 38 30 23 19 21 31 34 39 34 29 25 23 24 25 23 22 21 20 22 24 22 20 19 18 18 17 15 13
34 31 38 41 40 36 30 29 27 28 30 30 31 33 35 36 32 30 28 23 25 32 32 33 30 26 22 24 25 23 22 21 21 22 21 21 20 19 18 17 17 15 15
37 40 40 44 42 34 32 28 25 28 26 27 28 27 33 34 35 36 32 26 23 31 40 38 34 30 25 24 24 23 21 20 20 20 20 19 18 17 17 18 18 18 18
42 36 37 41 39 35 32 27 27 27 26 24 24 25 29 30 30 32 32 34 32 24 34 38 32 31 30 25 23 23 23 21 20 19 19 19 18 18 19 19 19 20 21
19 24 31 33 34 29 28 26 27 26 25 25 26 26 27 29 31 30 32 34 36 34 28 35 35 30 28 26 25 25 24 22 20 22 22 22 22 22 22 23 23 24 25
22 32 28 30 28 25 23 25 25 23 23 24 25 27 29 31 36 35 37 34 39 39 32 32 29 27 27 29 31 29 27 25 26 25 26 27 26 26 26 26 26 25 25
19 26 26 23 22 21 21 22 22 23 25 24 24 25 29 32 32 34 36 37 37 41 34 30 34 34 30 29 30 31 31 28 27 27 27 27 25 24 26 27 26 25 24
19 22 22 20 20 19 20 22 22 23 24 22 21 25 29 31 34 36 39 40 42 40 34 34 29 30 29 29 30 31 30 28 28 25 22 21 21 25 28 28 29 28 28
25 27 23 22 21 19 18 18 18 16 15 17 19 21 26 29 36 39 44 43 46 40 36 34 30 30 29 29 27 28 29 26 24 22 22 23 27 30 32 32 31 30 31
29 26 23 21 19 17 16 17 16 15 14 18 17 15 17 19 26 30 40 43 41 39 37 38 34 33 31 30 30 28 25 22 22 23 24 25 28 28 28 27 27 28 28
31 27 23 21 17 15 14 13 15 13 13 14 14 12 13 22 30 39 42 41 45 38 41 37 33 37 37 37 32 30 27 26 25 26 28 27 25 22 23 21 22 23 23
31 28 24 20 17 14 13 12 11 12 14 12 12 10 10 12 30 32 38 44 41 43 37 35 36 35 30 30 32 33 34 36 37 32 27 22 19 19 17 16 15 13 13
29 27 21 17 12 13 12 10 12 11 11 12 13 12 13 10 22 34 38 37 42 43 41 36 31 29 30 29 30 29 28 30 30 27 26 22 21 18 15 13 11 11 13
19 22 18 14 12 10 12 11 11 11 12 12 13 14 14 14 15 21 25 25 28 30 31 32 30 30 31 27 26 27 29 29 26 23 23 18 19 15 11 11 11 11 10
15 17 17 14 11 8 9 10 11 12 12 12 12 12 14 13 15 20 20 22 28 26 26 28 30 27 27 26 25 23 21 22 21 16 16 15 16 15 10 11 10 9 8

GFSMA_850_spd_102.txt.gz
Wind_Speed
30 22 21 21 23 20 23 21 22 22 22 22 21 23 23 19 20 20 26 25 22 25 25 26 29 27 24 22 21 21 22 21 17 16 15 13 12 12 13 14 13 13 14
29 30 29 27 22 23 25 24 25 22 23 22 22 25 26 21 19 24 26 28 31 27 29 34 32 28 24 23 21 20 19 20 19 17 16 15 15 15 16 15 16 15 14
35 32 31 31 30 25 27 24 25 25 23 22 24 26 27 27 26 27 28 33 34 27 32 33 35 28 24 23 22 20 19 20 21 18 19 20 17 16 16 16 16 15 14
37 34 33 31 30 29 29 27 27 26 25 24 22 24 26 28 31 31 30 34 40 28 31 34 28 22 21 23 23 20 21 22 21 19 20 20 18 17 17 18 17 16 14
39 38 34 33 30 29 31 29 29 26 25 25 22 25 24 23 24 26 31 34 44 28 25 31 26 21 19 22 23 19 21 22 20 19 20 20 20 19 18 18 17 16 15
41 39 35 35 31 30 31 29 30 27 26 25 26 24 20 24 22 21 21 30 36 28 27 24 21 20 20 24 23 20 19 24 22 20 20 21 21 21 20 19 18 17 16
41 39 36 36 33 32 31 29 28 27 26 26 20 19 23 23 22 22 21 27 31 27 20 20 22 20 25 25 24 21 21 22 22 21 20 19 21 21 21 20 20 18 16
42 39 38 37 35 33 31 29 29 28 28 26 26 24 17 23 23 23 27 25 24 19 21 20 21 20 20 24 25 25 23 22 25 22 23 20 20 22 22 21 21 19 17
44 43 37 36 36 33 31 27 27 28 29 28 29 19 10 11 20 24 26 27 23 28 23 28 28 21 17 19 24 26 26 25 23 24 22 21 21 21 22 22 21 19 17
48 42 37 38 38 33 29 27 26 26 29 31 31 32 17 14 12 11 30 27 29 34 32 27 33 30 23 19 20 21 29 27 23 22 24 24 21 21 22 22 22 19 18
49 46 41 32 41 27 26 25 27 29 30 32 35 35 34 20 16 10 18 34 36 35 33 32 32 32 31 24 21 22 27 27 27 24 21 22 23 22 22 22 20 19 17
49 43 40 41 39 38 39 33 29 31 32 32 34 35 35 28 24 22 17 26 36 36 38 39 36 35 34 29 24 25 27 29 27 29 26 24 22 22 21 21 20 19 17
44 45 42 44 43 44 36 44 36 34 32 34 34 38 36 37 29 30 27 21 27 32 33 37 38 39 39 33 26 29 28 27 27 30 29 26 25 22 20 19 19 19 18
39 40 40 35 47 44 36 45 36 37 30 33 34 35 35 35 35 36 33 27 17 24 29 30 33 40 37 32 30 26 26 27 27 27 27 28 28 26 24 22 21 20 20
26 31 40 43 29 31 50 36 38 36 32 34 32 32 33 34 33 36 31 27 31 20 28 30 31 38 39 33 28 28 30 29 27 26 26 26 25 24 24 24 25 24 23
31 30 34 34 32 42 40 40 36 34 30 31 31 30 30 31 30 31 33 34 36 31 23 31 36 41 44 37 31 27 32 28 26 25 24 24 24 24 24 24 24 24 25
33 37 31 20 19 36 36 36 29 30 27 30 30 28 29 28 29 28 31 30 31 30 34 27 34 40 42 35 30 29 29 28 29 28 27 27 27 27 27 27 27 27 28
31 35 31 18 25 25 28 28 31 30 27 28 28 27 29 30 30 32 33 35 36 36 34 34 33 37 36 34 31 30 29 31 32 29 28 29 29 30 29 29 29 28 29
31 32 32 38 46 33 28 30 28 28 28 26 26 28 29 27 29 31 34 34 35 37 36 37 34 35 36 34 32 32 34 34 31 30 30 30 29 29 29 30 29 29 30
27 28 32 32 30 29 27 26 25 26 27 26 25 26 26 27 30 32 32 37 34 38 39 39 36 37 39 36 35 36 36 33 34 33 31 31 30 30 30 26 24 28 30
24 29 31 32 30 26 25 26 27 27 22 23 22 23 25 25 28 32 37 38 36 42 43 40 36 34 36 34 35 38 38 37 33 33 30 31 28 25 25 27 29 31 34
30 30 31 27 26 24 26 26 24 24 22 22 21 22 21 20 20 24 22 33 35 45 45 43 37 40 38 38 36 37 39 38 33 30 30 26 25 24 25 24 25 30 29
32 34 35 29 26 26 25 22 22 21 20 21 20 19 21 20 18 13 21 33 36 40 40 43 38 36 40 43 45 40 41 39 35 28 28 26 25 25 22 22 22 21 19
15 18 25 25 27 24 21 19 19 18 17 16 16 16 15 14 13 17 21 31 33 36 37 37 34 38 36 37 40 39 36 34 32 30 32 29 26 23 22 19 18 17 15
11 16 20 17 20 17 18 17 17 16 15 15 14 14 14 14 12 15 24 31 36 39 36 33 36 36 39 39 37 36 38 39 33 31 33 31 30 25 21 18 15 14 13
20 15 15 19 18 14 14 15 12 13 14 13 13 12 14 12 13 15 16 25 29 29 29 34 36 37 34 30 34 36 34 38 36 28 30 25 30 28 16 17 16 13 9

GFSMA_850_spd_105.txt.gz
Wind_Speed
24 22 20 21 20 23 22 23 24 22 22 23 23 20 20 23 17 19 17 20 21 23 24 26 26 26 27 26 25 26 26 26 24 21 18 16 14 12 11 11 10 10 13
31 23 23 22 21 21 25 23 22 22 25 23 23 22 22 22 22 24 18 18 20 24 26 26 27 29 30 29 27 26 27 26 24 21 18 17 15 14 14 13 14 14 15
35 26 28 29 22 19 25 26 26 26 23 23 23 22 21 23 21 23 22 18 18 23 25 26 29 39 36 30 26 27 26 25 22 19 18 16 16 17 15 16 16 15 14
37 36 26 30 27 23 26 29 27 28 24 21 20 22 21 22 20 21 23 22 24 21 25 30 29 33 36 32 28 27 26 23 21 23 22 19 21 21 18 18 18 18 17
34 37 35 35 29 25 30 32 30 28 27 21 21 20 23 20 21 20 23 26 27 26 26 31 28 39 25 29 27 28 27 25 23 23 23 22 21 20 20 19 19 18 18
34 36 39 38 35 31 30 32 33 28 29 24 18 22 22 19 22 24 20 23 23 26 30 31 28 19 29 27 26 28 27 25 24 23 23 23 21 21 21 21 21 20 19
33 35 35 35 37 35 31 32 30 29 30 26 25 25 22 23 19 21 21 22 23 21 21 30 20 33 28 26 27 29 27 25 24 23 24 22 21 22 22 22 22 21 20
35 36 37 38 38 35 32 32 34 29 27 27 25 22 14 20 23 21 21 23 21 18 25 22 36 42 32 33 28 28 27 25 22 23 25 20 20 22 22 23 23 22 22
43 45 38 44 40 37 37 36 37 32 30 27 31 18 9 9 13 22 23 24 23 20 24 24 18 35 28 27 28 29 27 27 23 22 22 22 20 20 22 22 23 23 22
39 41 44 46 40 37 37 36 36 32 26 31 29 29 19 11 9 9 24 26 23 25 24 24 24 17 25 23 25 26 30 29 26 23 19 24 23 21 23 23 24 24 22
40 41 45 45 43 37 37 31 25 29 30 28 33 33 27 22 16 12 10 21 24 26 26 26 28 24 27 22 21 24 22 27 28 26 22 25 24 23 22 23 25 24 23
39 43 41 45 43 41 36 33 29 42 34 29 26 29 30 29 26 20 15 11 27 30 31 33 31 29 27 31 30 22 22 24 28 29 26 24 27 24 22 22 24 24 22
38 41 45 47 47 40 39 35 29 42 38 31 30 29 29 30 26 22 24 18 18 27 32 37 35 39 37 33 32 34 27 25 25 27 29 26 26 24 23 23 22 22 21
34 34 41 45 46 44 50 44 39 44 38 34 30 28 28 29 29 26 23 21 17 24 29 33 36 40 37 37 37 34 33 30 26 29 32 30 28 26 24 22 20 21 20
30 28 37 38 39 36 33 32 36 38 38 34 30 28 25 28 31 31 30 31 28 16 27 29 32 32 34 37 38 40 35 30 29 31 32 34 31 28 28 25 24 23 22
29 28 30 36 41 38 33 34 30 29 35 32 29 26 26 28 28 29 30 35 34 34 22 27 29 28 25 31 36 41 34 30 30 29 30 32 31 31 30 29 28 27 27
28 26 31 36 33 42 36 32 26 27 29 30 31 28 30 29 29 29 28 30 31 35 33 26 29 29 29 28 35 39 36 33 30 32 33 32 31 30 29 29 30 30 29
30 28 28 28 30 36 33 34 25 38 32 35 31 29 27 28 28 28 30 31 30 33 35 31 31 31 30 30 38 42 33 29 35 34 32 32 31 30 30 30 30 30 29
27 30 27 28 30 29 26 22 24 48 44 30 29 26 26 29 27 30 29 30 32 31 32 35 34 32 31 30 37 38 35 36 35 33 34 33 32 31 31 31 31 31 31
23 25 26 28 30 27 26 27 26 29 29 27 25 23 24 27 28 30 29 31 35 34 36 35 38 35 35 34 41 41 36 38 37 33 36 35 34 34 34 34 33 33 33
18 18 23 33 25 27 32 29 23 27 25 24 24 23 21 24 26 29 30 32 35 38 36 36 36 37 38 37 46 44 41 36 31 34 36 34 35 34 34 34 33 34 31
18 25 21 28 31 33 31 31 29 24 24 24 24 25 27 27 29 31 31 34 34 34 40 36 40 38 38 43 47 49 46 39 35 35 36 34 31 33 33 32 33 27 27
6 11 20 25 25 26 24 23 24 24 24 23 24 24 26 28 28 28 26 25 30 33 35 39 41 43 44 46 46 44 45 46 43 43 36 33 31 29 27 28 26 29 29
11 3 6 14 16 26 27 25 24 25 23 22 22 23 26 27 24 23 21 22 21 24 34 35 37 42 43 42 42 46 46 45 43 40 38 32 31 27 25 22 21 23 23
19 15 9 8 10 17 20 25 25 22 20 19 18 18 18 18 20 17 14 15 18 23 28 33 34 35 36 35 39 40 41 40 36 35 39 31 32 29 25 23 22 22 20
26 24 22 19 16 17 14 11 16 16 16 14 13 13 19 15 14 13 12 14 19 22 25 32 37 36 30 32 38 40 37 46 44 34 37 34 35 36 21 22 22 19 17

GFSMA_850_spd_108.txt.gz
Wind_Speed
23 24 23 22 23 19 22 24 24 22 21 20 20 22 23 20 20 21 18 17 18 18 19 21 21 25 22 26 26 25 26 26 25 24 22 20 17 15 14 12 11 10 9
24 27 27 25 24 24 22 21 21 25 23 21 24 25 26 24 22 25 20 17 18 19 19 22 22 23 27 27 27 27 28 27 27 26 23 20 18 16 15 13 12 11 12
34 32 31 29 28 24 22 24 25 25 25 25 26 26 26 25 24 24 22 19 20 18 16 22 23 24 26 34 33 30 29 29 27 26 24 21 19 18 16 14 13 13 14
36 41 38 33 33 31 29 30 28 30 29 27 25 24 25 24 24 24 22 23 25 21 16 21 22 23 23 23 36 30 30 29 28 26 24 20 19 18 17 17 17 16 16
34 36 38 39 40 38 31 30 30 34 31 29 23 21 23 24 24 22 24 22 24 23 22 19 25 27 28 28 37 34 31 30 28 26 25 23 23 20 21 22 20 19 19
38 33 36 38 40 40 40 36 35 33 32 27 25 19 20 21 21 22 23 19 22 23 22 21 21 26 28 21 34 31 34 31 29 27 25 26 24 20 19 23 21 21 22
38 37 37 39 42 42 41 42 37 36 33 29 24 22 27 24 24 24 22 23 23 22 20 19 21 27 30 23 37 32 36 33 31 29 27 26 24 22 22 23 22 23 23
38 40 38 40 45 47 46 45 41 37 36 29 29 27 22 26 29 25 22 21 21 20 19 18 15 27 27 32 32 39 36 33 32 28 28 25 23 23 25 24 24 24 24
46 43 41 41 46 35 25 40 38 36 36 32 31 23 11 16 15 24 26 24 24 23 20 19 19 13 25 29 28 30 31 32 31 28 26 24 24 24 26 26 26 26 25
42 44 48 48 47 40 42 30 33 36 33 34 29 35 25 7 10 8 20 25 24 24 21 19 21 21 18 32 28 30 31 32 30 29 25 21 22 24 26 27 27 26 26
45 45 48 46 47 44 51 42 36 35 37 30 27 29 30 28 20 14 12 18 24 27 23 21 19 22 19 30 34 32 31 34 32 30 27 23 21 23 25 27 26 27 26
36 49 48 45 43 39 43 45 46 43 48 30 21 22 27 34 35 28 19 11 16 22 23 24 23 21 25 20 29 31 31 32 30 30 30 26 24 26 26 28 28 27 27
40 34 44 42 41 40 41 47 46 48 33 32 27 29 35 34 36 33 26 21 16 19 18 23 26 20 26 28 25 27 26 28 28 26 28 29 24 28 28 27 25 26 26
40 29 39 37 34 37 40 47 42 43 36 30 25 22 39 34 36 31 29 28 17 19 21 22 25 28 31 31 32 30 33 33 30 28 27 32 30 30 30 28 26 24 25
43 29 35 31 29 35 41 44 42 41 38 42 34 26 40 38 33 33 34 31 27 17 25 25 26 26 33 37 38 35 35 34 36 32 28 29 33 31 31 30 26 22 24
27 32 32 29 28 34 40 43 36 41 38 34 35 32 37 36 32 32 33 33 29 27 24 22 22 25 24 26 29 30 32 36 37 32 30 30 34 34 33 31 28 25 25
27 32 34 31 30 33 34 41 41 40 40 33 35 34 36 34 29 27 28 27 25 25 29 27 28 22 21 21 23 26 30 32 40 38 30 32 33 36 34 32 30 28 28
24 28 34 32 32 34 35 37 39 36 35 32 29 32 33 34 28 25 26 26 24 25 26 24 28 29 27 26 27 25 29 42 40 35 34 36 34 34 34 33 33 33 32
26 29 28 29 28 29 36 39 42 39 36 30 23 31 27 31 28 25 28 25 24 25 25 26 29 34 33 33 28 24 33 44 42 38 39 37 35 35 36 35 34 33 32
14 21 17 23 21 28 31 36 41 40 33 33 26 26 26 25 21 26 27 25 23 23 26 27 32 33 33 33 30 31 36 42 42 38 36 36 38 37 37 35 34 34 33
14 10 20 20 23 23 24 28 34 33 34 28 32 22 23 21 19 23 21 23 25 25 28 28 34 33 32 32 36 36 42 43 42 42 40 37 40 39 38 37 37 36 36
14 10 3 15 13 23 23 23 25 25 25 23 26 27 24 24 21 19 19 21 25 27 30 33 37 40 38 35 36 39 44 45 40 41 38 41 42 40 39 39 39 38 37
15 12 8 5 9 15 25 25 25 28 26 23 29 32 27 25 24 23 24 27 28 30 33 34 37 38 41 40 39 41 47 50 47 43 39 36 32 35 35 35 39 34 33
26 22 17 14 5 2 20 23 25 29 31 28 27 23 24 22 20 23 24 25 24 27 31 33 38 37 38 38 39 41 48 51 44 39 37 34 33 31 30 30 33 34 35
33 32 28 24 21 16 10 5 19 24 23 24 22 20 20 19 21 22 20 18 18 19 22 22 20 31 34 34 42 46 47 49 42 37 39 38 36 34 29 27 26 27 25
37 35 35 34 32 27 21 16 6 14 20 17 14 13 15 14 15 17 17 14 13 12 15 14 19 23 27 32 35 43 43 46 51 35 41 41 42 41 23 25 25 24 23

GFSMA_850_spd_114.txt.gz
Wind_Speed
29 30 30 30 31 30 31 31 31 30 29 28 25 23 21 19 19 17 20 21 20 21 21 19 18 19 22 23 24 25 26 26 27 29 28 27 26 25 23 20 18 16 15
31 32 32 33 33 32 31 31 31 31 32 31 28 26 25 22 20 19 17 21 22 21 21 19 19 19 21 25 25 26 28 29 38 32 31 29 28 26 24 21 19 16 14
31 34 35 37 36 35 33 29 31 29 27 31 32 27 23 22 21 20 20 19 22 21 23 22 21 20 21 22 25 28 28 32 37 35 34 31 30 27 24 22 19 16 14
32 33 33 35 34 33 34 33 31 32 31 29 31 30 26 24 23 23 22 23 23 25 24 24 22 21 22 23 24 27 28 29 44 38 36 34 32 29 26 23 20 17 15
28 31 34 35 33 41 37 36 36 35 35 32 31 30 28 28 26 26 26 26 25 25 27 25 25 23 21 23 23 23 26 23 36 39 37 35 33 31 26 24 21 17 16
27 30 31 34 37 39 39 42 42 40 39 36 34 32 31 29 27 28 27 26 25 26 25 25 25 24 23 24 24 24 25 24 33 36 38 36 35 32 27 24 21 19 18
29 27 32 34 35 38 41 44 40 42 45 43 40 36 35 33 29 25 24 24 25 25 24 26 27 28 26 24 27 28 26 28 37 38 37 37 36 33 28 24 22 24 23
34 34 34 34 36 37 41 44 43 45 42 42 43 36 27 32 30 29 29 28 26 24 25 27 27 28 26 24 27 31 30 28 40 39 39 41 38 35 32 26 25 22 25
35 38 40 38 36 34 38 42 45 42 46 43 38 22 22 11 22 31 33 31 31 30 28 29 33 28 26 25 26 29 34 35 39 40 44 42 40 36 33 30 28 25 25
29 35 42 44 41 36 37 40 43 42 41 45 38 30 19 7 8 10 31 36 36 35 32 32 30 28 27 27 26 27 35 38 39 44 49 45 43 38 34 32 29 27 27
26 27 33 41 46 43 37 38 44 45 42 44 44 41 36 39 41 33 26 30 42 42 35 35 32 31 28 27 26 25 29 38 40 45 36 54 44 38 34 31 28 25 27
27 25 24 29 36 42 39 40 44 46 46 45 47 48 39 46 48 45 38 34 33 35 35 32 33 29 29 27 27 28 25 30 43 51 39 42 44 38 34 31 27 26 28
29 25 24 24 28 34 39 37 40 46 47 46 44 47 46 51 47 42 38 30 29 32 29 33 31 28 28 27 28 25 26 27 28 38 31 51 43 37 34 30 27 26 28
30 28 29 30 30 28 36 40 32 41 47 42 40 34 43 55 59 49 47 40 27 31 33 31 30 25 27 26 27 22 21 27 32 27 31 40 33 33 32 30 26 26 23
31 32 31 33 32 29 29 38 34 36 40 41 40 43 51 60 53 46 43 45 43 24 33 34 31 25 24 26 29 24 24 23 30 25 27 32 29 34 32 31 28 25 23
27 29 30 32 32 29 28 32 36 35 42 45 45 47 49 51 50 43 42 41 40 37 30 35 31 23 22 24 30 28 24 24 30 27 35 34 38 38 36 31 29 26 26
26 26 27 29 28 28 28 30 34 35 33 36 45 45 49 51 50 48 44 39 37 38 38 31 23 18 23 22 27 33 32 27 27 27 24 37 35 38 37 34 32 30 30
24 24 25 26 26 23 26 30 29 29 35 35 42 43 47 54 53 49 50 38 33 37 40 34 28 24 26 25 25 28 35 37 36 36 33 33 33 38 38 38 37 35 34
23 21 22 22 23 22 18 22 24 30 32 38 40 47 45 41 47 47 39 32 36 39 42 28 32 29 28 27 25 25 27 32 37 37 33 36 35 37 41 41 42 38 38
21 19 18 18 17 19 19 19 23 25 33 37 43 42 43 41 50 38 40 37 38 49 44 34 33 31 30 29 25 28 29 28 30 33 32 33 33 35 40 41 41 38 39
24 22 18 16 16 17 16 17 20 26 32 46 28 37 33 33 27 38 38 36 37 43 39 34 31 30 32 29 30 30 30 30 34 32 32 32 34 34 40 45 44 41 41
29 28 26 25 22 19 20 15 14 20 20 23 29 30 25 27 30 29 31 29 35 37 33 34 30 31 32 29 27 29 27 36 38 36 33 32 33 36 39 45 48 44 43
32 32 33 34 33 27 25 14 8 10 15 15 20 28 27 29 27 25 28 26 23 27 31 31 29 33 31 30 29 30 29 33 37 36 40 39 38 38 43 51 47 46 45
38 39 39 39 41 37 27 21 16 8 2 12 13 15 22 24 22 28 33 29 26 31 31 28 30 31 31 27 29 29 30 37 39 36 38 39 42 41 46 46 49 50 48
35 38 40 42 44 44 39 30 26 25 22 18 10 4 13 16 23 23 21 27 32 27 28 26 25 26 30 31 34 35 38 39 38 40 41 43 42 39 36 35 39 42 44
31 33 36 38 39 42 44 42 36 33 32 30 25 20 12 7 13 16 17 19 20 23 23 24 27 29 31 32 32 37 37 41 44 37 40 42 40 41 27 31 33 37 41

GFSMA_850_spd_120.txt.gz
Wind_Speed
24 25 27 28 29 30 31 30 30 30 30 29 28 27 26 24 23 23 24 24 23 22 22 22 20 20 19 18 19 21 22 24 24 25 25 25 26 26 25 25 24 21 19
23 24 25 27 29 30 30 30 32 31 31 31 31 30 28 27 26 26 26 26 26 26 25 25 24 23 22 22 21 22 24 24 24 26 28 27 29 28 27 27 26 22 20
26 27 27 28 29 29 27 30 33 32 32 31 32 32 31 30 30 29 28 28 28 28 28 28 27 26 26 25 23 23 23 25 26 26 28 29 29 30 30 30 28 25 22
27 31 30 33 33 34 31 33 32 33 33 27 29 32 33 32 33 33 31 31 31 30 28 29 29 27 26 24 23 23 23 24 26 26 28 28 32 33 33 32 30 27 23
23 25 32 31 25 22 24 35 35 36 36 34 28 29 32 32 32 31 35 35 32 30 27 25 27 28 27 26 24 23 24 25 26 28 30 30 33 34 35 34 33 29 25
22 23 22 22 23 26 31 29 33 36 37 31 40 52 38 34 30 33 32 34 31 29 27 27 26 29 29 29 28 26 25 26 27 29 30 34 37 38 36 36 35 32 28
22 24 27 27 26 25 24 23 26 29 32 40 39 36 45 50 41 33 29 31 35 29 26 28 28 29 31 32 31 30 29 27 28 28 30 34 36 37 38 36 36 34 31
20 22 24 27 29 30 28 26 25 22 24 22 37 37 31 43 58 55 45 38 35 29 30 33 32 31 34 35 35 34 32 29 28 29 29 33 33 41 43 40 39 37 33
17 20 22 24 26 29 29 29 28 27 27 26 25 25 9 14 26 42 46 58 46 39 42 43 31 31 34 37 37 37 34 33 30 31 30 31 30 36 45 43 42 39 35
15 16 19 21 23 25 26 27 27 30 29 30 31 32 33 27 15 14 30 44 55 55 44 47 45 38 36 37 41 39 34 33 32 32 33 33 34 35 46 43 42 40 38
15 15 15 17 18 20 21 24 26 27 30 33 33 34 34 35 38 31 24 31 38 44 44 48 49 40 43 42 42 40 37 35 34 34 35 36 35 36 49 47 46 43 41
15 15 15 14 15 16 17 19 21 24 27 32 36 34 37 35 36 36 35 32 36 36 48 43 52 51 45 45 46 42 37 36 36 36 36 36 38 38 47 49 46 45 44
17 16 16 15 15 15 16 17 20 23 23 28 35 38 41 41 40 37 43 40 37 41 41 45 53 55 45 47 51 47 41 38 38 38 38 37 39 41 43 48 49 48 48
19 18 18 17 17 16 17 18 21 24 25 26 28 35 39 41 42 42 45 41 37 39 41 47 50 53 49 42 52 50 45 40 39 39 39 38 39 42 45 48 48 50 54
19 19 19 18 17 16 16 19 21 20 23 25 27 26 36 39 44 43 45 46 45 32 39 51 51 54 50 43 41 50 45 43 38 40 40 39 39 39 49 55 56 58 58
19 18 18 18 18 18 18 18 21 20 22 23 25 25 31 38 40 41 43 46 46 48 40 36 43 46 42 42 38 40 44 42 38 39 40 38 39 39 40 50 56 60 59
19 19 20 20 19 20 18 18 19 19 21 20 22 23 28 33 37 39 38 39 44 46 43 38 36 31 32 31 31 31 38 41 40 38 37 35 32 30 40 38 48 58 51
21 21 21 21 19 20 20 22 22 21 18 17 19 23 26 33 34 36 37 39 39 42 43 40 41 39 37 36 27 34 35 37 39 36 35 32 29 29 31 33 46 47 54
22 22 22 23 23 24 24 23 21 21 16 15 16 16 23 29 35 37 37 38 39 40 39 40 40 44 43 36 32 37 35 32 34 34 33 30 29 30 29 19 28 46 46
25 25 26 29 29 27 27 27 24 20 16 13 13 16 14 20 28 32 34 37 35 37 38 40 41 44 39 31 44 47 37 33 34 33 34 32 29 33 33 31 27 36 36
30 31 32 34 36 35 34 32 28 24 21 17 13 12 14 20 25 26 34 37 32 33 33 41 35 37 34 36 42 42 38 33 34 33 32 36 34 34 32 35 33 39 40
29 33 35 37 39 40 36 34 31 28 25 23 22 18 16 16 21 29 33 35 37 33 37 37 35 38 39 45 44 42 40 37 35 34 33 31 37 39 38 37 37 36 44
29 32 35 36 37 37 37 36 35 34 32 31 31 29 25 22 18 21 24 32 41 40 42 37 38 38 38 36 35 42 43 40 38 37 34 32 34 35 40 41 41 38 37
29 33 34 34 35 36 34 34 34 36 37 38 38 36 35 32 26 19 12 12 22 30 28 33 30 32 33 33 37 41 45 45 36 38 36 34 35 35 35 34 36 36 37
29 33 34 34 36 36 35 35 34 36 39 40 40 41 40 37 33 25 18 12 8 8 14 22 40 35 37 36 42 43 46 39 42 41 36 33 34 33 32 36 36 36 33
30 30 32 33 33 36 37 38 38 38 39 38 38 40 41 40 36 31 28 22 20 16 14 7 10 20 26 35 47 48 45 42 42 36 36 34 34 33 32 36 36 38 36

GFSMA_850_spd_123.txt.gz
Wind_Speed
25 25 27 28 30 32 33 32 32 31 31 29 29 27 26 25 23 22 21 20 21 22 22 21 21 20 20 20 21 22 22 22 23 23 25 25 24 25 26 25 24 23 21
23 23 23 24 26 28 29 31 33 33 33 32 32 31 29 28 26 24 23 23 23 23 24 23 23 22 21 20 21 22 22 23 24 23 25 27 25 25 27 27 27 25 23
21 25 26 24 25 26 26 27 28 31 33 34 35 34 31 30 28 26 24 24 25 25 25 25 26 25 24 23 23 23 23 24 25 25 26 27 28 27 31 30 29 27 26
23 25 27 29 30 29 28 29 30 30 32 33 35 35 33 31 29 24 25 27 28 28 27 26 26 28 28 27 26 25 25 25 26 26 26 27 28 29 33 32 31 29 28
20 23 25 28 30 30 29 35 32 35 33 35 35 35 33 31 27 28 19 27 29 31 30 29 28 28 30 31 30 28 27 26 26 28 28 28 28 32 33 34 33 31 31
21 22 23 24 24 24 28 30 27 26 33 39 36 33 39 31 26 25 31 29 30 31 32 28 28 30 30 30 32 31 30 28 27 28 30 31 29 30 34 37 35 35 34
19 21 23 24 26 26 25 24 24 25 26 32 34 40 51 46 41 58 41 45 33 30 30 30 27 31 32 32 33 33 32 32 30 28 31 32 32 32 35 37 38 39 37
16 18 20 21 23 25 25 26 27 27 25 21 27 26 14 43 55 56 50 58 44 37 33 33 36 40 38 36 31 34 35 35 34 30 31 31 32 32 37 39 43 43 40
14 15 18 20 20 22 23 23 26 29 29 22 25 23 12 18 28 46 47 56 53 53 37 38 48 45 42 39 36 37 36 38 38 35 32 32 32 33 36 37 41 41 41
14 14 16 18 20 20 20 21 22 26 28 30 27 29 32 24 15 18 31 45 49 52 59 51 54 49 51 48 42 42 37 40 40 39 37 34 34 32 35 36 40 42 39
14 15 16 16 17 17 18 19 19 20 24 29 31 32 28 33 35 34 21 29 35 41 47 52 57 60 52 54 50 45 41 39 39 40 39 36 36 35 34 35 40 46 46
17 16 14 15 16 15 15 16 17 19 20 22 28 31 36 26 31 38 39 29 33 37 38 40 48 60 60 55 53 55 48 41 40 39 40 37 37 38 38 36 37 39 46
19 18 17 15 15 16 16 17 17 18 19 23 25 27 35 43 30 32 35 34 30 29 36 42 44 40 47 57 59 55 51 44 40 39 39 39 38 39 38 38 40 42 50
21 20 19 19 17 17 17 18 18 19 20 23 25 27 28 31 40 40 42 33 35 33 32 39 39 47 46 54 54 54 50 44 43 43 41 40 40 40 41 41 42 41 46
19 20 20 18 19 19 18 17 18 18 23 23 24 27 29 28 28 40 40 43 39 33 36 32 36 41 44 47 51 51 50 44 43 46 47 43 42 42 42 43 43 44 50
17 17 18 19 19 18 18 18 16 17 20 23 23 23 26 26 26 32 36 38 40 43 40 34 31 33 41 44 45 47 48 47 46 45 48 45 42 44 43 43 44 45 47
15 16 17 17 18 18 17 14 16 17 17 17 19 20 21 23 24 26 35 39 42 39 44 39 35 29 39 41 43 42 41 43 43 40 48 45 43 43 45 44 44 43 49
16 16 17 18 19 20 20 17 15 14 14 12 12 15 16 21 21 25 31 34 37 36 40 38 36 34 41 43 42 40 35 36 38 37 39 42 42 40 43 43 43 44 49
20 21 24 27 29 26 23 19 17 17 14 13 11 10 12 12 18 23 27 29 34 37 37 40 36 34 38 38 38 39 35 33 29 30 30 38 41 40 42 43 40 40 41
24 26 29 31 31 31 28 25 23 21 19 18 15 12 13 13 13 16 25 30 31 35 38 39 39 39 40 40 37 38 38 38 41 42 32 36 39 42 41 37 37 35 35
24 25 26 27 30 32 32 32 30 29 28 25 23 20 19 17 14 16 19 23 28 31 33 39 39 37 35 37 42 44 45 45 46 46 38 35 37 41 40 37 37 33 29
23 25 27 27 29 31 30 30 32 34 35 35 34 30 27 25 20 16 14 15 21 29 33 30 41 34 30 38 40 40 42 44 40 45 38 38 38 41 39 37 37 34 32
23 25 27 27 29 29 29 29 30 32 34 36 38 40 39 36 30 26 20 15 11 15 24 35 29 29 36 38 42 43 44 45 40 34 39 43 40 38 41 42 37 35 39
24 25 25 28 29 31 30 31 30 32 33 35 37 38 40 40 39 33 25 19 16 14 14 12 12 17 20 33 39 39 42 37 33 36 42 39 41 41 38 39 41 40 37
24 26 27 26 29 30 31 32 32 33 34 35 35 36 36 36 36 36 32 29 24 20 14 12 10 7 15 22 28 36 37 32 34 40 42 39 40 41 38 39 37 41 43
25 25 27 29 29 32 32 33 34 34 35 35 35 35 35 34 32 32 34 34 32 31 26 19 13 9 7 14 29 29 31 38 42 43 44 45 43 43 33 39 37 36 36

GFSMA_850_spd_126.txt.gz
Wind_Speed
23 25 26 27 28 27 27 26 29 26 27 26 24 24 23 22 21 19 17 22 20 21 21 22 21 21 21 20 23 24 23 24 25 25 25 26 26 24 20 24 27 25 23
21 22 25 27 27 27 27 27 32 31 29 29 31 29 26 24 22 22 20 20 21 22 23 23 23 24 23 22 23 24 25 25 26 27 26 26 27 27 27 26 30 28 26
21 21 20 22 25 27 29 31 31 31 31 33 34 34 35 33 27 25 24 22 21 23 24 24 25 26 26 25 25 25 26 27 28 28 28 27 28 29 27 26 32 30 28
22 23 24 25 26 27 29 29 29 32 33 32 33 34 35 34 34 32 27 25 23 22 24 24 24 27 28 29 28 27 27 28 29 29 28 28 29 29 29 28 31 33 30
22 21 21 23 25 27 29 30 32 33 33 34 35 36 38 35 35 35 35 31 30 28 26 27 26 27 30 30 32 32 30 29 30 29 30 30 29 29 30 30 31 35 34
16 17 17 20 22 21 22 25 30 31 36 39 36 42 46 37 30 30 31 30 31 30 31 29 29 33 32 33 34 35 34 32 31 30 30 31 31 30 30 31 32 37 36
16 15 15 17 19 20 20 22 22 23 28 34 35 39 37 31 46 36 32 29 30 38 41 42 39 35 34 35 36 34 35 35 34 33 32 31 31 32 32 32 34 37 37
13 15 17 19 20 22 24 24 23 21 21 22 26 28 24 29 33 45 39 45 50 59 50 41 46 37 39 30 35 37 36 35 37 36 35 33 32 33 34 34 34 37 41
13 14 17 19 20 21 22 23 25 26 20 21 22 21 11 16 22 29 39 44 46 64 52 56 47 42 41 40 33 36 35 33 38 39 37 36 34 32 34 36 35 37 41
15 17 18 20 21 22 21 22 22 23 25 27 21 28 32 26 22 22 22 31 42 51 49 46 53 55 44 45 43 35 42 38 38 38 40 38 37 34 34 36 36 39 41
14 16 16 17 20 20 22 21 21 21 21 22 27 21 26 28 33 30 27 20 23 27 33 37 46 52 49 52 46 49 50 48 42 37 40 39 39 38 35 36 37 38 41
19 16 16 16 17 19 20 21 21 20 21 22 24 23 27 26 24 30 34 33 33 28 28 28 31 35 42 47 55 52 47 50 50 44 41 40 38 38 38 37 37 37 40
20 18 17 17 17 19 20 21 22 21 20 22 24 26 28 28 36 31 27 30 34 34 36 33 32 32 32 34 39 40 45 53 48 46 42 42 40 39 39 38 38 38 37
19 20 18 16 16 16 18 19 19 18 20 22 24 26 29 30 29 27 36 35 35 34 34 33 32 32 36 34 34 37 40 45 51 52 47 45 43 40 40 39 38 41 41
15 15 14 14 14 14 15 16 16 17 20 23 24 27 27 29 32 31 31 33 37 35 37 34 32 35 30 33 37 38 45 45 47 43 42 48 45 44 42 43 40 42 44
11 12 11 13 14 13 12 12 11 12 16 18 20 21 25 24 26 29 29 31 36 40 39 30 32 31 32 34 34 39 39 42 43 42 45 45 44 47 47 45 43 42 45
12 13 14 15 16 15 13 11 11 11 12 13 14 14 17 21 23 25 26 29 32 37 43 36 30 33 34 32 31 33 35 35 32 38 36 44 48 48 50 50 45 44 46
16 18 19 21 23 22 19 16 15 14 13 15 14 12 13 15 16 18 26 29 28 31 39 37 41 35 37 36 32 34 36 42 39 38 38 39 47 50 50 53 48 45 47
17 19 22 24 25 26 25 23 21 19 18 19 18 18 18 17 15 15 16 22 28 25 29 36 38 38 41 39 38 37 38 41 41 40 39 39 44 46 48 52 49 46 46
17 18 20 22 23 24 25 25 26 25 23 22 21 22 23 22 19 18 16 17 20 29 33 35 27 30 35 38 39 36 37 39 40 36 36 32 34 37 44 50 47 45 45
16 16 18 21 21 24 25 23 22 22 25 28 29 28 28 23 20 17 17 18 18 20 22 27 31 26 32 35 38 38 44 42 45 40 39 43 41 35 36 45 47 46 45
16 17 18 19 23 24 23 21 22 23 25 27 27 28 31 32 26 23 17 15 19 18 18 19 21 24 32 30 27 38 43 42 39 44 47 48 46 44 42 41 45 46 45
15 17 19 20 23 24 23 21 23 23 25 26 28 29 30 31 33 30 23 19 18 14 15 16 18 21 26 27 27 29 33 44 42 42 36 44 50 46 47 48 44 45 44
18 19 20 21 22 25 24 23 22 22 23 25 27 29 30 31 31 29 27 26 23 21 20 19 17 18 18 23 29 31 35 34 41 42 36 40 41 42 42 44 45 45 46
17 20 21 23 24 25 26 25 25 24 24 25 26 28 29 29 30 29 28 27 27 26 21 16 14 13 14 15 20 28 30 33 37 43 42 38 42 38 35 41 42 42 44
17 18 21 22 24 25 26 28 28 27 26 25 25 26 28 29 28 28 28 29 30 30 29 25 22 19 18 19 16 12 13 13 14 27 33 39 44 38 36 34 42 44 43

GFSMA_850_spd_129.txt.gz
Wind_Speed
19 19 21 23 25 24 24 25 28 30 30 29 27 27 28 25 24 22 20 24 25 24 23 24 23 22 22 21 20 24 24 23 25 26 25 25 25 24 21 22 20 23 23
17 17 20 21 24 26 29 27 25 28 31 31 33 34 35 34 30 26 24 25 26 25 25 25 25 25 25 24 23 23 25 25 26 28 27 27 27 28 25 24 20 26 26
20 21 19 18 18 19 22 25 27 29 29 33 37 37 36 35 33 33 29 25 25 25 26 27 27 27 28 27 25 24 26 26 28 28 28 29 28 29 31 28 30 25 31
23 23 23 23 24 22 21 25 26 28 29 35 40 41 41 40 38 36 31 31 28 24 25 25 28 28 28 28 28 27 27 28 29 30 30 29 29 30 30 31 32 27 34
18 18 17 18 21 23 24 23 26 28 31 34 37 29 36 38 39 39 40 37 37 34 27 21 25 29 30 30 29 29 29 30 30 31 31 31 30 30 31 32 32 29 30
15 15 9 12 15 13 12 13 18 21 25 32 36 38 37 35 40 42 40 36 33 31 27 32 27 29 32 34 33 30 32 32 32 32 32 32 32 32 32 32 33 32 30
13 12 15 16 19 17 17 17 17 19 20 21 26 29 37 39 41 43 37 16 32 42 36 44 39 37 32 34 37 35 35 34 34 35 33 33 33 33 33 33 33 33 34
17 17 16 16 18 19 20 20 21 22 20 15 21 26 24 26 28 31 39 36 43 42 42 42 47 46 41 42 35 35 38 36 36 38 36 35 34 34 33 33 34 34 34
15 17 17 16 17 19 20 20 21 22 26 23 17 17 14 14 20 24 29 29 36 48 49 51 47 57 46 36 39 35 35 36 38 39 37 38 35 35 35 33 34 35 35
13 15 18 19 17 18 20 23 22 22 22 28 25 17 20 28 28 25 20 25 27 39 48 49 56 62 64 52 51 41 43 38 36 40 39 38 36 37 38 36 34 35 36
16 18 17 19 20 18 19 23 23 21 21 23 25 24 20 21 24 28 29 29 25 25 27 30 37 44 41 50 47 51 45 43 44 38 40 39 36 38 39 39 36 35 36
14 16 19 20 21 20 19 20 21 21 20 21 24 25 24 22 19 22 26 24 32 37 30 29 29 30 32 37 39 40 44 49 47 45 41 42 41 40 39 39 39 37 37
17 16 18 20 20 21 19 20 20 22 19 19 22 25 26 27 28 29 27 35 33 30 29 31 28 27 32 32 31 39 41 45 44 41 42 43 46 44 41 40 39 37 38
14 17 17 18 21 19 19 18 18 16 17 19 21 22 23 26 27 30 29 26 30 31 38 34 25 27 33 31 29 30 32 39 44 46 49 46 45 47 45 43 40 38 39
14 15 15 15 16 15 15 16 15 14 15 17 18 20 22 23 25 26 29 33 30 31 33 30 31 31 33 29 34 36 34 35 36 40 41 42 40 43 45 45 43 40 39
14 14 15 15 15 15 14 13 12 13 14 15 16 17 17 22 23 25 26 28 31 35 40 32 34 34 27 32 38 38 28 34 37 37 40 42 39 40 48 48 47 43 41
15 15 15 17 18 17 15 14 12 12 13 14 12 12 13 15 17 18 22 23 26 26 30 31 35 34 36 27 29 31 37 37 37 41 43 42 37 35 42 47 49 47 45
15 16 18 18 18 18 16 18 17 16 17 18 17 17 17 15 14 13 14 16 20 25 27 33 36 27 30 29 27 33 36 32 35 33 33 34 34 34 34 47 51 50 50
16 15 17 18 19 18 15 18 18 19 20 21 21 24 24 21 19 17 14 14 16 17 20 24 28 28 31 34 35 36 41 39 42 42 43 40 42 40 37 42 49 53 54
13 14 15 17 18 18 17 18 17 17 17 18 19 22 26 25 25 24 21 20 19 18 18 19 18 24 26 23 22 28 32 36 42 42 46 48 43 40 42 45 49 52 56
12 13 13 16 17 19 18 17 16 17 17 18 20 21 25 23 20 23 25 26 23 21 20 20 19 19 20 25 25 27 27 28 31 35 40 44 43 43 42 40 44 48 51
12 13 14 16 19 19 15 15 16 16 18 21 23 22 22 24 24 23 23 23 27 28 26 24 23 23 22 23 25 27 31 37 38 31 38 46 43 46 44 45 42 37 42
12 13 15 15 18 19 16 14 17 16 18 21 24 25 25 26 25 24 23 23 22 21 21 23 24 25 25 26 27 29 28 30 38 34 33 38 43 46 47 47 48 46 44
13 14 16 16 18 21 19 16 16 17 18 21 23 26 26 27 27 27 24 22 21 22 22 21 19 20 20 23 24 25 28 35 39 37 35 39 40 49 46 46 44 48 49
12 14 15 18 19 22 22 22 18 16 19 20 21 25 26 26 26 26 26 24 22 20 20 18 18 18 17 20 23 23 25 27 32 26 20 28 36 47 50 46 43 42 45
12 12 14 17 19 21 21 22 23 21 20 20 21 23 26 26 27 27 27 27 27 27 26 23 21 20 22 23 24 26 27 28 30 18 17 33 24 22 37 50 43 38 40